Time,TemperatureF,DewpointF,PressureIn,WindDirection,WindDirectionDegrees,WindSpeedMPH,WindSpeedGustMPH,Humidity,HourlyPrecipIn,Conditions,Clouds,dailyrainin,SoftwareType,DateUTC
2013-04-14 00:00:00,35.4,31.1,29.65,North,5,3.0,7.0,84,0.02,,SKC,0.02,VWS V14.01,2013-04-14 06:00:00,
2013-04-14 00:01:00,35.3,31.0,29.64,North,10,4.0,6.0,84,0.02,,SKC,0.00,VWS V14.01,2013-04-14 06:01:00,
2013-04-14 00:02:00,35.3,31.0,29.64,North,9,2.0,4.0,84,0.02,,SKC,0.00,VWS V14.01,2013-04-14 06:02:00,
2013-04-14 00:03:00,35.3,31.0,29.64,North,9,2.0,4.0,84,0.02,,SKC,0.00,VWS V14.01,2013-04-14 06:03:00,
2013-04-14 00:04:00,35.2,31.1,29.64,North,10,2.0,3.0,85,0.02,,SKC,0.00,VWS V14.01,2013-04-14 06:04:00,
2013-04-14 00:05:00,35.2,31.1,29.64,North,11,1.0,3.0,85,0.02,,SKC,0.00,VWS V14.01,2013-04-14 06:05:00,
2013-04-14 00:06:00,35.1,31.0,29.65,North,9,3.0,3.0,85,0.02,,SKC,0.00,VWS V14.01,2013-04-14 06:06:00,
2013-04-14 00:07:00,35.1,31.0,29.64,North,9,0.0,4.0,85,0.02,,SKC,0.00,VWS V14.01,2013-04-14 06:07:00,
2013-04-14 00:08:00,35.1,31.0,29.64,North,9,0.0,2.0,85,0.01,,SKC,0.00,VWS V14.01,2013-04-14 06:08:00,
2013-04-14 00:09:00,35.1,31.0,29.64,North,9,0.0,2.0,85,0.01,,SKC,0.00,VWS V14.01,2013-04-14 06:09:00,
2013-04-14 00:10:00,35.0,31.0,29.64,North,5,0.0,2.0,85,0.01,,SKC,0.00,VWS V14.01,2013-04-14 06:10:00,
2013-04-14 00:11:00,35.0,31.2,29.64,North,11,0.0,0.0,86,0.01,,SKC,0.00,VWS V14.01,2013-04-14 06:11:00,
2013-04-14 00:12:00,35.0,31.2,29.64,North,9,0.0,0.0,86,0.01,,SKC,0.00,VWS V14.01,2013-04-14 06:12:00,
2013-04-14 00:13:00,34.9,31.1,29.63,NNE,12,0.0,0.0,86,0.01,,SKC,0.00,VWS V14.01,2013-04-14 06:13:00,
2013-04-14 00:14:00,34.9,31.1,29.63,NNE,12,0.0,0.0,86,0.01,,SKC,0.00,VWS V14.01,2013-04-14 06:14:00,
2013-04-14 00:15:00,34.9,31.1,29.63,North,11,0.0,0.0,86,0.01,,SKC,0.00,VWS V14.01,2013-04-14 06:15:00,
2013-04-14 00:17:00,34.9,31.1,29.63,North,10,3.0,3.0,86,0.01,,SKC,0.00,VWS V14.01,2013-04-14 06:17:00,
2013-04-14 00:18:00,34.9,31.1,29.63,NNW,344,6.0,6.0,86,0.01,,SKC,0.00,VWS V14.01,2013-04-14 06:18:00,
2013-04-14 00:19:00,34.9,31.1,29.63,NNW,344,6.0,6.0,86,0.01,,SKC,0.00,VWS V14.01,2013-04-14 06:19:00,
2013-04-14 00:20:00,34.7,31.2,29.64,NW,314,5.0,9.0,87,0.01,,SKC,0.00,VWS V14.01,2013-04-14 06:20:00,
2013-04-14 00:21:00,34.7,31.2,29.64,North,360,4.0,7.0,87,0.01,,SKC,0.00,VWS V14.01,2013-04-14 06:21:00,
2013-04-14 00:22:00,34.6,31.1,29.64,North,360,6.0,6.0,87,0.01,,SKC,0.00,VWS V14.01,2013-04-14 06:22:00,
2013-04-14 00:23:00,34.5,32.4,29.64,NW,315,5.0,6.0,92,0.01,,SKC,0.00,VWS V14.01,2013-04-14 06:23:00,
2013-04-14 00:24:00,34.5,32.4,29.64,NW,315,5.0,6.0,92,0.01,,SKC,0.00,VWS V14.01,2013-04-14 06:24:00,
2013-04-14 00:25:00,34.4,30.6,29.65,North,360,3.0,5.0,86,0.01,,SKC,0.00,VWS V14.01,2013-04-14 06:25:00,
2013-04-14 00:26:00,34.4,30.9,29.64,WNW,291,3.0,5.0,87,0.01,,SKC,0.00,VWS V14.01,2013-04-14 06:26:00,
2013-04-14 00:27:00,34.4,30.9,29.65,WNW,286,4.0,10.0,87,0.01,,SKC,0.00,VWS V14.01,2013-04-14 06:27:00,
2013-04-14 00:28:00,34.4,30.9,29.65,NW,305,6.0,9.0,87,0.01,,SKC,0.00,VWS V14.01,2013-04-14 06:28:00,
2013-04-14 00:29:00,34.4,30.9,29.65,NW,305,6.0,9.0,87,0.01,,SKC,0.00,VWS V14.01,2013-04-14 06:29:00,
2013-04-14 00:30:00,34.2,30.7,29.65,North,11,1.0,3.0,87,0.00,,SKC,0.00,VWS V14.01,2013-04-14 06:30:00,
2013-04-14 00:31:00,34.2,30.7,29.65,North,11,2.0,3.0,87,0.00,,SKC,0.00,VWS V14.01,2013-04-14 06:31:00,
2013-04-14 00:32:00,34.2,30.7,29.65,NNE,13,0.0,3.0,87,0.00,,SKC,0.00,VWS V14.01,2013-04-14 06:32:00,
2013-04-14 00:33:00,34.2,30.7,29.65,North,11,0.0,0.0,87,0.00,,SKC,0.00,VWS V14.01,2013-04-14 06:33:00,
2013-04-14 00:34:00,34.2,30.7,29.65,North,11,0.0,0.0,87,0.00,,SKC,0.00,VWS V14.01,2013-04-14 06:34:00,
2013-04-14 00:35:00,34.1,30.6,29.66,NNE,12,0.0,0.0,87,0.00,,SKC,0.00,VWS V14.01,2013-04-14 06:35:00,
2013-04-14 00:36:00,34.1,30.6,29.66,North,11,0.0,0.0,87,0.00,,SKC,0.00,VWS V14.01,2013-04-14 06:36:00,
2013-04-14 00:37:00,34.1,30.6,29.66,North,11,1.0,2.0,87,0.00,,SKC,0.00,VWS V14.01,2013-04-14 06:37:00,
2013-04-14 00:38:00,34.1,30.6,29.66,SE,132,4.0,4.0,87,0.00,,SKC,0.00,VWS V14.01,2013-04-14 06:38:00,
2013-04-14 00:39:00,34.1,30.6,29.66,SE,132,4.0,4.0,87,0.00,,SKC,0.00,VWS V14.01,2013-04-14 06:39:00,
2013-04-14 00:40:00,34.0,30.8,29.66,SE,134,0.0,3.0,88,0.00,,SKC,0.00,VWS V14.01,2013-04-14 06:40:00,
2013-04-14 00:41:00,34.0,30.8,29.66,SE,136,0.0,2.0,88,0.00,,SKC,0.00,VWS V14.01,2013-04-14 06:41:00,
2013-04-14 00:42:00,34.0,30.8,29.66,SE,134,0.0,2.0,88,0.00,,SKC,0.00,VWS V14.01,2013-04-14 06:42:00,
2013-04-14 00:43:00,33.9,30.7,29.66,SE,130,0.0,0.0,88,0.00,,SKC,0.00,VWS V14.01,2013-04-14 06:43:00,
2013-04-14 00:44:00,33.9,30.7,29.66,SE,130,0.0,0.0,88,0.00,,SKC,0.00,VWS V14.01,2013-04-14 06:44:00,
2013-04-14 00:45:00,33.9,30.7,29.67,SE,136,0.0,0.0,88,0.00,,SKC,0.00,VWS V14.01,2013-04-14 06:45:00,
2013-04-14 00:46:00,33.8,30.6,29.67,SE,129,0.0,1.0,88,0.00,,SKC,0.00,VWS V14.01,2013-04-14 06:46:00,
2013-04-14 00:47:00,33.8,30.6,29.67,SE,136,0.0,0.0,88,0.00,,SKC,0.00,VWS V14.01,2013-04-14 06:47:00,
2013-04-14 00:48:00,33.8,30.6,29.67,SE,132,0.0,0.0,88,0.00,,SKC,0.00,VWS V14.01,2013-04-14 06:48:00,
2013-04-14 00:49:00,33.8,30.6,29.67,SE,132,0.0,0.0,88,0.00,,SKC,0.00,VWS V14.01,2013-04-14 06:49:00,
2013-04-14 00:50:00,33.8,30.6,29.68,SE,140,0.0,0.0,88,0.00,,SKC,0.00,VWS V14.01,2013-04-14 06:50:00,
2013-04-14 00:51:00,33.8,30.6,29.68,SE,136,0.0,0.0,88,0.00,,SKC,0.00,VWS V14.01,2013-04-14 06:51:00,
2013-04-14 00:52:00,33.7,30.8,29.68,SE,139,0.0,0.0,89,0.00,,SKC,0.00,VWS V14.01,2013-04-14 06:52:00,
2013-04-14 00:53:00,33.7,30.5,29.68,SE,138,0.0,3.0,88,0.00,,SKC,0.00,VWS V14.01,2013-04-14 06:53:00,
2013-04-14 00:54:00,33.7,30.8,29.68,South,182,5.0,5.0,89,0.00,,SKC,0.00,VWS V14.01,2013-04-14 06:54:00,
2013-04-14 00:55:00,33.7,30.8,29.68,South,182,5.0,5.0,89,0.00,,SKC,0.00,VWS V14.01,2013-04-14 06:55:00,
2013-04-14 00:56:00,33.7,30.8,29.69,WSW,255,4.0,5.0,89,0.00,,SKC,0.00,VWS V14.01,2013-04-14 06:56:00,
2013-04-14 00:57:00,33.7,30.8,29.69,WSW,250,5.0,7.0,89,0.00,,SKC,0.00,VWS V14.01,2013-04-14 06:57:00,
2013-04-14 00:58:00,33.7,30.8,29.70,North,360,17.0,17.0,89,0.00,,SKC,0.00,VWS V14.01,2013-04-14 06:58:00,
2013-04-14 00:59:00,33.7,30.8,29.69,West,268,10.0,17.0,89,0.00,,SKC,0.00,VWS V14.01,2013-04-14 06:59:00,
2013-04-14 01:00:00,33.7,30.8,29.69,West,268,10.0,17.0,89,0.00,,SKC,0.00,VWS V14.01,2013-04-14 07:00:00,
2013-04-14 01:01:00,33.7,30.8,29.69,North,360,13.0,13.0,89,0.00,,SKC,0.00,VWS V14.01,2013-04-14 07:01:00,
2013-04-14 01:02:00,33.8,30.6,29.69,North,360,20.0,25.0,88,0.00,,SKC,0.00,VWS V14.01,2013-04-14 07:02:00,
2013-04-14 01:03:00,33.8,30.6,29.69,West,276,29.0,29.0,88,0.00,,SKC,0.00,VWS V14.01,2013-04-14 07:03:00,
2013-04-14 01:04:00,33.8,29.8,29.69,West,267,20.0,33.0,85,0.00,,SKC,0.00,VWS V14.01,2013-04-14 07:04:00,
2013-04-14 01:05:00,33.8,29.8,29.69,West,267,20.0,33.0,85,0.00,,SKC,0.00,VWS V14.01,2013-04-14 07:05:00,
2013-04-14 01:06:00,33.7,29.1,29.69,West,263,16.0,24.0,83,0.00,,SKC,0.00,VWS V14.01,2013-04-14 07:06:00,
2013-04-14 01:07:00,33.7,28.8,29.69,West,272,15.0,22.0,82,0.00,,SKC,0.00,VWS V14.01,2013-04-14 07:07:00,
2013-04-14 01:08:00,33.7,28.8,29.69,WSW,256,14.0,20.0,82,0.00,,SKC,0.00,VWS V14.01,2013-04-14 07:08:00,
2013-04-14 01:09:00,33.7,28.8,29.69,WSW,258,10.0,14.0,82,0.00,,SKC,0.00,VWS V14.01,2013-04-14 07:09:00,
2013-04-14 01:10:00,33.7,28.8,29.69,WSW,258,10.0,14.0,82,0.00,,SKC,0.00,VWS V14.01,2013-04-14 07:10:00,
2013-04-14 01:11:00,33.6,28.4,29.68,West,277,16.0,17.0,81,0.00,,SKC,0.00,VWS V14.01,2013-04-14 07:11:00,
2013-04-14 01:12:00,33.5,28.0,29.68,WNW,298,19.0,24.0,80,0.00,,SKC,0.00,VWS V14.01,2013-04-14 07:12:00,
2013-04-14 01:13:00,33.4,27.6,29.68,WNW,300,20.0,26.0,79,0.00,,SKC,0.00,VWS V14.01,2013-04-14 07:13:00,
2013-04-14 01:14:00,33.3,27.2,29.68,North,360,21.0,26.0,78,0.00,,SKC,0.00,VWS V14.01,2013-04-14 07:14:00,
2013-04-14 01:15:00,33.3,27.2,29.68,North,360,21.0,26.0,78,0.00,,SKC,0.00,VWS V14.01,2013-04-14 07:15:00,
2013-04-14 01:16:00,33.2,26.8,29.68,West,281,18.0,31.0,77,0.00,,SKC,0.00,VWS V14.01,2013-04-14 07:16:00,
2013-04-14 01:17:00,33.0,26.3,29.69,West,277,16.0,23.0,76,0.00,,SKC,0.00,VWS V14.01,2013-04-14 07:17:00,
2013-04-14 01:18:00,33.0,26.3,29.69,WNW,284,24.0,24.0,76,0.00,,SKC,0.00,VWS V14.01,2013-04-14 07:18:00,
2013-04-14 01:19:00,32.9,25.9,29.68,NW,311,19.0,24.0,75,0.00,,SKC,0.00,VWS V14.01,2013-04-14 07:19:00,
2013-04-14 01:20:00,32.9,25.9,29.68,NW,311,19.0,24.0,75,0.00,,SKC,0.00,VWS V14.01,2013-04-14 07:20:00,
2013-04-14 01:21:00,32.8,25.1,29.68,North,360,16.0,23.0,73,0.00,,SKC,0.00,VWS V14.01,2013-04-14 07:21:00,
2013-04-14 01:23:00,32.8,25.4,29.68,NW,304,19.0,26.0,74,0.00,,SKC,0.00,VWS V14.01,2013-04-14 07:23:00,
2013-04-14 01:24:00,32.8,25.4,29.69,North,360,18.0,24.0,74,0.00,,SKC,0.00,VWS V14.01,2013-04-14 07:24:00,
2013-04-14 01:25:00,32.7,25.3,29.68,WNW,289,14.0,20.0,74,0.00,,SKC,0.00,VWS V14.01,2013-04-14 07:25:00,
2013-04-14 01:26:00,32.7,25.3,29.68,WNW,289,14.0,20.0,74,0.00,,SKC,0.00,VWS V14.01,2013-04-14 07:26:00,
2013-04-14 01:27:00,32.6,25.2,29.68,WNW,288,16.0,22.0,74,0.00,,SKC,0.00,VWS V14.01,2013-04-14 07:27:00,
2013-04-14 01:28:00,32.6,25.2,29.68,WNW,301,17.0,18.0,74,0.00,,SKC,0.00,VWS V14.01,2013-04-14 07:28:00,
2013-04-14 01:29:00,32.5,24.8,29.67,North,360,15.0,20.0,73,0.00,,SKC,0.00,VWS V14.01,2013-04-14 07:29:00,
2013-04-14 01:30:00,32.4,24.7,29.67,West,264,16.0,16.0,73,0.00,,SKC,0.00,VWS V14.01,2013-04-14 07:30:00,
2013-04-14 01:31:00,32.4,24.7,29.67,West,264,16.0,16.0,73,0.00,,SKC,0.00,VWS V14.01,2013-04-14 07:31:00,
2013-04-14 01:32:00,32.4,25.0,29.67,NNW,334,15.0,15.0,74,0.00,,SKC,0.00,VWS V14.01,2013-04-14 07:32:00,
2013-04-14 01:33:00,32.3,24.6,29.66,North,360,14.0,16.0,73,0.00,,SKC,0.00,VWS V14.01,2013-04-14 07:33:00,
2013-04-14 01:34:00,32.3,25.0,29.66,North,360,17.0,18.0,74,0.00,,SKC,0.00,VWS V14.01,2013-04-14 07:34:00,
2013-04-14 01:35:00,32.2,24.5,29.65,West,273,16.0,18.0,73,0.00,,SKC,0.00,VWS V14.01,2013-04-14 07:35:00,
2013-04-14 01:36:00,32.2,24.5,29.65,West,273,16.0,18.0,73,0.00,,SKC,0.00,VWS V14.01,2013-04-14 07:36:00,
2013-04-14 01:37:00,32.0,25.0,29.65,WNW,284,11.0,25.0,75,0.00,,SKC,0.00,VWS V14.01,2013-04-14 07:37:00,
2013-04-14 01:38:00,31.9,24.9,29.65,West,271,11.0,19.0,75,0.00,,SKC,0.00,VWS V14.01,2013-04-14 07:38:00,
2013-04-14 01:39:00,31.8,24.8,29.65,WSW,257,13.0,14.0,75,0.00,,SKC,0.00,VWS V14.01,2013-04-14 07:39:00,
2013-04-14 01:40:00,31.7,24.7,29.65,West,281,7.0,22.0,75,0.00,,SKC,0.00,VWS V14.01,2013-04-14 07:40:00,
2013-04-14 01:41:00,31.7,24.7,29.65,West,281,7.0,22.0,75,0.00,,SKC,0.00,VWS V14.01,2013-04-14 07:41:00,
2013-04-14 01:42:00,31.6,24.3,29.64,WSW,238,14.0,27.0,74,0.00,,SKC,0.00,VWS V14.01,2013-04-14 07:42:00,
2013-04-14 01:43:00,31.6,24.6,29.64,West,267,15.0,22.0,75,0.00,,SKC,0.00,VWS V14.01,2013-04-14 07:43:00,
2013-04-14 01:44:00,31.5,24.2,29.63,North,360,16.0,28.0,74,0.00,,SKC,0.00,VWS V14.01,2013-04-14 07:44:00,
2013-04-14 01:45:00,31.5,23.5,29.63,West,267,22.0,33.0,72,0.00,,SKC,0.00,VWS V14.01,2013-04-14 07:45:00,
2013-04-14 01:46:00,31.5,23.5,29.63,West,267,22.0,33.0,72,0.00,,SKC,0.00,VWS V14.01,2013-04-14 07:46:00,
2013-04-14 01:47:00,31.7,23.0,29.62,West,261,40.0,40.0,70,0.00,,SKC,0.00,VWS V14.01,2013-04-14 07:47:00,
2013-04-14 01:48:00,31.7,23.0,29.61,West,281,24.0,40.0,70,0.00,,SKC,0.00,VWS V14.01,2013-04-14 07:48:00,
2013-04-14 01:49:00,31.8,23.5,29.62,WSW,244,28.0,35.0,71,0.00,,SKC,0.00,VWS V14.01,2013-04-14 07:49:00,
2013-04-14 01:50:00,31.8,23.1,29.62,WSW,258,23.0,32.0,70,0.00,,SKC,0.00,VWS V14.01,2013-04-14 07:50:00,
2013-04-14 01:51:00,31.8,23.1,29.62,WSW,258,23.0,32.0,70,0.00,,SKC,0.00,VWS V14.01,2013-04-14 07:51:00,
2013-04-14 01:52:00,31.8,22.8,29.62,North,360,28.0,33.0,69,0.00,,SKC,0.00,VWS V14.01,2013-04-14 07:52:00,
2013-04-14 01:53:00,31.8,22.5,29.61,West,274,25.0,41.0,68,0.00,,SKC,0.00,VWS V14.01,2013-04-14 07:53:00,
2013-04-14 01:54:00,31.8,22.8,29.61,West,269,34.0,38.0,69,0.00,,SKC,0.00,VWS V14.01,2013-04-14 07:54:00,
2013-04-14 01:55:00,31.8,22.5,29.61,West,267,22.0,37.0,68,0.00,,SKC,0.00,VWS V14.01,2013-04-14 07:55:00,
2013-04-14 01:56:00,31.8,22.5,29.61,West,267,22.0,37.0,68,0.00,,SKC,0.00,VWS V14.01,2013-04-14 07:56:00,
2013-04-14 01:57:00,31.7,22.4,29.62,West,273,31.0,39.0,68,0.00,,SKC,0.00,VWS V14.01,2013-04-14 07:57:00,
2013-04-14 01:58:00,31.7,22.0,29.62,WSW,247,30.0,39.0,67,0.00,,SKC,0.00,VWS V14.01,2013-04-14 07:58:00,
2013-04-14 01:59:00,31.7,22.4,29.62,WSW,246,30.0,35.0,68,0.00,,SKC,0.00,VWS V14.01,2013-04-14 07:59:00,
2013-04-14 02:00:00,31.7,22.4,29.62,West,273,25.0,40.0,68,0.00,,SKC,0.00,VWS V14.01,2013-04-14 08:00:00,
2013-04-14 02:01:00,31.7,22.4,29.62,West,273,25.0,40.0,68,0.00,,SKC,0.00,VWS V14.01,2013-04-14 08:01:00,
2013-04-14 02:02:00,31.6,21.9,29.62,WSW,244,30.0,35.0,67,0.00,,SKC,0.00,VWS V14.01,2013-04-14 08:02:00,
2013-04-14 02:03:00,31.6,21.9,29.63,West,263,28.0,37.0,67,0.00,,SKC,0.00,VWS V14.01,2013-04-14 08:03:00,
2013-04-14 02:04:00,31.6,21.9,29.62,North,360,24.0,38.0,67,0.00,,SKC,0.00,VWS V14.01,2013-04-14 08:04:00,
2013-04-14 02:05:00,31.6,21.9,29.61,North,360,26.0,29.0,67,0.00,,SKC,0.00,VWS V14.01,2013-04-14 08:05:00,
2013-04-14 02:06:00,31.5,22.2,29.62,West,272,24.0,32.0,68,0.00,,SKC,0.00,VWS V14.01,2013-04-14 08:06:00,
2013-04-14 02:07:00,31.5,22.2,29.62,West,272,24.0,32.0,68,0.00,,SKC,0.00,VWS V14.01,2013-04-14 08:07:00,
2013-04-14 02:08:00,31.5,21.8,29.62,WSW,254,20.0,29.0,67,0.00,,SKC,0.00,VWS V14.01,2013-04-14 08:08:00,
2013-04-14 02:09:00,31.5,22.2,29.62,WSW,251,33.0,35.0,68,0.00,,SKC,0.00,VWS V14.01,2013-04-14 08:09:00,
2013-04-14 02:10:00,31.5,21.8,29.61,North,360,19.0,39.0,67,0.00,,SKC,0.00,VWS V14.01,2013-04-14 08:10:00,
2013-04-14 02:11:00,31.5,22.2,29.61,WSW,256,21.0,30.0,68,0.00,,SKC,0.00,VWS V14.01,2013-04-14 08:11:00,
2013-04-14 02:12:00,31.5,22.2,29.61,WSW,256,21.0,30.0,68,0.00,,SKC,0.00,VWS V14.01,2013-04-14 08:12:00,
2013-04-14 02:13:00,31.4,22.1,29.60,WSW,253,27.0,27.0,68,0.00,,SKC,0.00,VWS V14.01,2013-04-14 08:13:00,
2013-04-14 02:14:00,31.4,22.1,29.61,North,360,16.0,28.0,68,0.00,,SKC,0.00,VWS V14.01,2013-04-14 08:14:00,
2013-04-14 02:15:00,31.3,22.0,29.61,West,271,19.0,30.0,68,0.00,,SKC,0.00,VWS V14.01,2013-04-14 08:15:00,
2013-04-14 02:16:00,31.2,21.5,29.61,West,269,24.0,29.0,67,0.00,,SKC,0.00,VWS V14.01,2013-04-14 08:16:00,
2013-04-14 02:17:00,31.2,21.5,29.61,West,269,24.0,29.0,67,0.00,,SKC,0.00,VWS V14.01,2013-04-14 08:17:00,
2013-04-14 02:18:00,31.2,21.5,29.60,WSW,242,26.0,32.0,67,0.00,,SKC,0.00,VWS V14.01,2013-04-14 08:18:00,
2013-04-14 02:19:00,31.2,21.5,29.60,West,263,15.0,30.0,67,0.00,,SKC,0.00,VWS V14.01,2013-04-14 08:19:00,
2013-04-14 02:20:00,31.2,21.2,29.60,North,360,15.0,21.0,66,0.00,,SKC,0.00,VWS V14.01,2013-04-14 08:20:00,
2013-04-14 02:21:00,31.2,21.5,29.61,WSW,242,16.0,21.0,67,0.00,,SKC,0.00,VWS V14.01,2013-04-14 08:21:00,
2013-04-14 02:22:00,31.2,21.2,29.60,West,269,17.0,23.0,66,0.00,,SKC,0.00,VWS V14.01,2013-04-14 08:22:00,
2013-04-14 02:23:00,31.2,21.2,29.60,West,269,17.0,23.0,66,0.00,,SKC,0.00,VWS V14.01,2013-04-14 08:23:00,
2013-04-14 02:24:00,31.2,20.8,29.60,West,259,15.0,24.0,65,0.00,,SKC,0.00,VWS V14.01,2013-04-14 08:24:00,
2013-04-14 02:25:00,31.2,20.8,29.61,WSW,251,11.0,19.0,65,0.00,,SKC,0.00,VWS V14.01,2013-04-14 08:25:00,
2013-04-14 02:26:00,31.2,21.2,29.61,West,259,14.0,18.0,66,0.00,,SKC,0.00,VWS V14.01,2013-04-14 08:26:00,
2013-04-14 02:27:00,31.2,20.5,29.60,WNW,298,21.0,29.0,64,0.00,,SKC,0.00,VWS V14.01,2013-04-14 08:27:00,
2013-04-14 02:28:00,31.2,20.5,29.60,WNW,298,21.0,29.0,64,0.00,,SKC,0.00,VWS V14.01,2013-04-14 08:28:00,
2013-04-14 02:29:00,31.1,20.4,29.61,WNW,293,19.0,22.0,64,0.00,,SKC,0.00,VWS V14.01,2013-04-14 08:29:00,
2013-04-14 02:30:00,31.0,20.3,29.61,North,360,26.0,30.0,64,0.00,,SKC,0.00,VWS V14.01,2013-04-14 08:30:00,
2013-04-14 02:31:00,31.0,20.3,29.61,North,360,20.0,30.0,64,0.00,,SKC,0.00,VWS V14.01,2013-04-14 08:31:00,
2013-04-14 02:32:00,30.8,20.4,29.62,WSW,240,21.0,31.0,65,0.00,,SKC,0.00,VWS V14.01,2013-04-14 08:32:00,
2013-04-14 02:33:00,30.8,20.4,29.62,WSW,240,21.0,31.0,65,0.00,,SKC,0.00,VWS V14.01,2013-04-14 08:33:00,
2013-04-14 02:34:00,30.5,21.2,29.61,WSW,248,18.0,23.0,68,0.00,,SKC,0.00,VWS V14.01,2013-04-14 08:34:00,
2013-04-14 02:35:00,30.3,20.7,29.61,WNW,298,30.0,30.0,67,0.00,,SKC,0.00,VWS V14.01,2013-04-14 08:35:00,
2013-04-14 02:36:00,30.2,20.9,29.62,West,267,20.0,30.0,68,0.00,,SKC,0.00,VWS V14.01,2013-04-14 08:36:00,
2013-04-14 02:37:00,30.0,21.1,29.62,WSW,244,20.0,23.0,69,0.00,,SKC,0.00,VWS V14.01,2013-04-14 08:37:00,
2013-04-14 02:38:00,29.9,21.3,29.62,North,360,26.0,29.0,70,0.00,,SKC,0.00,VWS V14.01,2013-04-14 08:38:00,
2013-04-14 02:39:00,29.9,21.3,29.62,North,360,26.0,29.0,70,0.00,,SKC,0.00,VWS V14.01,2013-04-14 08:39:00,
2013-04-14 02:40:00,29.7,21.1,29.62,West,277,23.0,26.0,70,0.00,,SKC,0.00,VWS V14.01,2013-04-14 08:40:00,
2013-04-14 02:41:00,29.6,21.4,29.61,WNW,283,19.0,25.0,71,0.00,,SKC,0.00,VWS V14.01,2013-04-14 08:41:00,
2013-04-14 02:42:00,29.5,21.3,29.62,West,270,16.0,20.0,71,0.00,,SKC,0.00,VWS V14.01,2013-04-14 08:42:00,
2013-04-14 02:43:00,29.4,21.2,29.62,West,275,18.0,22.0,71,0.00,,SKC,0.00,VWS V14.01,2013-04-14 08:43:00,
2013-04-14 02:44:00,29.4,21.2,29.62,West,275,18.0,22.0,71,0.00,,SKC,0.00,VWS V14.01,2013-04-14 08:44:00,
2013-04-14 02:45:00,29.4,21.2,29.63,WNW,284,27.0,30.0,71,0.00,,SKC,0.00,VWS V14.01,2013-04-14 08:45:00,
2013-04-14 02:46:00,29.4,21.2,29.61,West,273,21.0,27.0,71,0.00,,SKC,0.00,VWS V14.01,2013-04-14 08:46:00,
2013-04-14 02:47:00,29.4,21.5,29.62,West,265,15.0,23.0,72,0.00,,SKC,0.00,VWS V14.01,2013-04-14 08:47:00,
2013-04-14 02:48:00,29.3,21.4,29.62,WNW,284,23.0,23.0,72,0.00,,SKC,0.00,VWS V14.01,2013-04-14 08:48:00,
2013-04-14 02:49:00,29.3,21.4,29.62,WNW,284,23.0,23.0,72,0.00,,SKC,0.00,VWS V14.01,2013-04-14 08:49:00,
2013-04-14 02:50:00,29.3,21.4,29.62,WSW,258,17.0,26.0,72,0.00,,SKC,0.00,VWS V14.01,2013-04-14 08:50:00,
2013-04-14 02:51:00,29.2,21.6,29.63,West,261,20.0,21.0,73,0.00,,SKC,0.00,VWS V14.01,2013-04-14 08:51:00,
2013-04-14 02:52:00,29.2,21.6,29.62,West,261,22.0,29.0,73,0.00,,SKC,0.00,VWS V14.01,2013-04-14 08:52:00,
2013-04-14 02:53:00,29.2,21.6,29.63,WSW,255,20.0,26.0,73,0.00,,SKC,0.00,VWS V14.01,2013-04-14 08:53:00,
2013-04-14 02:54:00,29.2,21.6,29.63,WSW,255,20.0,26.0,73,0.00,,SKC,0.00,VWS V14.01,2013-04-14 08:54:00,
2013-04-14 02:55:00,29.1,21.5,29.62,WNW,290,25.0,27.0,73,0.00,,SKC,0.00,VWS V14.01,2013-04-14 08:55:00,
2013-04-14 02:56:00,29.1,21.5,29.62,West,261,22.0,25.0,73,0.00,,SKC,0.00,VWS V14.01,2013-04-14 08:56:00,
2013-04-14 02:57:00,29.1,21.5,29.62,North,360,18.0,27.0,73,0.00,,SKC,0.00,VWS V14.01,2013-04-14 08:57:00,
2013-04-14 02:58:00,29.2,21.6,29.62,WSW,251,24.0,34.0,73,0.00,,SKC,0.00,VWS V14.01,2013-04-14 08:58:00,
2013-04-14 02:59:00,29.2,21.6,29.62,WSW,251,24.0,34.0,73,0.00,,SKC,0.00,VWS V14.01,2013-04-14 08:59:00,
2013-04-14 03:00:00,29.2,21.6,29.61,North,360,40.0,40.0,73,0.00,,SKC,0.00,VWS V14.01,2013-04-14 09:00:00,
2013-04-14 03:01:00,29.3,21.4,29.62,West,267,29.0,40.0,72,0.00,,SKC,0.00,VWS V14.01,2013-04-14 09:01:00,
2013-04-14 03:02:00,29.4,21.5,29.62,West,272,33.0,33.0,72,0.00,,SKC,0.00,VWS V14.01,2013-04-14 09:02:00,
2013-04-14 03:03:00,29.4,21.5,29.61,WNW,298,27.0,33.0,72,0.00,,SKC,0.00,VWS V14.01,2013-04-14 09:03:00,
2013-04-14 03:04:00,29.4,21.5,29.61,WNW,298,27.0,33.0,72,0.00,,SKC,0.00,VWS V14.01,2013-04-14 09:04:00,
2013-04-14 03:05:00,29.5,21.6,29.61,WSW,256,27.0,27.0,72,0.00,,SKC,0.00,VWS V14.01,2013-04-14 09:05:00,
2013-04-14 03:08:00,29.5,21.6,29.62,North,360,33.0,33.0,72,0.00,,SKC,0.00,VWS V14.01,2013-04-14 09:08:00,
2013-04-14 03:09:00,29.5,21.6,29.62,North,360,33.0,33.0,72,0.00,,SKC,0.00,VWS V14.01,2013-04-14 09:09:00,
2013-04-14 03:10:00,29.5,21.6,29.61,WNW,283,29.0,32.0,72,0.00,,SKC,0.00,VWS V14.01,2013-04-14 09:10:00,
2013-04-14 03:11:00,29.5,21.6,29.62,North,360,20.0,33.0,72,0.00,,SKC,0.00,VWS V14.01,2013-04-14 09:11:00,
2013-04-14 03:12:00,29.5,21.9,29.62,West,261,26.0,30.0,73,0.00,,SKC,0.00,VWS V14.01,2013-04-14 09:12:00,
2013-04-14 03:13:00,29.4,21.8,29.62,WSW,243,21.0,26.0,73,0.00,,SKC,0.00,VWS V14.01,2013-04-14 09:13:00,
2013-04-14 03:14:00,29.4,21.8,29.62,WSW,243,21.0,26.0,73,0.00,,SKC,0.00,VWS V14.01,2013-04-14 09:14:00,
2013-04-14 03:15:00,29.3,21.7,29.62,North,360,27.0,34.0,73,0.00,,SKC,0.00,VWS V14.01,2013-04-14 09:15:00,
2013-04-14 03:16:00,29.3,22.1,29.62,WSW,250,25.0,35.0,74,0.00,,SKC,0.00,VWS V14.01,2013-04-14 09:16:00,
2013-04-14 03:17:00,29.3,21.7,29.62,WSW,248,25.0,31.0,73,0.00,,SKC,0.00,VWS V14.01,2013-04-14 09:17:00,
2013-04-14 03:18:00,29.3,21.7,29.62,West,270,27.0,37.0,73,0.00,,SKC,0.00,VWS V14.01,2013-04-14 09:18:00,
2013-04-14 03:19:00,29.3,21.7,29.62,West,270,27.0,37.0,73,0.00,,SKC,0.00,VWS V14.01,2013-04-14 09:19:00,
2013-04-14 03:20:00,29.4,21.5,29.62,West,262,22.0,33.0,72,0.00,,SKC,0.00,VWS V14.01,2013-04-14 09:20:00,
2013-04-14 03:21:00,29.4,21.5,29.61,WSW,255,35.0,35.0,72,0.00,,SKC,0.00,VWS V14.01,2013-04-14 09:21:00,
2013-04-14 03:22:00,29.4,21.2,29.62,North,360,27.0,35.0,71,0.00,,SKC,0.00,VWS V14.01,2013-04-14 09:22:00,
2013-04-14 03:23:00,29.5,21.3,29.62,West,261,21.0,29.0,71,0.00,,SKC,0.00,VWS V14.01,2013-04-14 09:23:00,
2013-04-14 03:24:00,29.5,21.3,29.62,West,261,21.0,29.0,71,0.00,,SKC,0.00,VWS V14.01,2013-04-14 09:24:00,
2013-04-14 03:25:00,29.5,21.6,29.62,West,261,22.0,33.0,72,0.00,,SKC,0.00,VWS V14.01,2013-04-14 09:25:00,
2013-04-14 03:26:00,29.5,21.6,29.62,WSW,257,12.0,34.0,72,0.00,,SKC,0.00,VWS V14.01,2013-04-14 09:26:00,
2013-04-14 03:27:00,29.5,21.6,29.62,West,268,17.0,17.0,72,0.00,,SKC,0.00,VWS V14.01,2013-04-14 09:27:00,
2013-04-14 03:28:00,29.5,21.6,29.62,West,272,29.0,31.0,72,0.00,,SKC,0.00,VWS V14.01,2013-04-14 09:28:00,
2013-04-14 03:29:00,29.5,21.6,29.62,West,272,29.0,31.0,72,0.00,,SKC,0.00,VWS V14.01,2013-04-14 09:29:00,
2013-04-14 03:30:00,29.5,21.6,29.62,West,266,29.0,31.0,72,0.00,,SKC,0.00,VWS V14.01,2013-04-14 09:30:00,
2013-04-14 03:31:00,29.6,21.7,29.62,WSW,242,20.0,29.0,72,0.00,,SKC,0.00,VWS V14.01,2013-04-14 09:31:00,
2013-04-14 03:32:00,29.6,22.0,29.62,West,262,25.0,28.0,73,0.00,,SKC,0.00,VWS V14.01,2013-04-14 09:32:00,
2013-04-14 03:33:00,29.6,22.0,29.62,West,263,21.0,27.0,73,0.00,,SKC,0.00,VWS V14.01,2013-04-14 09:33:00,
2013-04-14 03:34:00,29.6,22.0,29.62,West,263,21.0,27.0,73,0.00,,SKC,0.00,VWS V14.01,2013-04-14 09:34:00,
2013-04-14 03:35:00,29.5,21.9,29.62,West,272,19.0,27.0,73,0.00,,SKC,0.00,VWS V14.01,2013-04-14 09:35:00,
2013-04-14 03:36:00,29.5,22.2,29.62,West,261,22.0,32.0,74,0.00,,SKC,0.00,VWS V14.01,2013-04-14 09:36:00,
2013-04-14 03:37:00,29.4,22.1,29.62,WSW,248,31.0,31.0,74,0.00,,SKC,0.00,VWS V14.01,2013-04-14 09:37:00,
2013-04-14 03:38:00,29.4,22.1,29.63,WNW,282,19.0,34.0,74,0.00,,SKC,0.00,VWS V14.01,2013-04-14 09:38:00,
2013-04-14 03:39:00,29.4,22.1,29.63,WNW,282,19.0,34.0,74,0.00,,SKC,0.00,VWS V14.01,2013-04-14 09:39:00,
2013-04-14 03:40:00,29.3,22.7,29.62,North,360,17.0,21.0,76,0.00,,SKC,0.00,VWS V14.01,2013-04-14 09:40:00,
2013-04-14 03:41:00,29.2,22.6,29.63,West,277,24.0,32.0,76,0.00,,SKC,0.00,VWS V14.01,2013-04-14 09:41:00,
2013-04-14 03:42:00,29.2,22.6,29.64,WSW,240,30.0,33.0,76,0.00,,SKC,0.00,VWS V14.01,2013-04-14 09:42:00,
2013-04-14 03:43:00,29.1,22.2,29.63,West,277,27.0,35.0,75,0.00,,SKC,0.00,VWS V14.01,2013-04-14 09:43:00,
2013-04-14 03:44:00,29.1,22.2,29.63,West,277,27.0,35.0,75,0.00,,SKC,0.00,VWS V14.01,2013-04-14 09:44:00,
2013-04-14 03:45:00,29.0,22.4,29.64,WSW,258,30.0,30.0,76,0.00,,SKC,0.00,VWS V14.01,2013-04-14 09:45:00,
2013-04-14 03:46:00,29.0,22.4,29.64,WNW,282,18.0,33.0,76,0.00,,SKC,0.00,VWS V14.01,2013-04-14 09:46:00,
2013-04-14 03:47:00,28.9,22.3,29.64,WSW,246,19.0,30.0,76,0.00,,SKC,0.00,VWS V14.01,2013-04-14 09:47:00,
2013-04-14 03:49:00,28.8,22.2,29.64,West,279,27.0,29.0,76,0.00,,SKC,0.00,VWS V14.01,2013-04-14 09:49:00,
2013-04-14 03:50:00,28.8,22.2,29.64,West,279,27.0,29.0,76,0.00,,SKC,0.00,VWS V14.01,2013-04-14 09:50:00,
2013-04-14 03:51:00,28.8,22.2,29.64,North,360,18.0,27.0,76,0.00,,SKC,0.00,VWS V14.01,2013-04-14 09:51:00,
2013-04-14 03:52:00,28.8,22.5,29.64,WSW,256,24.0,26.0,77,0.00,,SKC,0.00,VWS V14.01,2013-04-14 09:52:00,
2013-04-14 03:53:00,28.8,22.5,29.64,WSW,246,31.0,34.0,77,0.00,,SKC,0.00,VWS V14.01,2013-04-14 09:53:00,
2013-04-14 03:54:00,28.7,22.1,29.64,North,360,15.0,31.0,76,0.00,,SKC,0.00,VWS V14.01,2013-04-14 09:54:00,
2013-04-14 03:55:00,28.7,22.1,29.64,North,360,15.0,31.0,76,0.00,,SKC,0.00,VWS V14.01,2013-04-14 09:55:00,
2013-04-14 03:56:00,28.7,22.1,29.64,West,269,17.0,26.0,76,0.00,,SKC,0.00,VWS V14.01,2013-04-14 09:56:00,
2013-04-14 03:57:00,28.6,22.3,29.65,West,267,16.0,19.0,77,0.00,,SKC,0.00,VWS V14.01,2013-04-14 09:57:00,
2013-04-14 03:58:00,28.6,22.3,29.65,North,360,15.0,22.0,77,0.00,,SKC,0.00,VWS V14.01,2013-04-14 09:58:00,
2013-04-14 03:59:00,28.5,22.5,29.64,North,360,16.0,23.0,78,0.00,,SKC,0.00,VWS V14.01,2013-04-14 09:59:00,
2013-04-14 04:00:00,28.5,22.5,29.64,North,360,16.0,23.0,78,0.00,,SKC,0.00,VWS V14.01,2013-04-14 10:00:00,
2013-04-14 04:01:00,28.4,22.1,29.64,WSW,257,18.0,25.0,77,0.00,,SKC,0.00,VWS V14.01,2013-04-14 10:01:00,
2013-04-14 04:02:00,28.4,22.1,29.65,West,279,26.0,26.0,77,0.00,,SKC,0.00,VWS V14.01,2013-04-14 10:02:00,
2013-04-14 04:03:00,28.4,22.1,29.65,WNW,283,20.0,32.0,77,0.00,,SKC,0.00,VWS V14.01,2013-04-14 10:03:00,
2013-04-14 04:04:00,28.4,22.1,29.65,West,271,16.0,23.0,77,0.00,,SKC,0.00,VWS V14.01,2013-04-14 10:04:00,
2013-04-14 04:05:00,28.4,22.1,29.65,West,271,16.0,23.0,77,0.00,,SKC,0.00,VWS V14.01,2013-04-14 10:05:00,
2013-04-14 04:06:00,28.3,22.0,29.64,West,271,23.0,23.0,77,0.00,,SKC,0.00,VWS V14.01,2013-04-14 10:06:00,
2013-04-14 04:07:00,28.3,22.3,29.64,WNW,286,21.0,24.0,78,0.00,,SKC,0.00,VWS V14.01,2013-04-14 10:07:00,
2013-04-14 04:08:00,28.3,22.3,29.64,West,271,20.0,22.0,78,0.00,,SKC,0.00,VWS V14.01,2013-04-14 10:08:00,
2013-04-14 04:09:00,28.2,22.2,29.64,WNW,296,17.0,21.0,78,0.00,,SKC,0.00,VWS V14.01,2013-04-14 10:09:00,
2013-04-14 04:10:00,28.2,22.2,29.64,WNW,296,17.0,21.0,78,0.00,,SKC,0.00,VWS V14.01,2013-04-14 10:10:00,
2013-04-14 04:11:00,28.1,22.1,29.65,North,360,16.0,20.0,78,0.00,,SKC,0.00,VWS V14.01,2013-04-14 10:11:00,
2013-04-14 04:12:00,28.1,22.1,29.65,West,276,13.0,22.0,78,0.00,,SKC,0.00,VWS V14.01,2013-04-14 10:12:00,
2013-04-14 04:13:00,28.1,22.1,29.65,WSW,242,18.0,20.0,78,0.00,,SKC,0.00,VWS V14.01,2013-04-14 10:13:00,
2013-04-14 04:14:00,28.0,21.7,29.65,West,273,13.0,21.0,77,0.00,,SKC,0.00,VWS V14.01,2013-04-14 10:14:00,
2013-04-14 04:15:00,28.0,21.7,29.65,West,273,13.0,21.0,77,0.00,,SKC,0.00,VWS V14.01,2013-04-14 10:15:00,
2013-04-14 04:16:00,28.0,21.7,29.64,WSW,249,18.0,25.0,77,0.00,,SKC,0.00,VWS V14.01,2013-04-14 10:16:00,
2013-04-14 04:17:00,28.0,21.4,29.64,West,271,19.0,21.0,76,0.00,,SKC,0.00,VWS V14.01,2013-04-14 10:17:00,
2013-04-14 04:18:00,27.9,21.6,29.64,West,259,14.0,20.0,77,0.00,,SKC,0.00,VWS V14.01,2013-04-14 10:18:00,
2013-04-14 04:19:00,27.9,21.6,29.64,West,269,13.0,15.0,77,0.00,,SKC,0.00,VWS V14.01,2013-04-14 10:19:00,
2013-04-14 04:20:00,27.9,21.3,29.64,West,279,12.0,16.0,76,0.00,,SKC,0.00,VWS V14.01,2013-04-14 10:20:00,
2013-04-14 04:21:00,27.9,21.3,29.64,West,279,12.0,16.0,76,0.00,,SKC,0.00,VWS V14.01,2013-04-14 10:21:00,
2013-04-14 04:22:00,27.8,21.2,29.64,West,263,17.0,20.0,76,0.00,,SKC,0.00,VWS V14.01,2013-04-14 10:22:00,
2013-04-14 04:23:00,27.8,21.2,29.64,North,360,23.0,23.0,76,0.00,,SKC,0.00,VWS V14.01,2013-04-14 10:23:00,
2013-04-14 04:24:00,27.8,21.2,29.64,WSW,247,20.0,23.0,76,0.00,,SKC,0.00,VWS V14.01,2013-04-14 10:24:00,
2013-04-14 04:25:00,27.8,21.2,29.64,WSW,258,19.0,23.0,76,0.00,,SKC,0.00,VWS V14.01,2013-04-14 10:25:00,
2013-04-14 04:26:00,27.8,21.2,29.64,WSW,258,19.0,23.0,76,0.00,,SKC,0.00,VWS V14.01,2013-04-14 10:26:00,
2013-04-14 04:27:00,27.8,20.9,29.64,West,267,15.0,21.0,75,0.00,,SKC,0.00,VWS V14.01,2013-04-14 10:27:00,
2013-04-14 04:28:00,27.8,20.9,29.64,West,271,15.0,22.0,75,0.00,,SKC,0.00,VWS V14.01,2013-04-14 10:28:00,
2013-04-14 04:29:00,27.8,20.9,29.65,WSW,244,17.0,19.0,75,0.00,,SKC,0.00,VWS V14.01,2013-04-14 10:29:00,
2013-04-14 04:30:00,27.8,20.9,29.64,West,272,15.0,20.0,75,0.00,,SKC,0.00,VWS V14.01,2013-04-14 10:30:00,
2013-04-14 04:31:00,27.8,20.9,29.64,West,272,15.0,20.0,75,0.00,,SKC,0.00,VWS V14.01,2013-04-14 10:31:00,
2013-04-14 04:32:00,27.8,20.9,29.64,West,260,14.0,17.0,75,0.00,,SKC,0.00,VWS V14.01,2013-04-14 10:32:00,
2013-04-14 04:33:00,27.8,20.9,29.64,West,263,17.0,17.0,75,0.00,,SKC,0.00,VWS V14.01,2013-04-14 10:33:00,
2013-04-14 04:34:00,27.7,20.5,29.64,WSW,254,16.0,17.0,74,0.00,,SKC,0.00,VWS V14.01,2013-04-14 10:34:00,
2013-04-14 04:35:00,27.7,20.5,29.64,West,266,17.0,21.0,74,0.00,,SKC,0.00,VWS V14.01,2013-04-14 10:35:00,
2013-04-14 04:36:00,27.7,20.5,29.64,West,268,12.0,19.0,74,0.00,,SKC,0.00,VWS V14.01,2013-04-14 10:36:00,
2013-04-14 04:37:00,27.7,20.5,29.64,West,268,12.0,19.0,74,0.00,,SKC,0.00,VWS V14.01,2013-04-14 10:37:00,
2013-04-14 04:38:00,27.7,20.2,29.64,WSW,239,17.0,23.0,73,0.00,,SKC,0.00,VWS V14.01,2013-04-14 10:38:00,
2013-04-14 04:39:00,27.8,20.3,29.64,North,360,16.0,18.0,73,0.00,,SKC,0.00,VWS V14.01,2013-04-14 10:39:00,
2013-04-14 04:40:00,27.8,20.3,29.64,West,279,11.0,17.0,73,0.00,,SKC,0.00,VWS V14.01,2013-04-14 10:40:00,
2013-04-14 04:41:00,27.7,20.2,29.64,WNW,283,15.0,18.0,73,0.00,,SKC,0.00,VWS V14.01,2013-04-14 10:41:00,
2013-04-14 04:42:00,27.8,20.0,29.64,West,277,16.0,24.0,72,0.00,,SKC,0.00,VWS V14.01,2013-04-14 10:42:00,
2013-04-14 04:43:00,27.8,20.0,29.64,West,277,16.0,24.0,72,0.00,,SKC,0.00,VWS V14.01,2013-04-14 10:43:00,
2013-04-14 04:44:00,27.8,19.6,29.64,West,267,16.0,18.0,71,0.00,,SKC,0.00,VWS V14.01,2013-04-14 10:44:00,
2013-04-14 04:45:00,27.8,19.6,29.64,West,279,11.0,20.0,71,0.00,,SKC,0.00,VWS V14.01,2013-04-14 10:45:00,
2013-04-14 04:46:00,27.8,19.6,29.64,WSW,251,15.0,17.0,71,0.00,,SKC,0.00,VWS V14.01,2013-04-14 10:46:00,
2013-04-14 04:47:00,27.8,19.6,29.64,West,276,13.0,17.0,71,0.00,,SKC,0.00,VWS V14.01,2013-04-14 10:47:00,
2013-04-14 04:48:00,27.8,19.6,29.64,West,276,13.0,17.0,71,0.00,,SKC,0.00,VWS V14.01,2013-04-14 10:48:00,
2013-04-14 04:49:00,27.8,19.6,29.63,West,259,18.0,22.0,71,0.00,,SKC,0.00,VWS V14.01,2013-04-14 10:49:00,
2013-04-14 04:50:00,27.8,19.6,29.63,WNW,288,16.0,18.0,71,0.00,,SKC,0.00,VWS V14.01,2013-04-14 10:50:00,
2013-04-14 04:51:00,27.8,19.6,29.63,WNW,287,16.0,19.0,71,0.00,,SKC,0.00,VWS V14.01,2013-04-14 10:51:00,
2013-04-14 04:52:00,27.8,19.6,29.63,West,264,13.0,17.0,71,0.00,,SKC,0.00,VWS V14.01,2013-04-14 10:52:00,
2013-04-14 04:53:00,27.8,19.6,29.63,West,264,13.0,17.0,71,0.00,,SKC,0.00,VWS V14.01,2013-04-14 10:53:00,
2013-04-14 04:54:00,27.7,19.5,29.64,West,261,11.0,14.0,71,0.00,,SKC,0.00,VWS V14.01,2013-04-14 10:54:00,
2013-04-14 04:55:00,27.7,19.5,29.64,West,277,12.0,14.0,71,0.00,,SKC,0.00,VWS V14.01,2013-04-14 10:55:00,
2013-04-14 04:56:00,27.7,19.5,29.64,West,261,14.0,17.0,71,0.00,,SKC,0.00,VWS V14.01,2013-04-14 10:56:00,
2013-04-14 04:57:00,27.7,19.5,29.64,SW,236,14.0,15.0,71,0.00,,SKC,0.00,VWS V14.01,2013-04-14 10:57:00,
2013-04-14 04:58:00,27.7,19.5,29.64,SW,236,14.0,15.0,71,0.00,,SKC,0.00,VWS V14.01,2013-04-14 10:58:00,
2013-04-14 04:59:00,27.6,19.4,29.64,North,360,21.0,22.0,71,0.00,,SKC,0.00,VWS V14.01,2013-04-14 10:59:00,
2013-04-14 05:00:00,27.7,19.5,29.64,North,360,14.0,21.0,71,0.00,,SKC,0.00,VWS V14.01,2013-04-14 11:00:00,
2013-04-14 05:01:00,27.7,19.5,29.65,West,268,17.0,23.0,71,0.00,,SKC,0.00,VWS V14.01,2013-04-14 11:01:00,
2013-04-14 05:02:00,27.7,19.2,29.65,West,281,19.0,21.0,70,0.00,,SKC,0.00,VWS V14.01,2013-04-14 11:02:00,
2013-04-14 05:03:00,27.7,19.2,29.65,West,281,19.0,21.0,70,0.00,,SKC,0.00,VWS V14.01,2013-04-14 11:03:00,
2013-04-14 05:04:00,27.8,19.3,29.65,WSW,257,21.0,23.0,70,0.00,,SKC,0.00,VWS V14.01,2013-04-14 11:04:00,
2013-04-14 05:05:00,27.8,19.3,29.65,West,264,16.0,21.0,70,0.00,,SKC,0.00,VWS V14.01,2013-04-14 11:05:00,
2013-04-14 05:06:00,27.8,19.3,29.65,North,360,14.0,17.0,70,0.00,,SKC,0.00,VWS V14.01,2013-04-14 11:06:00,
2013-04-14 05:07:00,27.8,19.6,29.65,WSW,252,16.0,18.0,71,0.00,,SKC,0.00,VWS V14.01,2013-04-14 11:07:00,
2013-04-14 05:08:00,27.8,19.6,29.65,WSW,252,16.0,18.0,71,0.00,,SKC,0.00,VWS V14.01,2013-04-14 11:08:00,
2013-04-14 05:09:00,27.8,19.3,29.65,West,261,27.0,27.0,70,0.00,,SKC,0.00,VWS V14.01,2013-04-14 11:09:00,
2013-04-14 05:10:00,27.7,18.9,29.65,WNW,288,24.0,27.0,69,0.00,,SKC,0.00,VWS V14.01,2013-04-14 11:10:00,
2013-04-14 05:11:00,27.7,19.2,29.65,WSW,253,13.0,24.0,70,0.00,,SKC,0.00,VWS V14.01,2013-04-14 11:11:00,
2013-04-14 05:12:00,27.7,19.2,29.65,North,360,19.0,21.0,70,0.00,,SKC,0.00,VWS V14.01,2013-04-14 11:12:00,
2013-04-14 05:13:00,27.7,19.2,29.65,North,360,19.0,21.0,70,0.00,,SKC,0.00,VWS V14.01,2013-04-14 11:13:00,
2013-04-14 05:14:00,27.7,19.2,29.65,WSW,254,25.0,25.0,70,0.00,,SKC,0.00,VWS V14.01,2013-04-14 11:14:00,
2013-04-14 05:15:00,27.6,19.1,29.65,WSW,256,24.0,26.0,70,0.00,,SKC,0.00,VWS V14.01,2013-04-14 11:15:00,
2013-04-14 05:16:00,27.6,19.1,29.65,WNW,286,16.0,24.0,70,0.00,,SKC,0.00,VWS V14.01,2013-04-14 11:16:00,
2013-04-14 05:17:00,27.6,19.1,29.65,North,360,20.0,27.0,70,0.00,,SKC,0.00,VWS V14.01,2013-04-14 11:17:00,
2013-04-14 05:18:00,27.6,19.4,29.65,West,276,12.0,20.0,71,0.00,,SKC,0.00,VWS V14.01,2013-04-14 11:18:00,
2013-04-14 05:19:00,27.6,19.4,29.65,West,276,12.0,20.0,71,0.00,,SKC,0.00,VWS V14.01,2013-04-14 11:19:00,
2013-04-14 05:20:00,27.5,21.2,29.65,North,360,16.0,25.0,77,0.00,,SKC,0.00,VWS V14.01,2013-04-14 11:20:00,
2013-04-14 05:21:00,27.4,19.2,29.65,West,260,13.0,23.0,71,0.00,,SKC,0.00,VWS V14.01,2013-04-14 11:21:00,
2013-04-14 05:22:00,27.4,19.2,29.65,WNW,285,16.0,18.0,71,0.00,,SKC,0.00,VWS V14.01,2013-04-14 11:22:00,
2013-04-14 05:23:00,27.3,19.5,29.65,WSW,250,19.0,20.0,72,0.00,,SKC,0.00,VWS V14.01,2013-04-14 11:23:00,
2013-04-14 05:24:00,27.3,19.5,29.65,WSW,250,19.0,20.0,72,0.00,,SKC,0.00,VWS V14.01,2013-04-14 11:24:00,
2013-04-14 05:25:00,27.3,19.1,29.65,West,279,22.0,25.0,71,0.00,,SKC,0.00,VWS V14.01,2013-04-14 11:25:00,
2013-04-14 05:26:00,27.3,19.1,29.66,West,272,18.0,22.0,71,0.00,,SKC,0.00,VWS V14.01,2013-04-14 11:26:00,
2013-04-14 05:27:00,27.3,19.5,29.66,West,273,21.0,25.0,72,0.00,,SKC,0.00,VWS V14.01,2013-04-14 11:27:00,
2013-04-14 05:28:00,27.3,19.1,29.66,West,281,18.0,21.0,71,0.00,,SKC,0.00,VWS V14.01,2013-04-14 11:28:00,
2013-04-14 05:29:00,27.3,19.1,29.66,West,281,18.0,21.0,71,0.00,,SKC,0.00,VWS V14.01,2013-04-14 11:29:00,
2013-04-14 05:30:00,27.4,19.2,29.65,West,264,20.0,25.0,71,0.00,,SKC,0.00,VWS V14.01,2013-04-14 11:30:00,
2013-04-14 05:31:00,27.4,19.2,29.66,West,281,23.0,23.0,71,0.00,,SKC,0.00,VWS V14.01,2013-04-14 11:31:00,
2013-04-14 05:32:00,27.4,19.6,29.66,North,360,18.0,23.0,72,0.00,,SKC,0.00,VWS V14.01,2013-04-14 11:32:00,
2013-04-14 05:33:00,27.3,19.5,29.66,North,360,18.0,22.0,72,0.00,,SKC,0.00,VWS V14.01,2013-04-14 11:33:00,
2013-04-14 05:34:00,27.3,19.5,29.66,North,360,18.0,22.0,72,0.00,,SKC,0.00,VWS V14.01,2013-04-14 11:34:00,
2013-04-14 05:35:00,27.3,19.5,29.66,North,360,11.0,18.0,72,0.00,,SKC,0.00,VWS V14.01,2013-04-14 11:35:00,
2013-04-14 05:36:00,27.3,19.5,29.65,West,271,17.0,17.0,72,0.00,,SKC,0.00,VWS V14.01,2013-04-14 11:36:00,
2013-04-14 05:37:00,27.2,19.7,29.66,North,360,19.0,22.0,73,0.00,,SKC,0.00,VWS V14.01,2013-04-14 11:37:00,
2013-04-14 05:38:00,27.2,19.4,29.66,WNW,284,14.0,24.0,72,0.00,,SKC,0.00,VWS V14.01,2013-04-14 11:38:00,
2013-04-14 05:39:00,27.2,19.4,29.66,WNW,284,14.0,24.0,72,0.00,,SKC,0.00,VWS V14.01,2013-04-14 11:39:00,
2013-04-14 05:40:00,27.2,19.4,29.66,North,360,15.0,15.0,72,0.00,,SKC,0.00,VWS V14.01,2013-04-14 11:40:00,
2013-04-14 05:41:00,27.1,19.6,29.66,West,276,9.0,15.0,73,0.00,,SKC,0.00,VWS V14.01,2013-04-14 11:41:00,
2013-04-14 05:42:00,27.1,19.6,29.66,WSW,242,15.0,16.0,73,0.00,,SKC,0.00,VWS V14.01,2013-04-14 11:42:00,
2013-04-14 05:43:00,27.1,19.6,29.66,WNW,293,16.0,17.0,73,0.00,,SKC,0.00,VWS V14.01,2013-04-14 11:43:00,
2013-04-14 05:44:00,27.1,19.6,29.66,WNW,293,16.0,17.0,73,0.00,,SKC,0.00,VWS V14.01,2013-04-14 11:44:00,
2013-04-14 05:45:00,27.0,19.8,29.66,North,360,12.0,16.0,74,0.00,,SKC,0.00,VWS V14.01,2013-04-14 11:45:00,
2013-04-14 05:46:00,27.0,19.8,29.67,WSW,240,11.0,14.0,74,0.00,,SKC,0.00,VWS V14.01,2013-04-14 11:46:00,
2013-04-14 05:47:00,27.0,19.8,29.67,North,360,13.0,13.0,74,0.00,,SKC,0.00,VWS V14.01,2013-04-14 11:47:00,
2013-04-14 05:48:00,26.9,19.7,29.67,North,360,17.0,18.0,74,0.00,,SKC,0.00,VWS V14.01,2013-04-14 11:48:00,
2013-04-14 05:49:00,26.9,19.7,29.67,North,360,17.0,18.0,74,0.00,,SKC,0.00,VWS V14.01,2013-04-14 11:49:00,
2013-04-14 05:50:00,26.9,19.7,29.67,WSW,239,12.0,16.0,74,0.00,,SKC,0.00,VWS V14.01,2013-04-14 11:50:00,
2013-04-14 05:51:00,26.9,19.7,29.68,North,360,13.0,13.0,74,0.00,,SKC,0.00,VWS V14.01,2013-04-14 11:51:00,
2013-04-14 05:52:00,26.9,19.7,29.68,WSW,248,13.0,15.0,74,0.00,,SKC,0.00,VWS V14.01,2013-04-14 11:52:00,
2013-04-14 05:53:00,26.9,19.7,29.68,North,360,18.0,18.0,74,0.00,,SKC,0.00,VWS V14.01,2013-04-14 11:53:00,
2013-04-14 05:54:00,26.9,19.7,29.68,North,360,18.0,18.0,74,0.00,,SKC,0.00,VWS V14.01,2013-04-14 11:54:00,
2013-04-14 05:55:00,26.9,19.4,29.68,West,273,13.0,17.0,73,0.00,,SKC,0.00,VWS V14.01,2013-04-14 11:55:00,
2013-04-14 05:56:00,26.9,19.4,29.68,West,266,12.0,14.0,73,0.00,,SKC,0.00,VWS V14.01,2013-04-14 11:56:00,
2013-04-14 05:57:00,26.9,19.7,29.68,West,270,13.0,15.0,74,0.00,,SKC,0.00,VWS V14.01,2013-04-14 11:57:00,
2013-04-14 05:58:00,26.9,19.7,29.68,WSW,257,14.0,17.0,74,0.00,,SKC,0.00,VWS V14.01,2013-04-14 11:58:00,
2013-04-14 05:59:00,26.9,19.7,29.68,WSW,257,14.0,17.0,74,0.00,,SKC,0.00,VWS V14.01,2013-04-14 11:59:00,
2013-04-14 06:00:00,26.9,20.0,29.68,West,280,6.0,14.0,75,0.00,,SKC,0.00,VWS V14.01,2013-04-14 12:00:00,
2013-04-14 06:01:00,26.8,20.3,29.68,NW,307,6.0,11.0,76,0.00,,SKC,0.00,VWS V14.01,2013-04-14 12:01:00,
2013-04-14 06:02:00,26.7,20.2,29.67,NW,313,11.0,14.0,76,0.00,,SKC,0.00,VWS V14.01,2013-04-14 12:02:00,
2013-04-14 06:03:00,26.7,20.2,29.68,WNW,294,12.0,15.0,76,0.00,,SKC,0.00,VWS V14.01,2013-04-14 12:03:00,
2013-04-14 06:04:00,26.7,20.2,29.68,WNW,294,12.0,15.0,76,0.00,,SKC,0.00,VWS V14.01,2013-04-14 12:04:00,
2013-04-14 06:06:00,26.2,20.0,29.68,North,360,9.0,12.0,77,0.00,,SKC,0.00,VWS V14.01,2013-04-14 12:06:00,
2013-04-14 06:08:00,26.0,20.1,29.69,North,360,13.0,17.0,78,0.00,,SKC,0.00,VWS V14.01,2013-04-14 12:08:00,
2013-04-14 06:09:00,26.0,20.1,29.69,North,360,13.0,17.0,78,0.00,,SKC,0.00,VWS V14.01,2013-04-14 12:09:00,
2013-04-14 06:10:00,25.9,20.3,29.69,WNW,300,12.0,14.0,79,0.00,,SKC,0.00,VWS V14.01,2013-04-14 12:10:00,
2013-04-14 06:11:00,25.8,20.2,29.69,WNW,294,12.0,16.0,79,0.00,,SKC,0.00,VWS V14.01,2013-04-14 12:11:00,
2013-04-14 06:12:00,25.7,20.1,29.69,North,360,15.0,16.0,79,0.00,,SKC,0.00,VWS V14.01,2013-04-14 12:12:00,
2013-04-14 06:13:00,25.6,20.0,29.69,West,274,14.0,16.0,79,0.00,,SKC,0.00,VWS V14.01,2013-04-14 12:13:00,
2013-04-14 06:14:00,25.6,20.0,29.69,West,274,14.0,16.0,79,0.00,,SKC,0.00,VWS V14.01,2013-04-14 12:14:00,
2013-04-14 06:15:00,25.5,19.9,29.69,WNW,284,9.0,16.0,79,0.00,,SKC,0.00,VWS V14.01,2013-04-14 12:15:00,
2013-04-14 06:16:00,25.5,20.2,29.69,West,268,10.0,14.0,80,0.00,,SKC,0.00,VWS V14.01,2013-04-14 12:16:00,
2013-04-14 06:17:00,25.4,20.1,29.69,WNW,288,12.0,14.0,80,0.00,,SKC,0.00,VWS V14.01,2013-04-14 12:17:00,
2013-04-14 06:18:00,25.4,20.1,29.69,North,360,9.0,12.0,80,0.00,,SKC,0.00,VWS V14.01,2013-04-14 12:18:00,
2013-04-14 06:19:00,25.4,20.1,29.69,North,360,9.0,12.0,80,0.00,,SKC,0.00,VWS V14.01,2013-04-14 12:19:00,
2013-04-14 06:20:00,25.3,20.3,29.70,North,360,14.0,14.0,81,0.00,,SKC,0.00,VWS V14.01,2013-04-14 12:20:00,
2013-04-14 06:21:00,25.3,20.3,29.70,West,280,15.0,15.0,81,0.00,,SKC,0.00,VWS V14.01,2013-04-14 12:21:00,
2013-04-14 06:22:00,25.3,20.3,29.70,North,360,15.0,18.0,81,0.00,,SKC,0.00,VWS V14.01,2013-04-14 12:22:00,
2013-04-14 06:23:00,25.3,20.0,29.70,West,269,11.0,16.0,80,0.00,,SKC,0.00,VWS V14.01,2013-04-14 12:23:00,
2013-04-14 06:24:00,25.3,20.0,29.70,West,269,11.0,16.0,80,0.00,,SKC,0.00,VWS V14.01,2013-04-14 12:24:00,
2013-04-14 06:25:00,25.3,20.3,29.69,North,360,10.0,13.0,81,0.00,,SKC,0.00,VWS V14.01,2013-04-14 12:25:00,
2013-04-14 06:26:00,25.3,20.3,29.70,North,360,14.0,14.0,81,0.00,,SKC,0.00,VWS V14.01,2013-04-14 12:26:00,
2013-04-14 06:27:00,25.3,20.3,29.69,North,360,17.0,17.0,81,0.00,,SKC,0.00,VWS V14.01,2013-04-14 12:27:00,
2013-04-14 06:28:00,25.4,20.1,29.70,North,360,14.0,18.0,80,0.00,,SKC,0.00,VWS V14.01,2013-04-14 12:28:00,
2013-04-14 06:29:00,25.4,20.1,29.70,North,360,14.0,18.0,80,0.00,,SKC,0.00,VWS V14.01,2013-04-14 12:29:00,
2013-04-14 06:30:00,25.4,20.1,29.70,North,360,12.0,15.0,80,0.00,,SKC,0.00,VWS V14.01,2013-04-14 12:30:00,
2013-04-14 06:31:00,25.4,20.1,29.70,West,277,10.0,14.0,80,0.00,,SKC,0.00,VWS V14.01,2013-04-14 12:31:00,
2013-04-14 06:32:00,25.4,20.1,29.70,West,281,8.0,13.0,80,0.00,,SKC,0.00,VWS V14.01,2013-04-14 12:32:00,
2013-04-14 06:33:00,25.4,20.1,29.70,North,360,12.0,12.0,80,0.00,,SKC,0.00,VWS V14.01,2013-04-14 12:33:00,
2013-04-14 06:34:00,25.4,20.1,29.70,North,360,12.0,12.0,80,0.00,,SKC,0.00,VWS V14.01,2013-04-14 12:34:00,
2013-04-14 06:35:00,25.4,20.4,29.70,West,271,8.0,13.0,81,0.00,,SKC,0.00,VWS V14.01,2013-04-14 12:35:00,
2013-04-14 06:36:00,25.3,20.3,29.70,WNW,298,9.0,12.0,81,0.00,,SKC,0.00,VWS V14.01,2013-04-14 12:36:00,
2013-04-14 06:37:00,25.3,20.3,29.70,West,268,11.0,15.0,81,0.00,,SKC,0.00,VWS V14.01,2013-04-14 12:37:00,
2013-04-14 06:38:00,25.3,20.3,29.70,North,360,11.0,14.0,81,0.00,,SKC,0.00,VWS V14.01,2013-04-14 12:38:00,
2013-04-14 06:39:00,25.3,20.3,29.70,North,360,11.0,14.0,81,0.00,,SKC,0.00,VWS V14.01,2013-04-14 12:39:00,
2013-04-14 06:40:00,25.3,20.3,29.70,West,278,7.0,13.0,81,0.00,,SKC,0.00,VWS V14.01,2013-04-14 12:40:00,
2013-04-14 06:41:00,25.2,20.2,29.70,WNW,284,6.0,11.0,81,0.00,,SKC,0.00,VWS V14.01,2013-04-14 12:41:00,
2013-04-14 06:42:00,25.2,20.2,29.70,WNW,286,10.0,11.0,81,0.00,,SKC,0.00,VWS V14.01,2013-04-14 12:42:00,
2013-04-14 06:43:00,25.2,20.2,29.70,West,267,12.0,12.0,81,0.00,,SKC,0.00,VWS V14.01,2013-04-14 12:43:00,
2013-04-14 06:44:00,25.2,20.2,29.70,West,267,12.0,12.0,81,0.00,,SKC,0.00,VWS V14.01,2013-04-14 12:44:00,
2013-04-14 06:45:00,25.1,19.8,29.70,WSW,242,11.0,13.0,80,0.00,,SKC,0.00,VWS V14.01,2013-04-14 12:45:00,
2013-04-14 06:46:00,25.1,19.8,29.70,WSW,252,9.0,11.0,80,0.00,,SKC,0.00,VWS V14.01,2013-04-14 12:46:00,
2013-04-14 06:47:00,25.1,19.8,29.70,West,260,6.0,10.0,80,0.00,,SKC,0.00,VWS V14.01,2013-04-14 12:47:00,
2013-04-14 06:48:00,25.1,19.8,29.70,West,276,12.0,12.0,80,0.00,,SKC,0.00,VWS V14.01,2013-04-14 12:48:00,
2013-04-14 06:49:00,25.1,19.8,29.70,West,276,12.0,12.0,80,0.00,,SKC,0.00,VWS V14.01,2013-04-14 12:49:00,
2013-04-14 06:50:00,25.2,19.6,29.70,WSW,239,9.0,12.0,79,0.00,,SKC,0.00,VWS V14.01,2013-04-14 12:50:00,
2013-04-14 06:51:00,25.2,19.6,29.70,WSW,243,10.0,14.0,79,0.00,,SKC,0.00,VWS V14.01,2013-04-14 12:51:00,
2013-04-14 06:52:00,25.2,19.6,29.70,WSW,240,9.0,14.0,79,0.00,,SKC,0.00,VWS V14.01,2013-04-14 12:52:00,
2013-04-14 06:53:00,25.2,19.9,29.70,WSW,248,10.0,10.0,80,0.00,,SKC,0.00,VWS V14.01,2013-04-14 12:53:00,
2013-04-14 06:54:00,25.2,19.9,29.70,WSW,248,10.0,10.0,80,0.00,,SKC,0.00,VWS V14.01,2013-04-14 12:54:00,
2013-04-14 06:55:00,25.3,20.3,29.71,West,259,7.0,11.0,81,0.00,,SKC,0.00,VWS V14.01,2013-04-14 12:55:00,
2013-04-14 06:56:00,25.4,20.4,29.71,WSW,240,10.0,10.0,81,0.00,,SKC,0.00,VWS V14.01,2013-04-14 12:56:00,
2013-04-14 06:57:00,25.4,20.4,29.71,WSW,253,9.0,10.0,81,0.00,,SKC,0.00,VWS V14.01,2013-04-14 12:57:00,
2013-04-14 06:58:00,25.4,20.4,29.71,WSW,240,6.0,14.0,81,0.00,,SKC,0.00,VWS V14.01,2013-04-14 12:58:00,
2013-04-14 06:59:00,25.4,20.4,29.71,WSW,240,6.0,14.0,81,0.00,,SKC,0.00,VWS V14.01,2013-04-14 12:59:00,
2013-04-14 07:00:00,25.4,19.8,29.71,North,360,13.0,13.0,79,0.00,,SKC,0.00,VWS V14.01,2013-04-14 13:00:00,
2013-04-14 07:01:00,25.4,19.8,29.71,North,360,12.0,14.0,79,0.00,,SKC,0.00,VWS V14.01,2013-04-14 13:01:00,
2013-04-14 07:02:00,25.4,19.5,29.71,WSW,241,12.0,15.0,78,0.00,,SKC,0.00,VWS V14.01,2013-04-14 13:02:00,
2013-04-14 07:03:00,25.4,19.5,29.71,WSW,245,7.0,12.0,78,0.00,,SKC,0.00,VWS V14.01,2013-04-14 13:03:00,
2013-04-14 07:04:00,25.4,19.5,29.71,WSW,245,7.0,12.0,78,0.00,,SKC,0.00,VWS V14.01,2013-04-14 13:04:00,
2013-04-14 07:05:00,25.5,19.6,29.71,WSW,254,11.0,12.0,78,0.00,,SKC,0.00,VWS V14.01,2013-04-14 13:05:00,
2013-04-14 07:06:00,25.5,19.6,29.71,West,275,11.0,14.0,78,0.00,,SKC,0.00,VWS V14.01,2013-04-14 13:06:00,
2013-04-14 07:07:00,25.5,19.6,29.72,WSW,238,9.0,11.0,78,0.00,,SKC,0.00,VWS V14.01,2013-04-14 13:07:00,
2013-04-14 07:08:00,25.6,19.7,29.72,SW,222,6.0,11.0,78,0.00,,SKC,0.00,VWS V14.01,2013-04-14 13:08:00,
2013-04-14 07:09:00,25.6,19.7,29.72,SW,222,6.0,11.0,78,0.00,,SKC,0.00,VWS V14.01,2013-04-14 13:09:00,
2013-04-14 07:10:00,25.6,19.7,29.72,SSW,207,6.0,11.0,78,0.00,,SKC,0.00,VWS V14.01,2013-04-14 13:10:00,
2013-04-14 07:11:00,25.6,19.7,29.72,South,188,11.0,11.0,78,0.00,,SKC,0.00,VWS V14.01,2013-04-14 13:11:00,
2013-04-14 07:12:00,25.6,19.7,29.72,North,360,8.0,11.0,78,0.00,,SKC,0.00,VWS V14.01,2013-04-14 13:12:00,
2013-04-14 07:13:00,25.5,19.6,29.72,North,360,13.0,14.0,78,0.00,,SKC,0.00,VWS V14.01,2013-04-14 13:13:00,
2013-04-14 07:14:00,25.5,19.6,29.72,North,360,13.0,14.0,78,0.00,,SKC,0.00,VWS V14.01,2013-04-14 13:14:00,
2013-04-14 07:15:00,25.3,19.1,29.72,WSW,242,11.0,14.0,77,0.00,,SKC,0.00,VWS V14.01,2013-04-14 13:15:00,
2013-04-14 07:16:00,25.3,19.1,29.72,West,265,9.0,11.0,77,0.00,,SKC,0.00,VWS V14.01,2013-04-14 13:16:00,
2013-04-14 07:17:00,25.3,19.4,29.72,West,261,10.0,10.0,78,0.00,,SKC,0.00,VWS V14.01,2013-04-14 13:17:00,
2013-04-14 07:18:00,25.2,19.3,29.71,SW,218,8.0,10.0,78,0.00,,SKC,0.00,VWS V14.01,2013-04-14 13:18:00,
2013-04-14 07:19:00,25.2,19.3,29.71,SW,218,8.0,10.0,78,0.00,,SKC,0.00,VWS V14.01,2013-04-14 13:19:00,
2013-04-14 07:20:00,25.2,18.7,29.71,WSW,255,5.0,11.0,76,0.00,,SKC,0.00,VWS V14.01,2013-04-14 13:20:00,
2013-04-14 07:21:00,25.2,18.7,29.72,SW,231,6.0,6.0,76,0.00,,SKC,0.00,VWS V14.01,2013-04-14 13:21:00,
2013-04-14 07:22:00,25.1,18.3,29.72,West,278,7.0,7.0,75,0.00,,SKC,0.00,VWS V14.01,2013-04-14 13:22:00,
2013-04-14 07:23:00,25.2,18.7,29.71,North,360,7.0,13.0,76,0.00,,SKC,0.00,VWS V14.01,2013-04-14 13:23:00,
2013-04-14 07:24:00,25.2,18.7,29.72,North,360,4.0,7.0,76,0.00,,SKC,0.00,VWS V14.01,2013-04-14 13:24:00,
2013-04-14 07:25:00,25.2,18.7,29.72,North,360,4.0,7.0,76,0.00,,SKC,0.00,VWS V14.01,2013-04-14 13:25:00,
2013-04-14 07:26:00,25.3,18.8,29.71,West,269,9.0,10.0,76,0.00,,SKC,0.00,VWS V14.01,2013-04-14 13:26:00,
2013-04-14 07:27:00,25.3,19.1,29.71,West,263,3.0,9.0,77,0.00,,SKC,0.00,VWS V14.01,2013-04-14 13:27:00,
2013-04-14 07:28:00,25.4,18.9,29.71,North,360,10.0,12.0,76,0.00,,SKC,0.00,VWS V14.01,2013-04-14 13:28:00,
2013-04-14 07:29:00,25.4,18.9,29.71,West,276,10.0,11.0,76,0.00,,SKC,0.00,VWS V14.01,2013-04-14 13:29:00,
2013-04-14 07:30:00,25.4,18.9,29.71,West,276,10.0,11.0,76,0.00,,SKC,0.00,VWS V14.01,2013-04-14 13:30:00,
2013-04-14 07:31:00,25.5,18.7,29.71,WSW,244,6.0,9.0,75,0.00,,SKC,0.00,VWS V14.01,2013-04-14 13:31:00,
2013-04-14 07:32:00,25.6,18.2,29.71,North,360,11.0,14.0,73,0.00,,SKC,0.00,VWS V14.01,2013-04-14 13:32:00,
2013-04-14 07:33:00,25.6,17.8,29.71,North,360,19.0,19.0,72,0.00,,SKC,0.00,VWS V14.01,2013-04-14 13:33:00,
2013-04-14 07:34:00,25.7,17.6,29.71,North,360,15.0,19.0,71,0.00,,SKC,0.00,VWS V14.01,2013-04-14 13:34:00,
2013-04-14 07:35:00,25.7,17.6,29.71,North,360,15.0,19.0,71,0.00,,SKC,0.00,VWS V14.01,2013-04-14 13:35:00,
2013-04-14 07:36:00,25.9,17.1,29.71,WSW,244,16.0,18.0,69,0.00,,SKC,0.00,VWS V14.01,2013-04-14 13:36:00,
2013-04-14 07:37:00,26.0,16.6,29.71,West,273,12.0,18.0,67,0.00,,SKC,0.00,VWS V14.01,2013-04-14 13:37:00,
2013-04-14 07:38:00,26.1,17.3,29.71,West,266,19.0,19.0,69,0.00,,SKC,0.00,VWS V14.01,2013-04-14 13:38:00,
2013-04-14 07:39:00,26.2,16.8,29.71,SW,229,21.0,21.0,67,0.00,,SKC,0.00,VWS V14.01,2013-04-14 13:39:00,
2013-04-14 07:40:00,26.2,16.8,29.71,SW,229,21.0,21.0,67,0.00,,SKC,0.00,VWS V14.01,2013-04-14 13:40:00,
2013-04-14 07:41:00,26.3,16.1,29.72,West,261,3.0,14.0,65,0.00,,SKC,0.00,VWS V14.01,2013-04-14 13:41:00,
2013-04-14 07:42:00,26.3,16.1,29.72,North,360,17.0,20.0,65,0.00,,SKC,0.00,VWS V14.01,2013-04-14 13:42:00,
2013-04-14 07:43:00,26.3,16.5,29.72,North,360,8.0,17.0,66,0.00,,SKC,0.00,VWS V14.01,2013-04-14 13:43:00,
2013-04-14 07:44:00,26.4,16.6,29.72,WNW,286,14.0,16.0,66,0.00,,SKC,0.00,VWS V14.01,2013-04-14 13:44:00,
2013-04-14 07:45:00,26.4,16.6,29.72,WNW,286,14.0,16.0,66,0.00,,SKC,0.00,VWS V14.01,2013-04-14 13:45:00,
2013-04-14 07:46:00,26.5,16.7,29.72,SW,225,9.0,11.0,66,0.00,,SKC,0.00,VWS V14.01,2013-04-14 13:46:00,
2013-04-14 07:47:00,26.5,16.7,29.72,WSW,244,3.0,11.0,66,0.00,,SKC,0.00,VWS V14.01,2013-04-14 13:47:00,
2013-04-14 07:48:00,26.6,16.4,29.73,North,360,7.0,7.0,65,0.00,,SKC,0.00,VWS V14.01,2013-04-14 13:48:00,
2013-04-14 07:49:00,26.6,16.8,29.72,West,277,17.0,19.0,66,0.00,,SKC,0.00,VWS V14.01,2013-04-14 13:49:00,
2013-04-14 07:50:00,26.6,16.8,29.72,West,277,17.0,19.0,66,0.00,,SKC,0.00,VWS V14.01,2013-04-14 13:50:00,
2013-04-14 07:51:00,26.6,16.1,29.72,North,360,16.0,23.0,64,0.00,,SKC,0.00,VWS V14.01,2013-04-14 13:51:00,
2013-04-14 07:52:00,26.5,15.6,29.72,West,262,19.0,21.0,63,0.00,,SKC,0.00,VWS V14.01,2013-04-14 13:52:00,
2013-04-14 07:53:00,26.4,16.2,29.72,SW,217,17.0,33.0,65,0.00,,SKC,0.00,VWS V14.01,2013-04-14 13:53:00,
2013-04-14 07:54:00,26.3,14.7,29.72,North,360,31.0,31.0,61,0.00,,SKC,0.00,VWS V14.01,2013-04-14 13:54:00,
2013-04-14 07:55:00,26.3,14.7,29.72,North,360,31.0,31.0,61,0.00,,SKC,0.00,VWS V14.01,2013-04-14 13:55:00,
2013-04-14 07:56:00,26.2,15.0,29.74,WSW,252,16.0,28.0,62,0.00,,SKC,0.00,VWS V14.01,2013-04-14 13:56:00,
2013-04-14 07:57:00,26.2,15.0,29.73,WSW,257,4.0,20.0,62,0.00,,SKC,0.00,VWS V14.01,2013-04-14 13:57:00,
2013-04-14 07:58:00,26.1,14.9,29.73,North,360,16.0,22.0,62,0.00,,SKC,0.00,VWS V14.01,2013-04-14 13:58:00,
2013-04-14 07:59:00,26.1,15.2,29.73,West,267,12.0,17.0,63,0.00,,SKC,0.00,VWS V14.01,2013-04-14 13:59:00,
2013-04-14 08:00:00,26.1,15.2,29.73,West,267,12.0,17.0,63,0.00,,SKC,0.00,VWS V14.01,2013-04-14 14:00:00,
2013-04-14 08:01:00,26.1,15.2,29.73,West,277,13.0,22.0,63,0.00,,SKC,0.00,VWS V14.01,2013-04-14 14:01:00,
2013-04-14 08:02:00,26.0,15.1,29.74,West,277,18.0,27.0,63,0.00,,SKC,0.00,VWS V14.01,2013-04-14 14:02:00,
2013-04-14 08:03:00,25.9,14.7,29.74,SW,234,10.0,25.0,62,0.00,,SKC,0.00,VWS V14.01,2013-04-14 14:03:00,
2013-04-14 08:04:00,25.8,14.6,29.73,WNW,287,16.0,19.0,62,0.00,,SKC,0.00,VWS V14.01,2013-04-14 14:04:00,
2013-04-14 08:05:00,25.8,14.6,29.73,WNW,287,16.0,19.0,62,0.00,,SKC,0.00,VWS V14.01,2013-04-14 14:05:00,
2013-04-14 08:06:00,25.7,15.2,29.73,NW,306,24.0,26.0,64,0.00,,SKC,0.00,VWS V14.01,2013-04-14 14:06:00,
2013-04-14 08:07:00,25.6,15.1,29.74,WSW,249,19.0,29.0,64,0.00,,SKC,0.00,VWS V14.01,2013-04-14 14:07:00,
2013-04-14 08:08:00,25.4,15.3,29.73,WNW,291,16.0,19.0,65,0.00,,SKC,0.00,VWS V14.01,2013-04-14 14:08:00,
2013-04-14 08:09:00,25.4,15.3,29.73,WSW,255,22.0,25.0,65,0.00,,SKC,0.00,VWS V14.01,2013-04-14 14:09:00,
2013-04-14 08:10:00,25.4,15.3,29.73,WSW,255,22.0,25.0,65,0.00,,SKC,0.00,VWS V14.01,2013-04-14 14:10:00,
2013-04-14 08:11:00,25.3,14.8,29.73,North,360,18.0,28.0,64,0.00,,SKC,0.00,VWS V14.01,2013-04-14 14:11:00,
2013-04-14 08:12:00,25.3,14.5,29.73,North,360,16.0,21.0,63,0.00,,SKC,0.00,VWS V14.01,2013-04-14 14:12:00,
2013-04-14 08:13:00,25.2,15.1,29.73,West,279,16.0,22.0,65,0.00,,SKC,0.00,VWS V14.01,2013-04-14 14:13:00,
2013-04-14 08:14:00,25.2,15.4,29.73,North,360,24.0,26.0,66,0.00,,SKC,0.00,VWS V14.01,2013-04-14 14:14:00,
2013-04-14 08:15:00,25.2,15.4,29.73,North,360,24.0,26.0,66,0.00,,SKC,0.00,VWS V14.01,2013-04-14 14:15:00,
2013-04-14 08:16:00,25.3,15.2,29.74,WNW,294,13.0,17.0,65,0.00,,SKC,0.00,VWS V14.01,2013-04-14 14:16:00,
2013-04-14 08:17:00,25.4,15.6,29.74,WNW,293,10.0,22.0,66,0.00,,SKC,0.00,VWS V14.01,2013-04-14 14:17:00,
2013-04-14 08:18:00,25.5,15.4,29.74,WSW,257,10.0,15.0,65,0.00,,SKC,0.00,VWS V14.01,2013-04-14 14:18:00,
2013-04-14 08:19:00,25.6,15.5,29.74,WNW,285,17.0,18.0,65,0.00,,SKC,0.00,VWS V14.01,2013-04-14 14:19:00,
2013-04-14 08:20:00,25.6,15.5,29.74,WNW,285,17.0,18.0,65,0.00,,SKC,0.00,VWS V14.01,2013-04-14 14:20:00,
2013-04-14 08:21:00,25.7,15.2,29.74,North,360,11.0,19.0,64,0.00,,SKC,0.00,VWS V14.01,2013-04-14 14:21:00,
2013-04-14 08:22:00,25.8,15.0,29.74,WNW,294,10.0,14.0,63,0.00,,SKC,0.00,VWS V14.01,2013-04-14 14:22:00,
2013-04-14 08:23:00,25.8,15.7,29.74,North,360,9.0,15.0,65,0.00,,SKC,0.00,VWS V14.01,2013-04-14 14:23:00,
2013-04-14 08:24:00,25.9,15.8,29.74,North,360,17.0,18.0,65,0.00,,SKC,0.00,VWS V14.01,2013-04-14 14:24:00,
2013-04-14 08:25:00,25.9,15.8,29.74,North,360,17.0,18.0,65,0.00,,SKC,0.00,VWS V14.01,2013-04-14 14:25:00,
2013-04-14 08:26:00,26.0,14.8,29.74,WNW,287,13.0,18.0,62,0.00,,SKC,0.00,VWS V14.01,2013-04-14 14:26:00,
2013-04-14 08:27:00,26.1,15.2,29.74,WNW,292,11.0,18.0,63,0.00,,SKC,0.00,VWS V14.01,2013-04-14 14:27:00,
2013-04-14 08:28:00,26.1,15.6,29.74,WNW,286,21.0,23.0,64,0.00,,SKC,0.00,VWS V14.01,2013-04-14 14:28:00,
2013-04-14 08:29:00,26.2,15.3,29.74,North,360,9.0,21.0,63,0.00,,SKC,0.00,VWS V14.01,2013-04-14 14:29:00,
2013-04-14 08:30:00,26.2,15.3,29.74,North,360,9.0,21.0,63,0.00,,SKC,0.00,VWS V14.01,2013-04-14 14:30:00,
2013-04-14 08:31:00,26.2,15.0,29.73,West,263,7.0,16.0,62,0.00,,SKC,0.00,VWS V14.01,2013-04-14 14:31:00,
2013-04-14 08:32:00,26.2,14.6,29.73,West,271,16.0,29.0,61,0.00,,SKC,0.00,VWS V14.01,2013-04-14 14:32:00,
2013-04-14 08:33:00,26.2,15.3,29.73,WNW,290,10.0,16.0,63,0.00,,SKC,0.00,VWS V14.01,2013-04-14 14:33:00,
2013-04-14 08:34:00,26.3,15.4,29.73,West,261,15.0,23.0,63,0.00,,SKC,0.00,VWS V14.01,2013-04-14 14:34:00,
2013-04-14 08:35:00,26.3,15.4,29.73,West,261,15.0,23.0,63,0.00,,SKC,0.00,VWS V14.01,2013-04-14 14:35:00,
2013-04-14 08:36:00,26.7,15.1,29.73,North,360,9.0,20.0,61,0.00,,SKC,0.00,VWS V14.01,2013-04-14 14:36:00,
2013-04-14 08:37:00,26.8,15.2,29.74,North,360,18.0,18.0,61,0.00,,SKC,0.00,VWS V14.01,2013-04-14 14:37:00,
2013-04-14 08:38:00,26.9,14.9,29.74,SW,215,16.0,22.0,60,0.00,,SKC,0.00,VWS V14.01,2013-04-14 14:38:00,
2013-04-14 08:39:00,27.0,14.2,29.73,WNW,285,16.0,16.0,58,0.00,,SKC,0.00,VWS V14.01,2013-04-14 14:39:00,
2013-04-14 08:40:00,27.0,14.2,29.73,WNW,285,16.0,16.0,58,0.00,,SKC,0.00,VWS V14.01,2013-04-14 14:40:00,
2013-04-14 08:41:00,27.0,15.4,29.74,North,360,18.0,23.0,61,0.00,,SKC,0.00,VWS V14.01,2013-04-14 14:41:00,
2013-04-14 08:42:00,27.1,15.8,29.74,WNW,296,27.0,28.0,62,0.00,,SKC,0.00,VWS V14.01,2013-04-14 14:42:00,
2013-04-14 08:43:00,27.1,15.4,29.74,West,271,10.0,29.0,61,0.00,,SKC,0.00,VWS V14.01,2013-04-14 14:43:00,
2013-04-14 08:44:00,27.1,15.4,29.74,NW,304,25.0,25.0,61,0.00,,SKC,0.00,VWS V14.01,2013-04-14 14:44:00,
2013-04-14 08:45:00,27.1,15.4,29.74,NW,304,25.0,25.0,61,0.00,,SKC,0.00,VWS V14.01,2013-04-14 14:45:00,
2013-04-14 08:46:00,27.0,15.4,29.74,North,360,15.0,21.0,61,0.00,,SKC,0.00,VWS V14.01,2013-04-14 14:46:00,
2013-04-14 08:47:00,26.9,15.3,29.74,West,264,12.0,19.0,61,0.00,,SKC,0.00,VWS V14.01,2013-04-14 14:47:00,
2013-04-14 08:48:00,26.9,15.3,29.74,West,272,10.0,19.0,61,0.00,,SKC,0.00,VWS V14.01,2013-04-14 14:48:00,
2013-04-14 08:49:00,26.9,15.6,29.74,WNW,284,12.0,15.0,62,0.00,,SKC,0.00,VWS V14.01,2013-04-14 14:49:00,
2013-04-14 08:50:00,26.9,15.6,29.74,WNW,284,12.0,15.0,62,0.00,,SKC,0.00,VWS V14.01,2013-04-14 14:50:00,
2013-04-14 08:51:00,26.8,15.5,29.74,WNW,284,17.0,23.0,62,0.00,,SKC,0.00,VWS V14.01,2013-04-14 14:51:00,
2013-04-14 08:52:00,26.8,15.5,29.74,WNW,300,19.0,21.0,62,0.00,,SKC,0.00,VWS V14.01,2013-04-14 14:52:00,
2013-04-14 08:53:00,26.8,15.9,29.74,WNW,297,19.0,19.0,63,0.00,,SKC,0.00,VWS V14.01,2013-04-14 14:53:00,
2013-04-14 08:54:00,26.7,15.1,29.74,North,360,14.0,23.0,61,0.00,,SKC,0.00,VWS V14.01,2013-04-14 14:54:00,
2013-04-14 08:55:00,26.7,15.1,29.74,North,360,14.0,23.0,61,0.00,,SKC,0.00,VWS V14.01,2013-04-14 14:55:00,
2013-04-14 08:56:00,26.7,15.1,29.74,WSW,254,20.0,22.0,61,0.00,,SKC,0.00,VWS V14.01,2013-04-14 14:56:00,
2013-04-14 08:57:00,26.7,15.4,29.74,West,269,13.0,20.0,62,0.00,,SKC,0.00,VWS V14.01,2013-04-14 14:57:00,
2013-04-14 08:58:00,26.7,15.1,29.74,North,360,10.0,16.0,61,0.00,,SKC,0.00,VWS V14.01,2013-04-14 14:58:00,
2013-04-14 08:59:00,26.8,15.2,29.74,WNW,289,20.0,29.0,61,0.00,,SKC,0.00,VWS V14.01,2013-04-14 14:59:00,
2013-04-14 09:00:00,26.8,15.2,29.74,WNW,289,20.0,29.0,61,0.00,,SKC,0.00,VWS V14.01,2013-04-14 15:00:00,
2013-04-14 09:01:00,26.8,14.4,29.74,West,270,17.0,21.0,59,0.00,,SKC,0.00,VWS V14.01,2013-04-14 15:01:00,
2013-04-14 09:02:00,26.9,14.9,29.74,WNW,301,8.0,17.0,60,0.00,,SKC,0.00,VWS V14.01,2013-04-14 15:02:00,
2013-04-14 09:03:00,26.9,14.9,29.74,West,265,17.0,17.0,60,0.00,,SKC,0.00,VWS V14.01,2013-04-14 15:03:00,
2013-04-14 09:04:00,27.1,15.8,29.74,West,279,19.0,23.0,62,0.00,,SKC,0.00,VWS V14.01,2013-04-14 15:04:00,
2013-04-14 09:05:00,27.1,15.8,29.74,West,279,19.0,23.0,62,0.00,,SKC,0.00,VWS V14.01,2013-04-14 15:05:00,
2013-04-14 09:06:00,27.4,15.7,29.74,WSW,253,11.0,14.0,61,0.00,,SKC,0.00,VWS V14.01,2013-04-14 15:06:00,
2013-04-14 09:07:00,27.5,15.8,29.74,WNW,286,18.0,20.0,61,0.00,,SKC,0.00,VWS V14.01,2013-04-14 15:07:00,
2013-04-14 09:08:00,27.6,16.3,29.74,North,360,16.0,24.0,62,0.00,,SKC,0.00,VWS V14.01,2013-04-14 15:08:00,
2013-04-14 09:09:00,27.7,16.0,29.74,West,260,13.0,17.0,61,0.00,,SKC,0.00,VWS V14.01,2013-04-14 15:09:00,
2013-04-14 09:10:00,27.7,16.0,29.74,West,260,13.0,17.0,61,0.00,,SKC,0.00,VWS V14.01,2013-04-14 15:10:00,
2013-04-14 09:11:00,27.8,15.0,29.75,West,268,17.0,19.0,58,0.00,,SKC,0.00,VWS V14.01,2013-04-14 15:11:00,
2013-04-14 09:12:00,27.8,15.0,29.75,North,360,12.0,22.0,58,0.00,,SKC,0.00,VWS V14.01,2013-04-14 15:12:00,
2013-04-14 09:13:00,27.9,15.8,29.75,West,265,9.0,17.0,60,0.00,,SKC,0.00,VWS V14.01,2013-04-14 15:13:00,
2013-04-14 09:14:00,27.9,15.8,29.75,WNW,297,10.0,19.0,60,0.00,,SKC,0.00,VWS V14.01,2013-04-14 15:14:00,
2013-04-14 09:15:00,27.9,15.8,29.75,WNW,297,10.0,19.0,60,0.00,,SKC,0.00,VWS V14.01,2013-04-14 15:15:00,
2013-04-14 09:16:00,28.1,15.2,29.75,North,360,11.0,16.0,58,0.00,,SKC,0.00,VWS V14.01,2013-04-14 15:16:00,
2013-04-14 09:17:00,28.1,15.6,29.76,North,360,10.0,16.0,59,0.00,,SKC,0.00,VWS V14.01,2013-04-14 15:17:00,
2013-04-14 09:18:00,28.2,15.3,29.75,West,277,18.0,26.0,58,0.00,,SKC,0.00,VWS V14.01,2013-04-14 15:18:00,
2013-04-14 09:19:00,28.2,15.3,29.76,West,271,16.0,26.0,58,0.00,,SKC,0.00,VWS V14.01,2013-04-14 15:19:00,
2013-04-14 09:20:00,28.2,15.3,29.76,West,271,16.0,26.0,58,0.00,,SKC,0.00,VWS V14.01,2013-04-14 15:20:00,
2013-04-14 09:21:00,28.1,13.6,29.76,WNW,291,20.0,26.0,54,0.00,,SKC,0.00,VWS V14.01,2013-04-14 15:21:00,
2013-04-14 09:22:00,28.1,14.4,29.77,WSW,254,15.0,24.0,56,0.00,,SKC,0.00,VWS V14.01,2013-04-14 15:22:00,
2013-04-14 09:23:00,28.0,15.1,29.77,WNW,283,19.0,25.0,58,0.00,,SKC,0.00,VWS V14.01,2013-04-14 15:23:00,
2013-04-14 09:24:00,28.0,15.1,29.77,NW,308,22.0,33.0,58,0.00,,SKC,0.00,VWS V14.01,2013-04-14 15:24:00,
2013-04-14 09:25:00,28.0,15.1,29.77,NW,308,22.0,33.0,58,0.00,,SKC,0.00,VWS V14.01,2013-04-14 15:25:00,
2013-04-14 09:26:00,28.0,13.9,29.77,West,274,30.0,30.0,55,0.00,,SKC,0.00,VWS V14.01,2013-04-14 15:26:00,
2013-04-14 09:27:00,27.9,13.4,29.77,West,261,9.0,30.0,54,0.00,,SKC,0.00,VWS V14.01,2013-04-14 15:27:00,
2013-04-14 09:28:00,27.8,13.8,29.77,North,360,16.0,20.0,55,0.00,,SKC,0.00,VWS V14.01,2013-04-14 15:28:00,
2013-04-14 09:30:00,27.7,14.5,29.77,WNW,293,20.0,28.0,57,0.00,,SKC,0.00,VWS V14.01,2013-04-14 15:30:00,
2013-04-14 09:32:00,27.7,13.6,29.77,WNW,290,18.0,21.0,55,0.00,,SKC,0.00,VWS V14.01,2013-04-14 15:32:00,
2013-04-14 09:33:00,27.7,14.1,29.77,West,268,16.0,18.0,56,0.00,,SKC,0.00,VWS V14.01,2013-04-14 15:33:00,
2013-04-14 09:34:00,27.8,15.0,29.77,West,264,22.0,22.0,58,0.00,,SKC,0.00,VWS V14.01,2013-04-14 15:34:00,
2013-04-14 09:35:00,27.8,15.0,29.77,West,264,22.0,22.0,58,0.00,,SKC,0.00,VWS V14.01,2013-04-14 15:35:00,
2013-04-14 09:36:00,27.9,12.6,29.78,NW,304,21.0,27.0,52,0.00,,SKC,0.00,VWS V14.01,2013-04-14 15:36:00,
2013-04-14 09:37:00,27.9,13.8,29.77,WNW,295,22.0,25.0,55,0.00,,SKC,0.00,VWS V14.01,2013-04-14 15:37:00,
2013-04-14 09:38:00,27.9,13.8,29.77,West,275,11.0,23.0,55,0.00,,SKC,0.00,VWS V14.01,2013-04-14 15:38:00,
2013-04-14 09:39:00,27.9,13.4,29.78,West,273,18.0,22.0,54,0.00,,SKC,0.00,VWS V14.01,2013-04-14 15:39:00,
2013-04-14 09:40:00,27.9,13.4,29.78,West,273,18.0,22.0,54,0.00,,SKC,0.00,VWS V14.01,2013-04-14 15:40:00,
2013-04-14 09:41:00,27.9,13.0,29.78,WNW,298,24.0,24.0,53,0.00,,SKC,0.00,VWS V14.01,2013-04-14 15:41:00,
2013-04-14 09:42:00,27.9,13.4,29.78,West,265,20.0,27.0,54,0.00,,SKC,0.00,VWS V14.01,2013-04-14 15:42:00,
2013-04-14 09:43:00,27.9,13.4,29.78,West,275,14.0,20.0,54,0.00,,SKC,0.00,VWS V14.01,2013-04-14 15:43:00,
2013-04-14 09:44:00,27.9,13.0,29.78,North,360,12.0,24.0,53,0.00,,SKC,0.00,VWS V14.01,2013-04-14 15:44:00,
2013-04-14 09:45:00,27.9,13.0,29.78,North,360,12.0,24.0,53,0.00,,SKC,0.00,VWS V14.01,2013-04-14 15:45:00,
2013-04-14 09:46:00,27.9,12.1,29.78,WNW,282,7.0,16.0,51,0.00,,SKC,0.00,VWS V14.01,2013-04-14 15:46:00,
2013-04-14 09:47:00,27.8,10.7,29.78,WNW,287,18.0,29.0,48,0.00,,SKC,0.00,VWS V14.01,2013-04-14 15:47:00,
2013-04-14 09:48:00,27.8,12.5,29.78,West,280,12.0,22.0,52,0.00,,SKC,0.00,VWS V14.01,2013-04-14 15:48:00,
2013-04-14 09:49:00,27.9,13.8,29.78,West,277,13.0,15.0,55,0.00,,SKC,0.00,VWS V14.01,2013-04-14 15:49:00,
2013-04-14 09:50:00,27.9,13.8,29.78,West,277,13.0,15.0,55,0.00,,SKC,0.00,VWS V14.01,2013-04-14 15:50:00,
2013-04-14 09:51:00,28.0,13.9,29.79,West,277,15.0,22.0,55,0.00,,SKC,0.00,VWS V14.01,2013-04-14 15:51:00,
2013-04-14 09:52:00,28.0,12.7,29.78,NW,309,14.0,17.0,52,0.00,,SKC,0.00,VWS V14.01,2013-04-14 15:52:00,
2013-04-14 09:53:00,28.0,12.2,29.78,WNW,282,11.0,14.0,51,0.00,,SKC,0.00,VWS V14.01,2013-04-14 15:53:00,
2013-04-14 09:54:00,28.1,12.3,29.78,WSW,237,9.0,13.0,51,0.00,,SKC,0.00,VWS V14.01,2013-04-14 15:54:00,
2013-04-14 09:55:00,28.1,12.3,29.78,WSW,237,9.0,13.0,51,0.00,,SKC,0.00,VWS V14.01,2013-04-14 15:55:00,
2013-04-14 09:56:00,28.3,14.6,29.79,WSW,241,11.0,23.0,56,0.00,,SKC,0.00,VWS V14.01,2013-04-14 15:56:00,
2013-04-14 09:57:00,28.5,14.0,29.79,SSW,197,4.0,11.0,54,0.00,,SKC,0.00,VWS V14.01,2013-04-14 15:57:00,
2013-04-14 09:58:00,28.5,12.7,29.79,West,264,5.0,12.0,51,0.00,,SKC,0.00,VWS V14.01,2013-04-14 15:58:00,
2013-04-14 09:59:00,28.5,11.8,29.79,WSW,247,15.0,15.0,49,0.00,,SKC,0.00,VWS V14.01,2013-04-14 15:59:00,
2013-04-14 10:00:00,28.5,11.8,29.79,WSW,247,15.0,15.0,49,0.00,,SKC,0.00,VWS V14.01,2013-04-14 16:00:00,
2013-04-14 10:01:00,28.4,12.6,29.80,WSW,252,18.0,18.0,51,0.00,,SKC,0.00,VWS V14.01,2013-04-14 16:01:00,
2013-04-14 10:02:00,28.4,13.0,29.80,SW,226,8.0,18.0,52,0.00,,SKC,0.00,VWS V14.01,2013-04-14 16:02:00,
2013-04-14 10:03:00,28.4,11.7,29.79,North,360,7.0,16.0,49,0.00,,SKC,0.00,VWS V14.01,2013-04-14 16:03:00,
2013-04-14 10:04:00,28.4,12.1,29.79,West,277,10.0,16.0,50,0.00,,SKC,0.00,VWS V14.01,2013-04-14 16:04:00,
2013-04-14 10:05:00,28.4,12.1,29.79,West,277,10.0,16.0,50,0.00,,SKC,0.00,VWS V14.01,2013-04-14 16:05:00,
2013-04-14 10:06:00,28.4,12.1,29.80,SW,219,14.0,17.0,50,0.00,,SKC,0.00,VWS V14.01,2013-04-14 16:06:00,
2013-04-14 10:07:00,28.4,10.8,29.79,West,264,13.0,14.0,47,0.00,,SKC,0.00,VWS V14.01,2013-04-14 16:07:00,
2013-04-14 10:08:00,28.3,12.1,29.80,West,260,15.0,16.0,50,0.00,,SKC,0.00,VWS V14.01,2013-04-14 16:08:00,
2013-04-14 10:09:00,28.4,12.6,29.80,SW,229,11.0,20.0,51,0.00,,SKC,0.00,VWS V14.01,2013-04-14 16:09:00,
2013-04-14 10:10:00,28.4,12.6,29.80,SW,229,11.0,20.0,51,0.00,,SKC,0.00,VWS V14.01,2013-04-14 16:10:00,
2013-04-14 10:11:00,28.4,10.3,29.79,North,360,18.0,22.0,46,0.00,,SKC,0.00,VWS V14.01,2013-04-14 16:11:00,
2013-04-14 10:12:00,28.3,9.7,29.79,SW,229,10.0,20.0,45,0.00,,SKC,0.00,VWS V14.01,2013-04-14 16:12:00,
2013-04-14 10:13:00,28.3,11.6,29.80,North,360,11.0,16.0,49,0.00,,SKC,0.00,VWS V14.01,2013-04-14 16:13:00,
2013-04-14 10:14:00,28.5,13.1,29.80,SW,219,12.0,13.0,52,0.00,,SKC,0.00,VWS V14.01,2013-04-14 16:14:00,
2013-04-14 10:15:00,28.5,13.1,29.80,SW,219,12.0,13.0,52,0.00,,SKC,0.00,VWS V14.01,2013-04-14 16:15:00,
2013-04-14 10:16:00,28.6,13.2,29.81,WNW,292,16.0,25.0,52,0.00,,SKC,0.00,VWS V14.01,2013-04-14 16:16:00,
2013-04-14 10:17:00,28.6,10.9,29.81,WNW,293,12.0,16.0,47,0.00,,SKC,0.00,VWS V14.01,2013-04-14 16:17:00,
2013-04-14 10:18:00,28.5,12.2,29.81,WSW,243,14.0,19.0,50,0.00,,SKC,0.00,VWS V14.01,2013-04-14 16:18:00,
2013-04-14 10:19:00,28.5,12.7,29.80,SW,229,12.0,17.0,51,0.00,,SKC,0.00,VWS V14.01,2013-04-14 16:19:00,
2013-04-14 10:20:00,28.5,12.7,29.80,SW,229,12.0,17.0,51,0.00,,SKC,0.00,VWS V14.01,2013-04-14 16:20:00,
2013-04-14 10:21:00,28.7,11.0,29.81,West,277,21.0,21.0,47,0.00,,SKC,0.00,VWS V14.01,2013-04-14 16:21:00,
2013-04-14 10:22:00,28.8,13.8,29.81,North,360,16.0,26.0,53,0.00,,SKC,0.00,VWS V14.01,2013-04-14 16:22:00,
2013-04-14 10:23:00,28.8,12.5,29.81,WSW,245,18.0,26.0,50,0.00,,SKC,0.00,VWS V14.01,2013-04-14 16:23:00,
2013-04-14 10:24:00,28.8,11.6,29.82,North,360,11.0,18.0,48,0.00,,SKC,0.00,VWS V14.01,2013-04-14 16:24:00,
2013-04-14 10:25:00,28.8,11.6,29.82,North,360,11.0,18.0,48,0.00,,SKC,0.00,VWS V14.01,2013-04-14 16:25:00,
2013-04-14 10:26:00,28.7,11.0,29.81,WSW,250,5.0,27.0,47,0.00,,SKC,0.00,VWS V14.01,2013-04-14 16:26:00,
2013-04-14 10:27:00,28.7,12.0,29.82,WSW,257,19.0,19.0,49,0.00,,SKC,0.00,VWS V14.01,2013-04-14 16:27:00,
2013-04-14 10:28:00,28.6,11.9,29.82,North,360,16.0,19.0,49,0.00,,SKC,0.00,VWS V14.01,2013-04-14 16:28:00,
2013-04-14 10:29:00,28.7,12.9,29.82,WNW,294,19.0,21.0,51,0.00,,SKC,0.00,VWS V14.01,2013-04-14 16:29:00,
2013-04-14 10:30:00,28.7,12.9,29.82,WNW,294,19.0,21.0,51,0.00,,SKC,0.00,VWS V14.01,2013-04-14 16:30:00,
2013-04-14 10:31:00,28.8,10.6,29.82,SW,234,15.0,15.0,46,0.00,,SKC,0.00,VWS V14.01,2013-04-14 16:31:00,
2013-04-14 10:32:00,28.9,13.1,29.82,SSW,213,19.0,22.0,51,0.00,,SKC,0.00,VWS V14.01,2013-04-14 16:32:00,
2013-04-14 10:33:00,29.0,12.2,29.82,WSW,258,16.0,19.0,49,0.00,,SKC,0.00,VWS V14.01,2013-04-14 16:33:00,
2013-04-14 10:34:00,28.9,12.1,29.82,WSW,248,14.0,21.0,49,0.00,,SKC,0.00,VWS V14.01,2013-04-14 16:34:00,
2013-04-14 10:35:00,28.9,12.1,29.82,WSW,248,14.0,21.0,49,0.00,,SKC,0.00,VWS V14.01,2013-04-14 16:35:00,
2013-04-14 10:36:00,29.1,11.9,29.82,SW,217,12.0,13.0,48,0.00,,SKC,0.00,VWS V14.01,2013-04-14 16:36:00,
2013-04-14 10:37:00,29.2,12.0,29.82,WSW,257,11.0,13.0,48,0.00,,SKC,0.00,VWS V14.01,2013-04-14 16:37:00,
2013-04-14 10:38:00,29.5,13.6,29.82,WSW,248,7.0,12.0,51,0.00,,SKC,0.00,VWS V14.01,2013-04-14 16:38:00,
2013-04-14 10:39:00,29.7,13.4,29.82,North,360,16.0,16.0,50,0.00,,SKC,0.00,VWS V14.01,2013-04-14 16:39:00,
2013-04-14 10:40:00,29.7,13.4,29.82,North,360,16.0,16.0,50,0.00,,SKC,0.00,VWS V14.01,2013-04-14 16:40:00,
2013-04-14 10:41:00,30.0,11.7,29.82,North,360,12.0,18.0,46,0.00,,SKC,0.00,VWS V14.01,2013-04-14 16:41:00,
2013-04-14 10:42:00,30.0,13.2,29.82,WNW,282,26.0,26.0,49,0.00,,SKC,0.00,VWS V14.01,2013-04-14 16:42:00,
2013-04-14 10:43:00,30.0,12.7,29.83,WSW,254,19.0,26.0,48,0.00,,SKC,0.00,VWS V14.01,2013-04-14 16:43:00,
2013-04-14 10:44:00,29.9,12.6,29.83,WSW,252,7.0,19.0,48,0.00,,SKC,0.00,VWS V14.01,2013-04-14 16:44:00,
2013-04-14 10:45:00,29.9,12.6,29.83,WSW,252,7.0,19.0,48,0.00,,SKC,0.00,VWS V14.01,2013-04-14 16:45:00,
2013-04-14 10:46:00,29.7,12.4,29.83,WNW,284,12.0,18.0,48,0.00,,SKC,0.00,VWS V14.01,2013-04-14 16:46:00,
2013-04-14 10:47:00,29.7,11.9,29.83,West,265,6.0,14.0,47,0.00,,SKC,0.00,VWS V14.01,2013-04-14 16:47:00,
2013-04-14 10:48:00,29.6,11.4,29.83,SW,235,16.0,18.0,46,0.00,,SKC,0.00,VWS V14.01,2013-04-14 16:48:00,
2013-04-14 10:49:00,29.6,13.3,29.83,SW,229,16.0,16.0,50,0.00,,SKC,0.00,VWS V14.01,2013-04-14 16:49:00,
2013-04-14 10:50:00,29.6,13.3,29.83,SW,229,16.0,16.0,50,0.00,,SKC,0.00,VWS V14.01,2013-04-14 16:50:00,
2013-04-14 10:51:00,29.6,11.4,29.83,North,360,23.0,23.0,46,0.00,,SKC,0.00,VWS V14.01,2013-04-14 16:51:00,
2013-04-14 10:52:00,29.6,11.4,29.83,West,259,12.0,29.0,46,0.00,,SKC,0.00,VWS V14.01,2013-04-14 16:52:00,
2013-04-14 10:53:00,29.3,8.5,29.83,SW,224,14.0,15.0,41,0.00,,SKC,0.00,VWS V14.01,2013-04-14 16:53:00,
2013-04-14 10:54:00,29.2,10.5,29.83,West,259,6.0,14.0,45,0.00,,SKC,0.00,VWS V14.01,2013-04-14 16:54:00,
2013-04-14 10:55:00,29.2,10.5,29.83,West,259,6.0,14.0,45,0.00,,SKC,0.00,VWS V14.01,2013-04-14 16:55:00,
2013-04-14 10:56:00,29.2,10.5,29.83,WSW,239,12.0,21.0,45,0.00,,SKC,0.00,VWS V14.01,2013-04-14 16:56:00,
2013-04-14 10:57:00,29.2,9.5,29.83,WSW,247,9.0,22.0,43,0.00,,SKC,0.00,VWS V14.01,2013-04-14 16:57:00,
2013-04-14 10:58:00,29.2,11.0,29.83,North,360,16.0,23.0,46,0.00,,SKC,0.00,VWS V14.01,2013-04-14 16:58:00,
2013-04-14 10:59:00,29.2,11.0,29.84,West,263,12.0,16.0,46,0.00,,SKC,0.00,VWS V14.01,2013-04-14 16:59:00,
2013-04-14 11:00:00,29.2,11.0,29.84,West,263,12.0,16.0,46,0.00,,SKC,0.00,VWS V14.01,2013-04-14 17:00:00,
2013-04-14 11:01:00,29.3,11.1,29.84,West,277,11.0,22.0,46,0.00,,SKC,0.00,VWS V14.01,2013-04-14 17:01:00,
2013-04-14 11:02:00,29.3,10.6,29.84,North,360,6.0,17.0,45,0.00,,SKC,0.00,VWS V14.01,2013-04-14 17:02:00,
2013-04-14 11:03:00,29.4,10.7,29.84,SW,225,14.0,14.0,45,0.00,,SKC,0.00,VWS V14.01,2013-04-14 17:03:00,
2013-04-14 11:04:00,29.4,12.1,29.84,SW,215,16.0,19.0,48,0.00,,SKC,0.00,VWS V14.01,2013-04-14 17:04:00,
2013-04-14 11:05:00,29.4,12.1,29.84,SW,215,16.0,19.0,48,0.00,,SKC,0.00,VWS V14.01,2013-04-14 17:05:00,
2013-04-14 11:06:00,29.5,10.8,29.84,WSW,240,8.0,16.0,45,0.00,,SKC,0.00,VWS V14.01,2013-04-14 17:06:00,
2013-04-14 11:07:00,29.5,10.3,29.84,SW,214,29.0,29.0,44,0.00,,SKC,0.00,VWS V14.01,2013-04-14 17:07:00,
2013-04-14 11:08:00,29.5,11.3,29.85,North,360,11.0,29.0,46,0.00,,SKC,0.00,VWS V14.01,2013-04-14 17:08:00,
2013-04-14 11:09:00,29.5,8.7,29.84,SW,217,10.0,26.0,41,0.00,,SKC,0.00,VWS V14.01,2013-04-14 17:09:00,
2013-04-14 11:10:00,29.5,8.7,29.84,SW,217,10.0,26.0,41,0.00,,SKC,0.00,VWS V14.01,2013-04-14 17:10:00,
2013-04-14 11:11:00,29.4,9.2,29.84,North,360,21.0,23.0,42,0.00,,SKC,0.00,VWS V14.01,2013-04-14 17:11:00,
2013-04-14 11:12:00,29.3,7.4,29.83,SSW,209,13.0,28.0,39,0.00,,SKC,0.00,VWS V14.01,2013-04-14 17:12:00,
2013-04-14 11:13:00,29.1,7.8,29.84,West,275,19.0,19.0,40,0.00,,SKC,0.00,VWS V14.01,2013-04-14 17:13:00,
2013-04-14 11:14:00,29.1,9.4,29.85,West,262,13.0,21.0,43,0.00,,SKC,0.00,VWS V14.01,2013-04-14 17:14:00,
2013-04-14 11:15:00,29.1,9.4,29.85,West,262,13.0,21.0,43,0.00,,SKC,0.00,VWS V14.01,2013-04-14 17:15:00,
2013-04-14 11:16:00,29.2,10.0,29.85,WSW,244,17.0,25.0,44,0.00,,SKC,0.00,VWS V14.01,2013-04-14 17:16:00,
2013-04-14 11:17:00,29.2,9.0,29.85,West,277,18.0,24.0,42,0.00,,SKC,0.00,VWS V14.01,2013-04-14 17:17:00,
2013-04-14 11:18:00,29.3,10.1,29.85,North,360,16.0,22.0,44,0.00,,SKC,0.00,VWS V14.01,2013-04-14 17:18:00,
2013-04-14 11:19:00,29.4,9.7,29.85,SSW,198,6.0,16.0,43,0.00,,SKC,0.00,VWS V14.01,2013-04-14 17:19:00,
2013-04-14 11:20:00,29.4,9.7,29.85,SSW,198,6.0,16.0,43,0.00,,SKC,0.00,VWS V14.01,2013-04-14 17:20:00,
2013-04-14 11:21:00,29.6,8.8,29.85,WSW,250,8.0,23.0,41,0.00,,SKC,0.00,VWS V14.01,2013-04-14 17:21:00,
2013-04-14 11:22:00,29.7,9.4,29.85,WNW,288,10.0,11.0,42,0.00,,SKC,0.00,VWS V14.01,2013-04-14 17:22:00,
2013-04-14 11:23:00,29.8,11.6,29.85,West,279,10.0,18.0,46,0.00,,SKC,0.00,VWS V14.01,2013-04-14 17:23:00,
2013-04-14 11:24:00,30.0,10.2,29.85,WNW,284,16.0,28.0,43,0.00,,SKC,0.00,VWS V14.01,2013-04-14 17:24:00,
2013-04-14 11:25:00,30.0,10.2,29.85,WNW,284,16.0,28.0,43,0.00,,SKC,0.00,VWS V14.01,2013-04-14 17:25:00,
2013-04-14 11:26:00,30.3,11.0,29.85,North,360,9.0,17.0,44,0.00,,SKC,0.00,VWS V14.01,2013-04-14 17:26:00,
2013-04-14 11:27:00,30.5,11.2,29.85,West,267,9.0,16.0,44,0.00,,SKC,0.00,VWS V14.01,2013-04-14 17:27:00,
2013-04-14 11:28:00,30.6,11.3,29.85,WSW,258,15.0,18.0,44,0.00,,SKC,0.00,VWS V14.01,2013-04-14 17:28:00,
2013-04-14 11:29:00,30.9,12.1,29.85,North,360,15.0,20.0,45,0.00,,SKC,0.00,VWS V14.01,2013-04-14 17:29:00,
2013-04-14 11:30:00,30.9,12.1,29.85,North,360,15.0,20.0,45,0.00,,SKC,0.00,VWS V14.01,2013-04-14 17:30:00,
2013-04-14 11:31:00,31.1,7.9,29.85,West,270,13.0,16.0,37,0.00,,SKC,0.00,VWS V14.01,2013-04-14 17:31:00,
2013-04-14 11:32:00,31.2,11.3,29.85,SSW,213,16.0,31.0,43,0.00,,SKC,0.00,VWS V14.01,2013-04-14 17:32:00,
2013-04-14 11:33:00,31.2,11.3,29.85,SW,233,20.0,20.0,43,0.00,,SKC,0.00,VWS V14.01,2013-04-14 17:33:00,
2013-04-14 11:34:00,31.0,7.2,29.84,WSW,245,19.0,22.0,36,0.00,,SKC,0.00,VWS V14.01,2013-04-14 17:34:00,
2013-04-14 11:35:00,31.0,7.2,29.84,WSW,245,19.0,22.0,36,0.00,,SKC,0.00,VWS V14.01,2013-04-14 17:35:00,
2013-04-14 11:36:00,31.1,9.6,29.85,SW,227,16.0,23.0,40,0.00,,SKC,0.00,VWS V14.01,2013-04-14 17:36:00,
2013-04-14 11:37:00,31.0,8.4,29.85,NW,306,19.0,23.0,38,0.00,,SKC,0.00,VWS V14.01,2013-04-14 17:37:00,
2013-04-14 11:38:00,31.0,10.6,29.85,WNW,287,34.0,34.0,42,0.00,,SKC,0.00,VWS V14.01,2013-04-14 17:38:00,
2013-04-14 11:39:00,31.0,10.6,29.85,SSW,212,20.0,34.0,42,0.00,,SKC,0.00,VWS V14.01,2013-04-14 17:39:00,
2013-04-14 11:40:00,31.0,10.6,29.85,SSW,212,20.0,34.0,42,0.00,,SKC,0.00,VWS V14.01,2013-04-14 17:40:00,
2013-04-14 11:41:00,30.9,10.0,29.86,WSW,258,21.0,33.0,41,0.00,,SKC,0.00,VWS V14.01,2013-04-14 17:41:00,
2013-04-14 11:42:00,31.0,10.6,29.85,West,261,21.0,22.0,42,0.00,,SKC,0.00,VWS V14.01,2013-04-14 17:42:00,
2013-04-14 11:43:00,31.1,10.2,29.86,SW,230,12.0,21.0,41,0.00,,SKC,0.00,VWS V14.01,2013-04-14 17:43:00,
2013-04-14 11:44:00,31.2,8.0,29.85,SSW,207,19.0,24.0,37,0.00,,SKC,0.00,VWS V14.01,2013-04-14 17:44:00,
2013-04-14 11:45:00,31.2,8.0,29.85,SSW,207,19.0,24.0,37,0.00,,SKC,0.00,VWS V14.01,2013-04-14 17:45:00,
2013-04-14 11:46:00,31.1,7.9,29.85,SW,235,24.0,24.0,37,0.00,,SKC,0.00,VWS V14.01,2013-04-14 17:46:00,
2013-04-14 11:47:00,31.0,7.2,29.85,WSW,240,7.0,24.0,36,0.00,,SKC,0.00,VWS V14.01,2013-04-14 17:47:00,
2013-04-14 11:48:00,30.9,7.1,29.86,South,184,12.0,13.0,36,0.00,,SKC,0.00,VWS V14.01,2013-04-14 17:48:00,
2013-04-14 11:49:00,31.0,10.6,29.86,North,360,12.0,21.0,42,0.00,,SKC,0.00,VWS V14.01,2013-04-14 17:49:00,
2013-04-14 11:50:00,31.2,10.2,29.85,West,263,15.0,15.0,41,0.00,,SKC,0.00,VWS V14.01,2013-04-14 17:50:00,
2013-04-14 11:51:00,31.2,10.2,29.85,West,263,15.0,15.0,41,0.00,,SKC,0.00,VWS V14.01,2013-04-14 17:51:00,
2013-04-14 11:52:00,31.7,8.4,29.86,South,180,11.0,23.0,37,0.00,,SKC,0.00,VWS V14.01,2013-04-14 17:52:00,
2013-04-14 11:53:00,31.7,7.8,29.85,SSW,205,16.0,22.0,36,0.00,,SKC,0.00,VWS V14.01,2013-04-14 17:53:00,
2013-04-14 11:54:00,31.7,7.8,29.85,WSW,248,8.0,16.0,36,0.00,,SKC,0.00,VWS V14.01,2013-04-14 17:54:00,
2013-04-14 11:55:00,31.7,9.0,29.85,West,267,12.0,14.0,38,0.00,,SKC,0.00,VWS V14.01,2013-04-14 17:55:00,
2013-04-14 11:56:00,31.7,9.0,29.85,West,267,12.0,14.0,38,0.00,,SKC,0.00,VWS V14.01,2013-04-14 17:56:00,
2013-04-14 11:57:00,31.9,10.3,29.85,WSW,255,17.0,20.0,40,0.00,,SKC,0.00,VWS V14.01,2013-04-14 17:57:00,
2013-04-14 11:58:00,32.0,10.4,29.86,SW,236,5.0,17.0,40,0.00,,SKC,0.00,VWS V14.01,2013-04-14 17:58:00,
2013-04-14 11:59:00,32.3,11.8,29.86,West,276,23.0,26.0,42,0.00,,SKC,0.00,VWS V14.01,2013-04-14 17:59:00,
2013-04-14 12:00:00,32.2,8.3,29.86,WSW,247,17.0,23.0,36,0.00,,SKC,0.00,VWS V14.01,2013-04-14 18:00:00,
2013-04-14 12:01:00,32.2,8.3,29.86,WSW,247,17.0,23.0,36,0.00,,SKC,0.00,VWS V14.01,2013-04-14 18:01:00,
2013-04-14 12:02:00,32.1,6.9,29.85,SSW,204,11.0,16.0,34,0.00,,SKC,0.00,VWS V14.01,2013-04-14 18:02:00,
2013-04-14 12:03:00,32.0,7.5,29.86,South,190,14.0,16.0,35,0.00,,SKC,0.00,VWS V14.01,2013-04-14 18:03:00,
2013-04-14 12:04:00,32.0,7.5,29.85,South,188,15.0,16.0,35,0.00,,SKC,0.00,VWS V14.01,2013-04-14 18:04:00,
2013-04-14 12:05:00,32.1,9.9,29.85,SW,234,12.0,17.0,39,0.00,,SKC,0.00,VWS V14.01,2013-04-14 18:05:00,
2013-04-14 12:06:00,32.2,8.9,29.86,SSW,204,23.0,23.0,37,0.00,,SKC,0.00,VWS V14.01,2013-04-14 18:06:00,
2013-04-14 12:07:00,32.2,8.9,29.86,SSW,204,23.0,23.0,37,0.00,,SKC,0.00,VWS V14.01,2013-04-14 18:07:00,
2013-04-14 12:08:00,31.7,5.2,29.86,West,273,19.0,36.0,32,0.00,,SKC,0.00,VWS V14.01,2013-04-14 18:08:00,
2013-04-14 12:09:00,31.6,7.7,29.85,SSW,208,15.0,20.0,36,0.00,,SKC,0.00,VWS V14.01,2013-04-14 18:09:00,
2013-04-14 12:10:00,31.5,8.8,29.85,South,190,19.0,26.0,38,0.00,,SKC,0.00,VWS V14.01,2013-04-14 18:10:00,
2013-04-14 12:11:00,31.3,4.9,29.85,SSW,200,23.0,26.0,32,0.00,,SKC,0.00,VWS V14.01,2013-04-14 18:11:00,
2013-04-14 12:12:00,31.3,4.9,29.85,SSW,200,23.0,26.0,32,0.00,,SKC,0.00,VWS V14.01,2013-04-14 18:12:00,
2013-04-14 12:13:00,31.2,6.8,29.85,West,279,15.0,21.0,35,0.00,,SKC,0.00,VWS V14.01,2013-04-14 18:13:00,
2013-04-14 12:14:00,31.2,8.0,29.86,West,281,26.0,26.0,37,0.00,,SKC,0.00,VWS V14.01,2013-04-14 18:14:00,
2013-04-14 12:15:00,31.4,9.9,29.86,West,279,23.0,38.0,40,0.00,,SKC,0.00,VWS V14.01,2013-04-14 18:15:00,
2013-04-14 12:16:00,31.5,8.2,29.86,West,263,29.0,38.0,37,0.00,,SKC,0.00,VWS V14.01,2013-04-14 18:16:00,
2013-04-14 12:17:00,31.5,8.2,29.86,West,263,29.0,38.0,37,0.00,,SKC,0.00,VWS V14.01,2013-04-14 18:17:00,
2013-04-14 12:18:00,31.3,4.9,29.84,WSW,247,20.0,28.0,32,0.00,,SKC,0.00,VWS V14.01,2013-04-14 18:18:00,
2013-04-14 12:19:00,31.3,6.8,29.86,West,265,33.0,33.0,35,0.00,,SKC,0.00,VWS V14.01,2013-04-14 18:19:00,
2013-04-14 12:20:00,31.2,6.8,29.86,WSW,241,23.0,33.0,35,0.00,,SKC,0.00,VWS V14.01,2013-04-14 18:20:00,
2013-04-14 12:21:00,31.2,8.0,29.86,SSW,205,15.0,23.0,37,0.00,,SKC,0.00,VWS V14.01,2013-04-14 18:21:00,
2013-04-14 12:22:00,31.2,8.0,29.86,SSW,205,15.0,23.0,37,0.00,,SKC,0.00,VWS V14.01,2013-04-14 18:22:00,
2013-04-14 12:23:00,31.5,8.2,29.86,SSW,209,19.0,24.0,37,0.00,,SKC,0.00,VWS V14.01,2013-04-14 18:23:00,
2013-04-14 12:24:00,31.6,8.3,29.85,South,187,17.0,19.0,37,0.00,,SKC,0.00,VWS V14.01,2013-04-14 18:24:00,
2013-04-14 12:25:00,31.7,8.4,29.85,West,270,12.0,26.0,37,0.00,,SKC,0.00,VWS V14.01,2013-04-14 18:25:00,
2013-04-14 12:26:00,31.7,7.8,29.85,North,360,19.0,29.0,36,0.00,,SKC,0.00,VWS V14.01,2013-04-14 18:26:00,
2013-04-14 12:27:00,31.7,7.8,29.85,North,360,19.0,29.0,36,0.00,,SKC,0.00,VWS V14.01,2013-04-14 18:27:00,
2013-04-14 12:28:00,31.7,7.8,29.84,SSW,212,17.0,29.0,36,0.00,,SKC,0.00,VWS V14.01,2013-04-14 18:28:00,
2013-04-14 12:29:00,31.9,8.6,29.84,WSW,242,16.0,23.0,37,0.00,,SKC,0.00,VWS V14.01,2013-04-14 18:29:00,
2013-04-14 12:30:00,31.9,7.4,29.85,WSW,245,22.0,36.0,35,0.00,,SKC,0.00,VWS V14.01,2013-04-14 18:30:00,
2013-04-14 12:31:00,31.8,6.0,29.85,SSW,204,15.0,27.0,33,0.00,,SKC,0.00,VWS V14.01,2013-04-14 18:31:00,
2013-04-14 12:32:00,31.5,5.1,29.85,SW,219,32.0,37.0,32,0.00,,SKC,0.00,VWS V14.01,2013-04-14 18:32:00,
2013-04-14 12:33:00,31.5,5.1,29.85,SW,219,32.0,37.0,32,0.00,,SKC,0.00,VWS V14.01,2013-04-14 18:33:00,
2013-04-14 12:34:00,31.2,4.1,29.84,SSW,209,13.0,19.0,31,0.00,,SKC,0.00,VWS V14.01,2013-04-14 18:34:00,
2013-04-14 12:35:00,31.1,6.7,29.84,North,360,16.0,21.0,35,0.00,,SKC,0.00,VWS V14.01,2013-04-14 18:35:00,
2013-04-14 12:36:00,31.1,5.4,29.85,WNW,291,16.0,19.0,33,0.00,,SKC,0.00,VWS V14.01,2013-04-14 18:36:00,
2013-04-14 12:37:00,31.1,7.3,29.86,West,264,19.0,20.0,36,0.00,,SKC,0.00,VWS V14.01,2013-04-14 18:37:00,
2013-04-14 12:38:00,31.1,7.3,29.86,West,264,19.0,20.0,36,0.00,,SKC,0.00,VWS V14.01,2013-04-14 18:38:00,
2013-04-14 12:39:00,31.6,10.1,29.86,West,275,13.0,18.0,40,0.00,,SKC,0.00,VWS V14.01,2013-04-14 18:39:00,
2013-04-14 12:40:00,31.9,9.8,29.86,SW,220,13.0,15.0,39,0.00,,SKC,0.00,VWS V14.01,2013-04-14 18:40:00,
2013-04-14 12:41:00,32.1,8.8,29.85,North,360,13.0,15.0,37,0.00,,SKC,0.00,VWS V14.01,2013-04-14 18:41:00,
2013-04-14 12:42:00,32.2,8.3,29.85,SW,226,17.0,17.0,36,0.00,,SKC,0.00,VWS V14.01,2013-04-14 18:42:00,
2013-04-14 12:43:00,32.2,8.3,29.85,SW,226,17.0,17.0,36,0.00,,SKC,0.00,VWS V14.01,2013-04-14 18:43:00,
2013-04-14 12:44:00,32.4,5.8,29.86,WSW,253,17.0,19.0,32,0.00,,SKC,0.00,VWS V14.01,2013-04-14 18:44:00,
2013-04-14 12:45:00,32.4,7.8,29.85,SSW,202,22.0,25.0,35,0.00,,SKC,0.00,VWS V14.01,2013-04-14 18:45:00,
2013-04-14 12:46:00,32.3,7.1,29.85,SW,221,15.0,23.0,34,0.00,,SKC,0.00,VWS V14.01,2013-04-14 18:46:00,
2013-04-14 12:47:00,32.3,7.1,29.85,WSW,247,19.0,21.0,34,0.00,,SKC,0.00,VWS V14.01,2013-04-14 18:47:00,
2013-04-14 12:48:00,32.2,5.0,29.85,West,275,21.0,26.0,31,0.00,,SKC,0.00,VWS V14.01,2013-04-14 18:48:00,
2013-04-14 12:49:00,32.2,5.0,29.85,West,275,21.0,26.0,31,0.00,,SKC,0.00,VWS V14.01,2013-04-14 18:49:00,
2013-04-14 12:50:00,32.1,5.6,29.86,West,264,19.0,19.0,32,0.00,,SKC,0.00,VWS V14.01,2013-04-14 18:50:00,
2013-04-14 12:51:00,32.1,7.6,29.86,SSW,207,11.0,19.0,35,0.00,,SKC,0.00,VWS V14.01,2013-04-14 18:51:00,
2013-04-14 12:52:00,32.3,8.4,29.85,SW,229,11.0,15.0,36,0.00,,SKC,0.00,VWS V14.01,2013-04-14 18:52:00,
2013-04-14 12:53:00,32.4,7.8,29.85,West,279,6.0,14.0,35,0.00,,SKC,0.00,VWS V14.01,2013-04-14 18:53:00,
2013-04-14 12:54:00,32.4,7.8,29.85,West,279,6.0,14.0,35,0.00,,SKC,0.00,VWS V14.01,2013-04-14 18:54:00,
2013-04-14 12:55:00,32.9,8.3,29.86,SSW,201,18.0,23.0,35,0.00,,SKC,0.00,VWS V14.01,2013-04-14 18:55:00,
2013-04-14 12:56:00,33.1,7.8,29.86,West,260,14.0,33.0,34,0.00,,SKC,0.00,VWS V14.01,2013-04-14 18:56:00,
2013-04-14 12:57:00,33.0,6.4,29.87,West,267,22.0,40.0,32,0.00,,SKC,0.00,VWS V14.01,2013-04-14 18:57:00,
2013-04-14 12:58:00,32.9,7.0,29.87,North,360,21.0,25.0,33,0.00,,SKC,0.00,VWS V14.01,2013-04-14 18:58:00,
2013-04-14 12:59:00,32.9,7.0,29.87,North,360,21.0,25.0,33,0.00,,SKC,0.00,VWS V14.01,2013-04-14 18:59:00,
2013-04-14 13:00:00,32.7,8.1,29.86,SSW,213,14.0,33.0,35,0.00,,SKC,0.00,VWS V14.01,2013-04-14 19:00:00,
2013-04-14 13:01:00,32.5,6.6,29.86,North,360,15.0,27.0,33,0.00,,SKC,0.00,VWS V14.01,2013-04-14 19:01:00,
2013-04-14 13:02:00,32.5,7.3,29.87,SW,231,18.0,22.0,34,0.00,,SKC,0.00,VWS V14.01,2013-04-14 19:02:00,
2013-04-14 13:03:00,32.4,5.8,29.86,WSW,250,16.0,20.0,32,0.00,,SKC,0.00,VWS V14.01,2013-04-14 19:03:00,
2013-04-14 13:04:00,32.4,5.8,29.86,WSW,250,16.0,20.0,32,0.00,,SKC,0.00,VWS V14.01,2013-04-14 19:04:00,
2013-04-14 13:05:00,31.9,3.3,29.86,West,265,20.0,26.0,29,0.00,,SKC,0.00,VWS V14.01,2013-04-14 19:05:00,
2013-04-14 13:06:00,31.9,7.4,29.86,North,360,20.0,32.0,35,0.00,,SKC,0.00,VWS V14.01,2013-04-14 19:06:00,
2013-04-14 13:07:00,31.9,5.4,29.86,North,360,29.0,34.0,32,0.00,,SKC,0.00,VWS V14.01,2013-04-14 19:07:00,
2013-04-14 13:08:00,31.9,6.7,29.86,NW,309,24.0,31.0,34,0.00,,SKC,0.00,VWS V14.01,2013-04-14 19:08:00,
2013-04-14 13:09:00,31.9,6.1,29.87,West,274,31.0,31.0,33,0.00,,SKC,0.00,VWS V14.01,2013-04-14 19:09:00,
2013-04-14 13:10:00,31.9,6.1,29.87,West,274,31.0,31.0,33,0.00,,SKC,0.00,VWS V14.01,2013-04-14 19:10:00,
2013-04-14 13:11:00,31.7,5.9,29.87,West,275,21.0,32.0,33,0.00,,SKC,0.00,VWS V14.01,2013-04-14 19:11:00,
2013-04-14 13:12:00,31.7,4.5,29.87,North,360,17.0,22.0,31,0.00,,SKC,0.00,VWS V14.01,2013-04-14 19:12:00,
2013-04-14 13:13:00,31.8,8.5,29.87,WSW,257,19.0,23.0,37,0.00,,SKC,0.00,VWS V14.01,2013-04-14 19:13:00,
2013-04-14 13:14:00,31.9,5.4,29.87,West,263,13.0,24.0,32,0.00,,SKC,0.00,VWS V14.01,2013-04-14 19:14:00,
2013-04-14 13:15:00,32.0,7.5,29.87,WNW,286,20.0,29.0,35,0.00,,SKC,0.00,VWS V14.01,2013-04-14 19:15:00,
2013-04-14 13:16:00,32.0,7.5,29.87,WNW,286,20.0,29.0,35,0.00,,SKC,0.00,VWS V14.01,2013-04-14 19:16:00,
2013-04-14 13:17:00,32.5,7.9,29.87,North,360,20.0,36.0,35,0.00,,SKC,0.00,VWS V14.01,2013-04-14 19:17:00,
2013-04-14 13:18:00,32.5,4.5,29.87,SW,227,15.0,24.0,30,0.00,,SKC,0.00,VWS V14.01,2013-04-14 19:18:00,
2013-04-14 13:19:00,32.4,5.2,29.87,SW,232,15.0,23.0,31,0.00,,SKC,0.00,VWS V14.01,2013-04-14 19:19:00,
2013-04-14 13:20:00,32.4,5.8,29.87,West,259,17.0,22.0,32,0.00,,SKC,0.00,VWS V14.01,2013-04-14 19:20:00,
2013-04-14 13:21:00,32.4,5.8,29.87,West,259,17.0,22.0,32,0.00,,SKC,0.00,VWS V14.01,2013-04-14 19:21:00,
2013-04-14 13:22:00,32.4,7.2,29.87,West,260,13.0,22.0,34,0.00,,SKC,0.00,VWS V14.01,2013-04-14 19:22:00,
2013-04-14 13:23:00,32.5,7.9,29.87,SW,228,22.0,25.0,35,0.00,,SKC,0.00,VWS V14.01,2013-04-14 19:23:00,
2013-04-14 13:24:00,32.6,6.0,29.87,North,360,16.0,22.0,32,0.00,,SKC,0.00,VWS V14.01,2013-04-14 19:24:00,
2013-04-14 13:26:00,32.6,6.0,29.87,WSW,256,13.0,21.0,32,0.00,,SKC,0.00,VWS V14.01,2013-04-14 19:26:00,
2013-04-14 13:29:00,33.5,8.8,29.87,SSW,201,18.0,18.0,35,0.00,,SKC,0.00,VWS V14.01,2013-04-14 19:29:00,
2013-04-14 13:30:00,33.7,8.3,29.86,WSW,245,17.0,28.0,34,0.00,,SKC,0.00,VWS V14.01,2013-04-14 19:30:00,
2013-04-14 13:31:00,33.7,8.3,29.86,WSW,245,17.0,28.0,34,0.00,,SKC,0.00,VWS V14.01,2013-04-14 19:31:00,
2013-04-14 13:32:00,33.7,7.0,29.88,SSW,210,15.0,17.0,32,0.00,,SKC,0.00,VWS V14.01,2013-04-14 19:32:00,
2013-04-14 13:33:00,33.6,5.5,29.88,WNW,290,5.0,15.0,30,0.00,,SKC,0.00,VWS V14.01,2013-04-14 19:33:00,
2013-04-14 13:34:00,33.5,5.4,29.87,North,360,19.0,19.0,30,0.00,,SKC,0.00,VWS V14.01,2013-04-14 19:34:00,
2013-04-14 13:35:00,33.5,6.8,29.88,WSW,247,32.0,32.0,32,0.00,,SKC,0.00,VWS V14.01,2013-04-14 19:35:00,
2013-04-14 13:36:00,33.5,6.8,29.88,WSW,247,32.0,32.0,32,0.00,,SKC,0.00,VWS V14.01,2013-04-14 19:36:00,
2013-04-14 13:37:00,33.5,6.1,29.88,SSW,194,15.0,28.0,31,0.00,,SKC,0.00,VWS V14.01,2013-04-14 19:37:00,
2013-04-14 13:38:00,33.4,5.3,29.87,North,360,17.0,21.0,30,0.00,,SKC,0.00,VWS V14.01,2013-04-14 19:38:00,
2013-04-14 13:39:00,33.3,6.6,29.87,WSW,256,18.0,20.0,32,0.00,,SKC,0.00,VWS V14.01,2013-04-14 19:39:00,
2013-04-14 13:40:00,33.3,5.9,29.87,WSW,239,15.0,18.0,31,0.00,,SKC,0.00,VWS V14.01,2013-04-14 19:40:00,
2013-04-14 13:41:00,33.3,5.9,29.87,WSW,239,15.0,18.0,31,0.00,,SKC,0.00,VWS V14.01,2013-04-14 19:41:00,
2013-04-14 13:42:00,33.0,5.0,29.88,WSW,243,6.0,19.0,30,0.00,,SKC,0.00,VWS V14.01,2013-04-14 19:42:00,
2013-04-14 13:43:00,33.0,7.1,29.87,SSW,202,5.0,12.0,33,0.00,,SKC,0.00,VWS V14.01,2013-04-14 19:43:00,
2013-04-14 13:44:00,33.2,8.5,29.87,SW,232,14.0,15.0,35,0.00,,SKC,0.00,VWS V14.01,2013-04-14 19:44:00,
2013-04-14 13:45:00,33.5,8.8,29.88,West,260,14.0,17.0,35,0.00,,SKC,0.00,VWS V14.01,2013-04-14 19:45:00,
2013-04-14 13:46:00,33.5,8.8,29.88,West,260,14.0,17.0,35,0.00,,SKC,0.00,VWS V14.01,2013-04-14 19:46:00,
2013-04-14 13:47:00,33.9,6.5,29.88,North,360,14.0,19.0,31,0.00,,SKC,0.00,VWS V14.01,2013-04-14 19:47:00,
2013-04-14 13:48:00,34.1,9.3,29.88,WNW,290,20.0,20.0,35,0.00,,SKC,0.00,VWS V14.01,2013-04-14 19:48:00,
2013-04-14 13:49:00,34.4,6.9,29.89,NW,304,30.0,32.0,31,0.00,,SKC,0.00,VWS V14.01,2013-04-14 19:49:00,
2013-04-14 13:50:00,34.4,5.4,29.88,WSW,253,25.0,30.0,29,0.00,,SKC,0.00,VWS V14.01,2013-04-14 19:50:00,
2013-04-14 13:51:00,34.4,5.4,29.88,WSW,253,25.0,30.0,29,0.00,,SKC,0.00,VWS V14.01,2013-04-14 19:51:00,
2013-04-14 13:52:00,34.4,5.4,29.88,WSW,241,31.0,33.0,29,0.00,,SKC,0.00,VWS V14.01,2013-04-14 19:52:00,
2013-04-14 13:53:00,34.2,4.5,29.88,SSW,208,22.0,31.0,28,0.00,,SKC,0.00,VWS V14.01,2013-04-14 19:53:00,
2013-04-14 13:54:00,34.0,4.3,29.87,SSW,195,31.0,31.0,28,0.00,,SKC,0.00,VWS V14.01,2013-04-14 19:54:00,
2013-04-14 13:55:00,33.7,4.1,29.87,WSW,238,18.0,31.0,28,0.00,,SKC,0.00,VWS V14.01,2013-04-14 19:55:00,
2013-04-14 13:56:00,33.7,4.1,29.87,WSW,238,18.0,31.0,28,0.00,,SKC,0.00,VWS V14.01,2013-04-14 19:56:00,
2013-04-14 13:57:00,33.5,4.7,29.87,SW,221,16.0,20.0,29,0.00,,SKC,0.00,VWS V14.01,2013-04-14 19:57:00,
2013-04-14 13:58:00,33.6,4.8,29.87,SW,229,12.0,22.0,29,0.00,,SKC,0.00,VWS V14.01,2013-04-14 19:58:00,
2013-04-14 13:59:00,33.6,6.2,29.88,West,277,12.0,22.0,31,0.00,,SKC,0.00,VWS V14.01,2013-04-14 19:59:00,
2013-04-14 14:00:00,33.9,7.2,29.88,North,360,18.0,28.0,32,0.00,,SKC,0.00,VWS V14.01,2013-04-14 20:00:00,
2013-04-14 14:01:00,33.9,7.2,29.88,North,360,18.0,28.0,32,0.00,,SKC,0.00,VWS V14.01,2013-04-14 20:01:00,
2013-04-14 14:02:00,34.4,6.9,29.89,WNW,287,22.0,30.0,31,0.00,,SKC,0.00,VWS V14.01,2013-04-14 20:02:00,
2013-04-14 14:03:00,34.6,5.6,29.88,North,360,20.0,25.0,29,0.00,,SKC,0.00,VWS V14.01,2013-04-14 20:03:00,
2013-04-14 14:04:00,34.7,4.9,29.88,SW,226,20.0,31.0,28,0.00,,SKC,0.00,VWS V14.01,2013-04-14 20:04:00,
2013-04-14 14:05:00,34.7,5.7,29.89,North,360,12.0,22.0,29,0.00,,SKC,0.00,VWS V14.01,2013-04-14 20:05:00,
2013-04-14 14:06:00,34.7,5.7,29.89,North,360,12.0,22.0,29,0.00,,SKC,0.00,VWS V14.01,2013-04-14 20:06:00,
2013-04-14 14:07:00,35.0,6.7,29.88,SSW,208,10.0,19.0,30,0.00,,SKC,0.00,VWS V14.01,2013-04-14 20:07:00,
2013-04-14 14:08:00,35.2,8.3,29.88,WSW,255,30.0,30.0,32,0.00,,SKC,0.00,VWS V14.01,2013-04-14 20:08:00,
2013-04-14 14:09:00,35.3,6.2,29.88,North,360,19.0,30.0,29,0.00,,SKC,0.00,VWS V14.01,2013-04-14 20:09:00,
2013-04-14 14:10:00,35.3,5.5,29.88,SSW,193,15.0,19.0,28,0.00,,SKC,0.00,VWS V14.01,2013-04-14 20:10:00,
2013-04-14 14:11:00,35.3,5.5,29.88,SSW,193,15.0,19.0,28,0.00,,SKC,0.00,VWS V14.01,2013-04-14 20:11:00,
2013-04-14 14:12:00,35.2,6.9,29.88,NW,304,10.0,13.0,30,0.00,,SKC,0.00,VWS V14.01,2013-04-14 20:12:00,
2013-04-14 14:13:00,35.3,7.7,29.89,WSW,256,20.0,26.0,31,0.00,,SKC,0.00,VWS V14.01,2013-04-14 20:13:00,
2013-04-14 14:14:00,35.2,5.4,29.89,West,277,16.0,20.0,28,0.00,,SKC,0.00,VWS V14.01,2013-04-14 20:14:00,
2013-04-14 14:15:00,35.2,6.9,29.88,North,360,10.0,27.0,30,0.00,,SKC,0.00,VWS V14.01,2013-04-14 20:15:00,
2013-04-14 14:16:00,35.2,6.9,29.88,North,360,10.0,27.0,30,0.00,,SKC,0.00,VWS V14.01,2013-04-14 20:16:00,
2013-04-14 14:17:00,35.4,7.8,29.88,SW,219,14.0,16.0,31,0.00,,SKC,0.00,VWS V14.01,2013-04-14 20:17:00,
2013-04-14 14:18:00,35.5,7.2,29.88,SSW,212,16.0,17.0,30,0.00,,SKC,0.00,VWS V14.01,2013-04-14 20:18:00,
2013-04-14 14:19:00,35.4,6.3,29.89,SW,227,10.0,18.0,29,0.00,,SKC,0.00,VWS V14.01,2013-04-14 20:19:00,
2013-04-14 14:20:00,35.3,7.0,29.89,SW,218,13.0,13.0,30,0.00,,SKC,0.00,VWS V14.01,2013-04-14 20:20:00,
2013-04-14 14:21:00,35.3,7.0,29.89,SW,218,13.0,13.0,30,0.00,,SKC,0.00,VWS V14.01,2013-04-14 20:21:00,
2013-04-14 14:22:00,35.4,7.8,29.89,West,269,13.0,21.0,31,0.00,,SKC,0.00,VWS V14.01,2013-04-14 20:22:00,
2013-04-14 14:23:00,35.4,7.8,29.89,West,259,9.0,18.0,31,0.00,,SKC,0.00,VWS V14.01,2013-04-14 20:23:00,
2013-04-14 14:24:00,35.5,7.9,29.89,West,277,17.0,17.0,31,0.00,,SKC,0.00,VWS V14.01,2013-04-14 20:24:00,
2013-04-14 14:25:00,35.5,6.4,29.89,WNW,302,14.0,27.0,29,0.00,,SKC,0.00,VWS V14.01,2013-04-14 20:25:00,
2013-04-14 14:26:00,35.5,6.4,29.89,WNW,302,14.0,27.0,29,0.00,,SKC,0.00,VWS V14.01,2013-04-14 20:26:00,
2013-04-14 14:27:00,35.7,8.8,29.90,SW,223,13.0,32.0,32,0.00,,SKC,0.00,VWS V14.01,2013-04-14 20:27:00,
2013-04-14 14:28:00,35.7,6.6,29.89,WNW,292,16.0,20.0,29,0.00,,SKC,0.00,VWS V14.01,2013-04-14 20:28:00,
2013-04-14 14:29:00,35.7,8.1,29.89,WSW,258,16.0,29.0,31,0.00,,SKC,0.00,VWS V14.01,2013-04-14 20:29:00,
2013-04-14 14:30:00,35.6,8.7,29.89,WNW,284,18.0,22.0,32,0.00,,SKC,0.00,VWS V14.01,2013-04-14 20:30:00,
2013-04-14 14:31:00,35.6,8.7,29.89,WNW,284,18.0,22.0,32,0.00,,SKC,0.00,VWS V14.01,2013-04-14 20:31:00,
2013-04-14 14:32:00,35.6,6.5,29.90,WNW,291,16.0,33.0,29,0.00,,SKC,0.00,VWS V14.01,2013-04-14 20:32:00,
2013-04-14 14:33:00,35.5,7.9,29.90,South,186,15.0,21.0,31,0.00,,SKC,0.00,VWS V14.01,2013-04-14 20:33:00,
2013-04-14 14:34:00,35.3,4.7,29.90,WSW,252,12.0,17.0,27,0.00,,SKC,0.00,VWS V14.01,2013-04-14 20:34:00,
2013-04-14 14:35:00,35.0,4.4,29.90,SSW,192,16.0,16.0,27,0.00,,SKC,0.00,VWS V14.01,2013-04-14 20:35:00,
2013-04-14 14:36:00,35.0,4.4,29.90,SSW,192,16.0,16.0,27,0.00,,SKC,0.00,VWS V14.01,2013-04-14 20:36:00,
2013-04-14 14:37:00,34.9,7.3,29.91,West,267,20.0,26.0,31,0.00,,SKC,0.00,VWS V14.01,2013-04-14 20:37:00,
2013-04-14 14:38:00,35.0,7.4,29.90,West,263,17.0,20.0,31,0.00,,SKC,0.00,VWS V14.01,2013-04-14 20:38:00,
2013-04-14 14:39:00,35.1,6.8,29.90,North,360,19.0,28.0,30,0.00,,SKC,0.00,VWS V14.01,2013-04-14 20:39:00,
2013-04-14 14:40:00,35.2,7.6,29.90,North,360,15.0,19.0,31,0.00,,SKC,0.00,VWS V14.01,2013-04-14 20:40:00,
2013-04-14 14:41:00,35.2,7.6,29.90,North,360,15.0,19.0,31,0.00,,SKC,0.00,VWS V14.01,2013-04-14 20:41:00,
2013-04-14 14:42:00,35.2,6.1,29.90,North,360,10.0,15.0,29,0.00,,SKC,0.00,VWS V14.01,2013-04-14 20:42:00,
2013-04-14 14:43:00,35.3,7.7,29.90,WSW,240,17.0,18.0,31,0.00,,SKC,0.00,VWS V14.01,2013-04-14 20:43:00,
2013-04-14 14:44:00,35.4,7.1,29.90,WSW,242,13.0,23.0,30,0.00,,SKC,0.00,VWS V14.01,2013-04-14 20:44:00,
2013-04-14 14:45:00,35.5,6.4,29.90,North,360,33.0,33.0,29,0.00,,SKC,0.00,VWS V14.01,2013-04-14 20:45:00,
2013-04-14 14:46:00,35.5,6.4,29.90,North,360,33.0,33.0,29,0.00,,SKC,0.00,VWS V14.01,2013-04-14 20:46:00,
2013-04-14 14:47:00,35.3,4.7,29.90,North,360,25.0,33.0,27,0.00,,SKC,0.00,VWS V14.01,2013-04-14 20:47:00,
2013-04-14 14:48:00,35.0,6.0,29.90,West,267,18.0,25.0,29,0.00,,SKC,0.00,VWS V14.01,2013-04-14 20:48:00,
2013-04-14 14:49:00,35.0,6.7,29.90,SW,218,14.0,18.0,30,0.00,,SKC,0.00,VWS V14.01,2013-04-14 20:49:00,
2013-04-14 14:50:00,35.0,5.2,29.90,West,275,18.0,23.0,28,0.00,,SKC,0.00,VWS V14.01,2013-04-14 20:50:00,
2013-04-14 14:51:00,35.0,7.4,29.91,West,265,18.0,19.0,31,0.00,,SKC,0.00,VWS V14.01,2013-04-14 20:51:00,
2013-04-14 14:52:00,35.0,7.4,29.91,West,265,18.0,19.0,31,0.00,,SKC,0.00,VWS V14.01,2013-04-14 20:52:00,
2013-04-14 14:53:00,35.1,6.8,29.90,WSW,258,19.0,24.0,30,0.00,,SKC,0.00,VWS V14.01,2013-04-14 20:53:00,
2013-04-14 14:54:00,35.2,6.9,29.90,North,360,16.0,21.0,30,0.00,,SKC,0.00,VWS V14.01,2013-04-14 20:54:00,
2013-04-14 14:55:00,35.4,7.1,29.91,SSW,213,13.0,21.0,30,0.00,,SKC,0.00,VWS V14.01,2013-04-14 20:55:00,
2013-04-14 14:56:00,35.5,7.2,29.91,SW,233,15.0,18.0,30,0.00,,SKC,0.00,VWS V14.01,2013-04-14 20:56:00,
2013-04-14 14:57:00,35.5,7.2,29.91,SW,233,15.0,18.0,30,0.00,,SKC,0.00,VWS V14.01,2013-04-14 20:57:00,
2013-04-14 14:58:00,35.4,7.1,29.91,SW,223,16.0,21.0,30,0.00,,SKC,0.00,VWS V14.01,2013-04-14 20:58:00,
2013-04-14 14:59:00,35.3,7.0,29.90,WSW,248,14.0,26.0,30,0.00,,SKC,0.00,VWS V14.01,2013-04-14 20:59:00,
2013-04-14 15:00:00,35.2,6.1,29.90,SSW,197,19.0,19.0,29,0.00,,SKC,0.00,VWS V14.01,2013-04-14 21:00:00,
2013-04-14 15:01:00,35.0,6.7,29.90,SSW,192,21.0,28.0,30,0.00,,SKC,0.00,VWS V14.01,2013-04-14 21:01:00,
2013-04-14 15:02:00,35.0,6.7,29.90,SSW,192,21.0,28.0,30,0.00,,SKC,0.00,VWS V14.01,2013-04-14 21:02:00,
2013-04-14 15:03:00,34.8,5.0,29.90,SSW,193,10.0,17.0,28,0.00,,SKC,0.00,VWS V14.01,2013-04-14 21:03:00,
2013-04-14 15:04:00,34.8,7.3,29.90,WSW,254,7.0,19.0,31,0.00,,SKC,0.00,VWS V14.01,2013-04-14 21:04:00,
2013-04-14 15:05:00,34.8,8.6,29.90,WSW,246,10.0,14.0,33,0.00,,SKC,0.00,VWS V14.01,2013-04-14 21:05:00,
2013-04-14 15:06:00,35.0,7.4,29.91,SW,234,11.0,24.0,31,0.00,,SKC,0.00,VWS V14.01,2013-04-14 21:06:00,
2013-04-14 15:07:00,34.9,6.6,29.91,WSW,257,12.0,15.0,30,0.00,,SKC,0.00,VWS V14.01,2013-04-14 21:07:00,
2013-04-14 15:08:00,34.9,6.6,29.91,WSW,257,12.0,15.0,30,0.00,,SKC,0.00,VWS V14.01,2013-04-14 21:08:00,
2013-04-14 15:09:00,34.8,8.0,29.90,SSW,202,14.0,22.0,32,0.00,,SKC,0.00,VWS V14.01,2013-04-14 21:09:00,
2013-04-14 15:10:00,34.7,6.4,29.90,SSW,204,16.0,18.0,30,0.00,,SKC,0.00,VWS V14.01,2013-04-14 21:10:00,
2013-04-14 15:11:00,34.5,6.3,29.90,WSW,254,20.0,25.0,30,0.00,,SKC,0.00,VWS V14.01,2013-04-14 21:11:00,
2013-04-14 15:12:00,34.4,6.9,29.91,WSW,243,11.0,20.0,31,0.00,,SKC,0.00,VWS V14.01,2013-04-14 21:12:00,
2013-04-14 15:13:00,34.4,6.9,29.91,WSW,243,11.0,20.0,31,0.00,,SKC,0.00,VWS V14.01,2013-04-14 21:13:00,
2013-04-14 15:14:00,34.3,6.8,29.91,WNW,283,9.0,20.0,31,0.00,,SKC,0.00,VWS V14.01,2013-04-14 21:14:00,
2013-04-14 15:15:00,34.3,8.2,29.91,WSW,240,9.0,13.0,33,0.00,,SKC,0.00,VWS V14.01,2013-04-14 21:15:00,
2013-04-14 15:16:00,34.4,8.3,29.91,North,360,9.0,14.0,33,0.00,,SKC,0.00,VWS V14.01,2013-04-14 21:16:00,
2013-04-14 15:17:00,34.4,7.6,29.91,SW,219,17.0,19.0,32,0.00,,SKC,0.00,VWS V14.01,2013-04-14 21:17:00,
2013-04-14 15:18:00,34.4,7.6,29.91,SW,219,17.0,19.0,32,0.00,,SKC,0.00,VWS V14.01,2013-04-14 21:18:00,
2013-04-14 15:19:00,34.4,7.6,29.91,North,360,12.0,23.0,32,0.00,,SKC,0.00,VWS V14.01,2013-04-14 21:19:00,
2013-04-14 15:20:00,34.6,8.5,29.91,WSW,255,16.0,19.0,33,0.00,,SKC,0.00,VWS V14.01,2013-04-14 21:20:00,
2013-04-14 15:21:00,34.8,8.6,29.91,SSW,195,21.0,22.0,33,0.00,,SKC,0.00,VWS V14.01,2013-04-14 21:21:00,
2013-04-14 15:22:00,34.7,6.4,29.91,SW,215,14.0,21.0,30,0.00,,SKC,0.00,VWS V14.01,2013-04-14 21:22:00,
2013-04-14 15:23:00,34.6,7.1,29.91,SW,215,15.0,15.0,31,0.00,,SKC,0.00,VWS V14.01,2013-04-14 21:23:00,
2013-04-14 15:24:00,34.6,7.1,29.91,SW,215,15.0,15.0,31,0.00,,SKC,0.00,VWS V14.01,2013-04-14 21:24:00,
2013-04-14 15:25:00,34.5,7.7,29.91,South,180,19.0,28.0,32,0.00,,SKC,0.00,VWS V14.01,2013-04-14 21:25:00,
2013-04-14 15:26:00,34.4,6.9,29.90,North,360,17.0,22.0,31,0.00,,SKC,0.00,VWS V14.01,2013-04-14 21:26:00,
2013-04-14 15:27:00,34.4,6.9,29.92,SW,216,15.0,29.0,31,0.00,,SKC,0.00,VWS V14.01,2013-04-14 21:27:00,
2013-04-14 15:28:00,34.0,6.6,29.90,SW,229,26.0,38.0,31,0.00,,SKC,0.00,VWS V14.01,2013-04-14 21:28:00,
2013-04-14 15:29:00,34.0,6.6,29.90,SW,229,26.0,38.0,31,0.00,,SKC,0.00,VWS V14.01,2013-04-14 21:29:00,
2013-04-14 15:30:00,33.8,6.4,29.91,West,265,23.0,23.0,31,0.00,,SKC,0.00,VWS V14.01,2013-04-14 21:30:00,
2013-04-14 15:31:00,33.8,7.1,29.91,WSW,240,27.0,33.0,32,0.00,,SKC,0.00,VWS V14.01,2013-04-14 21:31:00,
2013-04-14 15:32:00,34.0,7.9,29.92,WNW,283,4.0,27.0,33,0.00,,SKC,0.00,VWS V14.01,2013-04-14 21:32:00,
2013-04-14 15:33:00,34.0,7.3,29.91,North,360,21.0,21.0,32,0.00,,SKC,0.00,VWS V14.01,2013-04-14 21:33:00,
2013-04-14 15:34:00,34.0,7.3,29.91,North,360,21.0,21.0,32,0.00,,SKC,0.00,VWS V14.01,2013-04-14 21:34:00,
2013-04-14 15:35:00,34.2,7.4,29.90,WNW,285,15.0,24.0,32,0.00,,SKC,0.00,VWS V14.01,2013-04-14 21:35:00,
2013-04-14 15:36:00,34.4,7.6,29.91,NW,308,20.0,24.0,32,0.00,,SKC,0.00,VWS V14.01,2013-04-14 21:36:00,
2013-04-14 15:37:00,34.4,8.3,29.92,WSW,256,16.0,41.0,33,0.00,,SKC,0.00,VWS V14.01,2013-04-14 21:37:00,
2013-04-14 15:38:00,34.4,6.9,29.92,North,360,17.0,34.0,31,0.00,,SKC,0.00,VWS V14.01,2013-04-14 21:38:00,
2013-04-14 15:39:00,34.4,6.9,29.92,WSW,248,12.0,27.0,31,0.00,,SKC,0.00,VWS V14.01,2013-04-14 21:39:00,
2013-04-14 15:40:00,34.4,6.9,29.92,WSW,248,12.0,27.0,31,0.00,,SKC,0.00,VWS V14.01,2013-04-14 21:40:00,
2013-04-14 15:41:00,34.4,8.3,29.91,South,191,9.0,11.0,33,0.00,,SKC,0.00,VWS V14.01,2013-04-14 21:41:00,
2013-04-14 15:42:00,34.5,7.7,29.91,West,265,5.0,11.0,32,0.00,,SKC,0.00,VWS V14.01,2013-04-14 21:42:00,
2013-04-14 15:43:00,34.7,7.9,29.91,SSW,204,14.0,14.0,32,0.00,,SKC,0.00,VWS V14.01,2013-04-14 21:43:00,
2013-04-14 15:44:00,34.9,8.1,29.91,SSW,202,11.0,14.0,32,0.00,,SKC,0.00,VWS V14.01,2013-04-14 21:44:00,
2013-04-14 15:45:00,34.9,8.1,29.91,SSW,202,11.0,14.0,32,0.00,,SKC,0.00,VWS V14.01,2013-04-14 21:45:00,
2013-04-14 15:46:00,35.2,8.3,29.91,WNW,290,15.0,20.0,32,0.00,,SKC,0.00,VWS V14.01,2013-04-14 21:46:00,
2013-04-14 15:47:00,35.3,9.1,29.92,North,360,16.0,19.0,33,0.00,,SKC,0.00,VWS V14.01,2013-04-14 21:47:00,
2013-04-14 15:48:00,35.5,8.6,29.92,WNW,286,19.0,24.0,32,0.00,,SKC,0.00,VWS V14.01,2013-04-14 21:48:00,
2013-04-14 15:49:00,35.6,7.2,29.91,SW,231,20.0,28.0,30,0.00,,SKC,0.00,VWS V14.01,2013-04-14 21:49:00,
2013-04-14 15:50:00,35.6,7.2,29.91,SW,231,20.0,28.0,30,0.00,,SKC,0.00,VWS V14.01,2013-04-14 21:50:00,
2013-04-14 15:51:00,35.5,7.2,29.92,WSW,255,15.0,17.0,30,0.00,,SKC,0.00,VWS V14.01,2013-04-14 21:51:00,
2013-04-14 15:52:00,35.5,7.9,29.92,SSW,203,18.0,24.0,31,0.00,,SKC,0.00,VWS V14.01,2013-04-14 21:52:00,
2013-04-14 15:53:00,35.5,7.9,29.91,WSW,257,26.0,26.0,31,0.00,,SKC,0.00,VWS V14.01,2013-04-14 21:53:00,
2013-04-14 15:54:00,35.5,7.2,29.91,South,190,21.0,29.0,30,0.00,,SKC,0.00,VWS V14.01,2013-04-14 21:54:00,
2013-04-14 15:55:00,35.5,7.2,29.91,South,190,21.0,29.0,30,0.00,,SKC,0.00,VWS V14.01,2013-04-14 21:55:00,
2013-04-14 15:56:00,35.4,7.8,29.91,SW,214,11.0,21.0,31,0.00,,SKC,0.00,VWS V14.01,2013-04-14 21:56:00,
2013-04-14 15:57:00,35.5,7.2,29.91,WSW,242,14.0,14.0,30,0.00,,SKC,0.00,VWS V14.01,2013-04-14 21:57:00,
2013-04-14 15:58:00,35.5,7.2,29.91,SSW,200,21.0,28.0,30,0.00,,SKC,0.00,VWS V14.01,2013-04-14 21:58:00,
2013-04-14 15:59:00,35.5,6.4,29.91,North,360,13.0,21.0,29,0.00,,SKC,0.00,VWS V14.01,2013-04-14 21:59:00,
2013-04-14 16:00:00,35.3,6.2,29.92,North,360,9.0,11.0,29,0.00,,SKC,0.00,VWS V14.01,2013-04-14 22:00:00,
2013-04-14 16:01:00,35.3,6.2,29.92,North,360,9.0,11.0,29,0.00,,SKC,0.00,VWS V14.01,2013-04-14 22:01:00,
2013-04-14 16:02:00,35.3,7.7,29.92,WSW,242,9.0,21.0,31,0.00,,SKC,0.00,VWS V14.01,2013-04-14 22:02:00,
2013-04-14 16:03:00,35.3,7.7,29.92,West,267,16.0,23.0,31,0.00,,SKC,0.00,VWS V14.01,2013-04-14 22:03:00,
2013-04-14 16:04:00,35.4,8.5,29.92,West,273,18.0,27.0,32,0.00,,SKC,0.00,VWS V14.01,2013-04-14 22:04:00,
2013-04-14 16:06:00,35.5,9.3,29.92,SW,230,16.0,17.0,33,0.00,,SKC,0.00,VWS V14.01,2013-04-14 22:06:00,
2013-04-14 16:07:00,35.5,9.3,29.92,SW,230,16.0,17.0,33,0.00,,SKC,0.00,VWS V14.01,2013-04-14 22:07:00,
2013-04-14 16:08:00,35.6,8.7,29.91,SSW,192,15.0,22.0,32,0.00,,SKC,0.00,VWS V14.01,2013-04-14 22:08:00,
2013-04-14 16:09:00,35.6,7.2,29.91,SSW,213,11.0,18.0,30,0.00,,SKC,0.00,VWS V14.01,2013-04-14 22:09:00,
2013-04-14 16:10:00,35.5,7.2,29.92,WNW,288,13.0,18.0,30,0.00,,SKC,0.00,VWS V14.01,2013-04-14 22:10:00,
2013-04-14 16:11:00,35.5,7.9,29.92,WNW,299,18.0,26.0,31,0.00,,SKC,0.00,VWS V14.01,2013-04-14 22:11:00,
2013-04-14 16:12:00,35.4,7.8,29.92,NW,315,10.0,26.0,31,0.00,,SKC,0.00,VWS V14.01,2013-04-14 22:12:00,
2013-04-14 16:13:00,35.4,7.8,29.92,NW,315,10.0,26.0,31,0.00,,SKC,0.00,VWS V14.01,2013-04-14 22:13:00,
2013-04-14 16:14:00,35.3,8.4,29.92,SSW,206,12.0,21.0,32,0.00,,SKC,0.00,VWS V14.01,2013-04-14 22:14:00,
2013-04-14 16:15:00,35.3,7.7,29.92,SW,229,17.0,17.0,31,0.00,,SKC,0.00,VWS V14.01,2013-04-14 22:15:00,
2013-04-14 16:16:00,35.3,8.4,29.92,WNW,290,4.0,17.0,32,0.00,,SKC,0.00,VWS V14.01,2013-04-14 22:16:00,
2013-04-14 16:17:00,35.4,8.5,29.92,WNW,286,14.0,16.0,32,0.00,,SKC,0.00,VWS V14.01,2013-04-14 22:17:00,
2013-04-14 16:18:00,35.4,8.5,29.92,WNW,286,14.0,16.0,32,0.00,,SKC,0.00,VWS V14.01,2013-04-14 22:18:00,
2013-04-14 16:19:00,35.6,8.7,29.92,WNW,298,12.0,17.0,32,0.00,,SKC,0.00,VWS V14.01,2013-04-14 22:19:00,
2013-04-14 16:20:00,35.7,8.1,29.92,NW,307,2.0,12.0,31,0.00,,SKC,0.00,VWS V14.01,2013-04-14 22:20:00,
2013-04-14 16:21:00,35.9,10.9,29.91,SW,221,10.0,14.0,35,0.00,,SKC,0.00,VWS V14.01,2013-04-14 22:21:00,
2013-04-14 16:22:00,36.1,9.1,29.91,SSW,192,25.0,25.0,32,0.00,,SKC,0.00,VWS V14.01,2013-04-14 22:22:00,
2013-04-14 16:23:00,36.1,9.1,29.91,SSW,192,25.0,25.0,32,0.00,,SKC,0.00,VWS V14.01,2013-04-14 22:23:00,
2013-04-14 16:24:00,36.1,6.9,29.91,West,259,15.0,19.0,29,0.00,,SKC,0.00,VWS V14.01,2013-04-14 22:24:00,
2013-04-14 16:25:00,36.1,10.5,29.92,SSW,196,9.0,15.0,34,0.00,,SKC,0.00,VWS V14.01,2013-04-14 22:25:00,
2013-04-14 16:26:00,36.2,8.5,29.92,WNW,282,21.0,21.0,31,0.00,,SKC,0.00,VWS V14.01,2013-04-14 22:26:00,
2013-04-14 16:27:00,36.1,8.4,29.92,West,263,21.0,24.0,31,0.00,,SKC,0.00,VWS V14.01,2013-04-14 22:27:00,
2013-04-14 16:28:00,36.1,8.4,29.92,West,263,21.0,24.0,31,0.00,,SKC,0.00,VWS V14.01,2013-04-14 22:28:00,
2013-04-14 16:29:00,35.8,8.1,29.92,WNW,294,17.0,18.0,31,0.00,,SKC,0.00,VWS V14.01,2013-04-14 22:29:00,
2013-04-14 16:30:00,35.7,8.8,29.92,WNW,302,26.0,30.0,32,0.00,,SKC,0.00,VWS V14.01,2013-04-14 22:30:00,
2013-04-14 16:31:00,35.7,8.1,29.92,North,360,22.0,26.0,31,0.00,,SKC,0.00,VWS V14.01,2013-04-14 22:31:00,
2013-04-14 16:32:00,35.6,8.7,29.92,West,277,25.0,31.0,32,0.00,,SKC,0.00,VWS V14.01,2013-04-14 22:32:00,
2013-04-14 16:33:00,35.6,8.7,29.92,West,277,25.0,31.0,32,0.00,,SKC,0.00,VWS V14.01,2013-04-14 22:33:00,
2013-04-14 16:34:00,35.6,8.7,29.92,North,360,13.0,17.0,32,0.00,,SKC,0.00,VWS V14.01,2013-04-14 22:34:00,
2013-04-14 16:35:00,35.6,8.0,29.92,SW,221,12.0,15.0,31,0.00,,SKC,0.00,VWS V14.01,2013-04-14 22:35:00,
2013-04-14 16:36:00,35.6,8.0,29.92,West,268,6.0,15.0,31,0.00,,SKC,0.00,VWS V14.01,2013-04-14 22:36:00,
2013-04-14 16:37:00,35.6,8.0,29.92,SW,217,9.0,12.0,31,0.00,,SKC,0.00,VWS V14.01,2013-04-14 22:37:00,
2013-04-14 16:38:00,35.6,8.0,29.92,SW,217,9.0,12.0,31,0.00,,SKC,0.00,VWS V14.01,2013-04-14 22:38:00,
2013-04-14 16:39:00,35.5,7.9,29.91,WSW,246,12.0,13.0,31,0.00,,SKC,0.00,VWS V14.01,2013-04-14 22:39:00,
2013-04-14 16:40:00,35.5,7.9,29.92,West,263,14.0,17.0,31,0.00,,SKC,0.00,VWS V14.01,2013-04-14 22:40:00,
2013-04-14 16:41:00,35.5,8.6,29.92,WSW,237,15.0,20.0,32,0.00,,SKC,0.00,VWS V14.01,2013-04-14 22:41:00,
2013-04-14 16:42:00,35.4,8.5,29.92,WSW,243,12.0,16.0,32,0.00,,SKC,0.00,VWS V14.01,2013-04-14 22:42:00,
2013-04-14 16:43:00,35.4,8.5,29.92,WSW,243,12.0,16.0,32,0.00,,SKC,0.00,VWS V14.01,2013-04-14 22:43:00,
2013-04-14 16:44:00,35.2,7.6,29.92,WSW,238,7.0,14.0,31,0.00,,SKC,0.00,VWS V14.01,2013-04-14 22:44:00,
2013-04-14 16:45:00,35.1,8.2,29.92,West,262,9.0,11.0,32,0.00,,SKC,0.00,VWS V14.01,2013-04-14 22:45:00,
2013-04-14 16:46:00,35.1,8.2,29.92,West,262,4.0,12.0,32,0.00,,SKC,0.00,VWS V14.01,2013-04-14 22:46:00,
2013-04-14 16:47:00,35.2,9.0,29.92,WNW,286,5.0,9.0,33,0.00,,SKC,0.00,VWS V14.01,2013-04-14 22:47:00,
2013-04-14 16:48:00,35.2,9.0,29.92,WNW,286,5.0,9.0,33,0.00,,SKC,0.00,VWS V14.01,2013-04-14 22:48:00,
2013-04-14 16:49:00,35.4,9.8,29.92,West,271,12.0,15.0,34,0.00,,SKC,0.00,VWS V14.01,2013-04-14 22:49:00,
2013-04-14 16:50:00,35.5,9.3,29.92,WSW,257,9.0,14.0,33,0.00,,SKC,0.00,VWS V14.01,2013-04-14 22:50:00,
2013-04-14 16:51:00,35.5,7.9,29.92,SW,225,10.0,11.0,31,0.00,,SKC,0.00,VWS V14.01,2013-04-14 22:51:00,
2013-04-14 16:52:00,35.5,7.9,29.92,WSW,251,7.0,16.0,31,0.00,,SKC,0.00,VWS V14.01,2013-04-14 22:52:00,
2013-04-14 16:53:00,35.5,7.9,29.92,WSW,251,7.0,16.0,31,0.00,,SKC,0.00,VWS V14.01,2013-04-14 22:53:00,
2013-04-14 16:54:00,35.5,8.6,29.92,SSW,194,13.0,19.0,32,0.00,,SKC,0.00,VWS V14.01,2013-04-14 22:54:00,
2013-04-14 16:55:00,35.4,9.2,29.92,South,186,14.0,14.0,33,0.00,,SKC,0.00,VWS V14.01,2013-04-14 22:55:00,
2013-04-14 16:56:00,35.4,8.5,29.91,SSW,207,10.0,16.0,32,0.00,,SKC,0.00,VWS V14.01,2013-04-14 22:56:00,
2013-04-14 16:57:00,35.4,9.2,29.92,WSW,258,2.0,10.0,33,0.00,,SKC,0.00,VWS V14.01,2013-04-14 22:57:00,
2013-04-14 16:58:00,35.4,9.2,29.92,WSW,258,2.0,10.0,33,0.00,,SKC,0.00,VWS V14.01,2013-04-14 22:58:00,
2013-04-14 16:59:00,35.2,9.0,29.92,WSW,256,4.0,11.0,33,0.00,,SKC,0.00,VWS V14.01,2013-04-14 22:59:00,
2013-04-14 17:00:00,35.1,8.2,29.92,WSW,252,11.0,16.0,32,0.00,,SKC,0.00,VWS V14.01,2013-04-14 23:00:00,
2013-04-14 17:01:00,35.0,8.8,29.92,SW,234,9.0,13.0,33,0.00,,SKC,0.00,VWS V14.01,2013-04-14 23:01:00,
2013-04-14 17:02:00,34.9,8.7,29.92,SSW,209,7.0,10.0,33,0.00,,SKC,0.00,VWS V14.01,2013-04-14 23:02:00,
2013-04-14 17:03:00,34.9,8.7,29.92,SSW,209,7.0,10.0,33,0.00,,SKC,0.00,VWS V14.01,2013-04-14 23:03:00,
2013-04-14 17:04:00,34.7,8.6,29.92,SW,223,13.0,14.0,33,0.00,,SKC,0.00,VWS V14.01,2013-04-14 23:04:00,
2013-04-14 17:05:00,34.6,8.5,29.92,West,271,14.0,18.0,33,0.00,,SKC,0.00,VWS V14.01,2013-04-14 23:05:00,
2013-04-14 17:06:00,34.5,9.7,29.92,SSW,196,8.0,14.0,35,0.00,,SKC,0.00,VWS V14.01,2013-04-14 23:06:00,
2013-04-14 17:07:00,34.4,8.3,29.92,SSW,198,9.0,13.0,33,0.00,,SKC,0.00,VWS V14.01,2013-04-14 23:07:00,
2013-04-14 17:08:00,34.4,8.3,29.92,SSW,198,9.0,13.0,33,0.00,,SKC,0.00,VWS V14.01,2013-04-14 23:08:00,
2013-04-14 17:09:00,34.4,8.9,29.92,SSW,208,11.0,15.0,34,0.00,,SKC,0.00,VWS V14.01,2013-04-14 23:09:00,
2013-04-14 17:10:00,34.4,8.9,29.92,SSW,205,11.0,16.0,34,0.00,,SKC,0.00,VWS V14.01,2013-04-14 23:10:00,
2013-04-14 17:11:00,34.4,8.3,29.92,SSW,202,7.0,13.0,33,0.00,,SKC,0.00,VWS V14.01,2013-04-14 23:11:00,
2013-04-14 17:12:00,34.4,8.9,29.92,South,190,11.0,13.0,34,0.00,,SKC,0.00,VWS V14.01,2013-04-14 23:12:00,
2013-04-14 17:13:00,34.4,8.9,29.92,South,190,11.0,13.0,34,0.00,,SKC,0.00,VWS V14.01,2013-04-14 23:13:00,
2013-04-14 17:14:00,34.4,8.9,29.92,SSW,192,12.0,17.0,34,0.00,,SKC,0.00,VWS V14.01,2013-04-14 23:14:00,
2013-04-14 17:15:00,34.4,8.9,29.92,WSW,241,18.0,18.0,34,0.00,,SKC,0.00,VWS V14.01,2013-04-14 23:15:00,
2013-04-14 17:16:00,34.4,8.9,29.92,SW,231,11.0,18.0,34,0.00,,SKC,0.00,VWS V14.01,2013-04-14 23:16:00,
2013-04-14 17:17:00,34.4,8.9,29.92,WNW,284,14.0,18.0,34,0.00,,SKC,0.00,VWS V14.01,2013-04-14 23:17:00,
2013-04-14 17:18:00,34.4,8.9,29.92,WNW,284,14.0,18.0,34,0.00,,SKC,0.00,VWS V14.01,2013-04-14 23:18:00,
2013-04-14 17:19:00,34.4,9.6,29.92,West,277,11.0,18.0,35,0.00,,SKC,0.00,VWS V14.01,2013-04-14 23:19:00,
2013-04-14 17:20:00,34.4,10.2,29.92,SSW,198,10.0,12.0,36,0.00,,SKC,0.00,VWS V14.01,2013-04-14 23:20:00,
2013-04-14 17:21:00,34.5,10.3,29.92,SW,236,9.0,12.0,36,0.00,,SKC,0.00,VWS V14.01,2013-04-14 23:21:00,
2013-04-14 17:22:00,34.6,9.8,29.92,West,269,10.0,13.0,35,0.00,,SKC,0.00,VWS V14.01,2013-04-14 23:22:00,
2013-04-14 17:23:00,34.6,9.8,29.92,West,269,10.0,13.0,35,0.00,,SKC,0.00,VWS V14.01,2013-04-14 23:23:00,
2013-04-14 17:24:00,34.7,9.9,29.93,WNW,287,13.0,23.0,35,0.00,,SKC,0.00,VWS V14.01,2013-04-14 23:24:00,
2013-04-14 17:25:00,34.7,9.9,29.93,West,277,9.0,15.0,35,0.00,,SKC,0.00,VWS V14.01,2013-04-14 23:25:00,
2013-04-14 17:26:00,34.7,10.5,29.93,WNW,298,10.0,13.0,36,0.00,,SKC,0.00,VWS V14.01,2013-04-14 23:26:00,
2013-04-14 17:27:00,34.8,10.6,29.93,North,360,12.0,14.0,36,0.00,,SKC,0.00,VWS V14.01,2013-04-14 23:27:00,
2013-04-14 17:28:00,34.8,10.6,29.93,North,360,12.0,14.0,36,0.00,,SKC,0.00,VWS V14.01,2013-04-14 23:28:00,
2013-04-14 17:29:00,35.1,11.5,29.93,SSW,194,4.0,7.0,37,0.00,,SKC,0.00,VWS V14.01,2013-04-14 23:29:00,
2013-04-14 17:30:00,35.2,10.9,29.92,North,360,2.0,6.0,36,0.00,,SKC,0.00,VWS V14.01,2013-04-14 23:30:00,
2013-04-14 17:31:00,35.3,10.4,29.92,SSW,195,3.0,3.0,35,0.00,,SKC,0.00,VWS V14.01,2013-04-14 23:31:00,
2013-04-14 17:32:00,35.4,10.5,29.92,West,274,6.0,6.0,35,0.00,,SKC,0.00,VWS V14.01,2013-04-14 23:32:00,
2013-04-14 17:33:00,35.4,10.5,29.92,West,274,6.0,6.0,35,0.00,,SKC,0.00,VWS V14.01,2013-04-14 23:33:00,
2013-04-14 17:34:00,35.7,10.1,29.92,North,360,4.0,6.0,34,0.00,,SKC,0.00,VWS V14.01,2013-04-14 23:34:00,
2013-04-14 17:35:00,35.8,10.2,29.92,WSW,245,8.0,8.0,34,0.00,,SKC,0.00,VWS V14.01,2013-04-14 23:35:00,
2013-04-14 17:36:00,35.9,9.6,29.92,SW,223,5.0,10.0,33,0.00,,SKC,0.00,VWS V14.01,2013-04-14 23:36:00,
2013-04-14 17:37:00,35.9,9.6,29.92,SW,223,10.0,11.0,33,0.00,,SKC,0.00,VWS V14.01,2013-04-14 23:37:00,
2013-04-14 17:38:00,35.9,9.6,29.92,SW,223,10.0,11.0,33,0.00,,SKC,0.00,VWS V14.01,2013-04-14 23:38:00,
2013-04-14 17:39:00,35.9,10.3,29.92,WSW,251,5.0,12.0,34,0.00,,SKC,0.00,VWS V14.01,2013-04-14 23:39:00,
2013-04-14 17:40:00,35.8,10.2,29.92,North,360,4.0,10.0,34,0.00,,SKC,0.00,VWS V14.01,2013-04-14 23:40:00,
2013-04-14 17:41:00,35.8,9.5,29.92,WSW,257,1.0,5.0,33,0.00,,SKC,0.00,VWS V14.01,2013-04-14 23:41:00,
2013-04-14 17:42:00,35.7,9.4,29.92,SW,229,3.0,4.0,33,0.00,,SKC,0.00,VWS V14.01,2013-04-14 23:42:00,
2013-04-14 17:43:00,35.7,10.1,29.91,North,360,4.0,4.0,34,0.00,,SKC,0.00,VWS V14.01,2013-04-14 23:43:00,
2013-04-14 17:44:00,35.7,10.1,29.91,North,360,4.0,4.0,34,0.00,,SKC,0.00,VWS V14.01,2013-04-14 23:44:00,
2013-04-14 17:45:00,35.7,10.1,29.92,West,268,4.0,4.0,34,0.00,,SKC,0.00,VWS V14.01,2013-04-14 23:45:00,
2013-04-14 17:46:00,35.7,10.1,29.92,WSW,250,3.0,5.0,34,0.00,,SKC,0.00,VWS V14.01,2013-04-14 23:46:00,
2013-04-14 17:47:00,35.6,10.0,29.92,WSW,249,3.0,4.0,34,0.00,,SKC,0.00,VWS V14.01,2013-04-14 23:47:00,
2013-04-14 17:48:00,35.6,10.0,29.92,SSW,194,5.0,6.0,34,0.00,,SKC,0.00,VWS V14.01,2013-04-14 23:48:00,
2013-04-14 17:49:00,35.7,10.8,29.92,SSW,209,6.0,6.0,35,0.00,,SKC,0.00,VWS V14.01,2013-04-14 23:49:00,
2013-04-14 17:50:00,35.7,10.8,29.92,SSW,209,6.0,6.0,35,0.00,,SKC,0.00,VWS V14.01,2013-04-14 23:50:00,
2013-04-14 17:51:00,35.6,10.0,29.91,SW,222,3.0,10.0,34,0.00,,SKC,0.00,VWS V14.01,2013-04-14 23:51:00,
2013-04-14 17:52:00,35.6,10.0,29.92,SW,224,0.0,3.0,34,0.00,,SKC,0.00,VWS V14.01,2013-04-14 23:52:00,
2013-04-14 17:53:00,35.6,10.0,29.91,North,360,7.0,11.0,34,0.00,,SKC,0.00,VWS V14.01,2013-04-14 23:53:00,
2013-04-14 17:54:00,35.5,9.9,29.92,West,273,3.0,7.0,34,0.00,,SKC,0.00,VWS V14.01,2013-04-14 23:54:00,
2013-04-14 17:55:00,35.5,10.6,29.92,WNW,291,1.0,4.0,35,0.00,,SKC,0.00,VWS V14.01,2013-04-14 23:55:00,
2013-04-14 17:56:00,35.5,10.6,29.92,WNW,291,1.0,4.0,35,0.00,,SKC,0.00,VWS V14.01,2013-04-14 23:56:00,
2013-04-14 17:57:00,35.5,10.6,29.92,West,261,1.0,5.0,35,0.00,,SKC,0.00,VWS V14.01,2013-04-14 23:57:00,
2013-04-14 17:58:00,35.5,9.9,29.92,West,265,4.0,4.0,34,0.00,,SKC,0.00,VWS V14.01,2013-04-14 23:58:00,
2013-04-14 17:59:00,35.5,10.6,29.92,South,176,6.0,9.0,35,0.00,,SKC,0.00,VWS V14.01,2013-04-14 23:59:00,
2013-04-14 18:00:00,35.6,10.7,29.92,South,179,12.0,12.0,35,0.00,,SKC,0.00,VWS V14.01,2013-04-15 00:00:00,
2013-04-14 18:01:00,35.6,10.7,29.92,South,179,12.0,12.0,35,0.00,,SKC,0.00,VWS V14.01,2013-04-15 00:01:00,
2013-04-14 18:02:00,35.6,10.0,29.92,North,360,6.0,8.0,34,0.00,,SKC,0.00,VWS V14.01,2013-04-15 00:02:00,
2013-04-14 18:03:00,35.7,10.8,29.92,West,277,4.0,11.0,35,0.00,,SKC,0.00,VWS V14.01,2013-04-15 00:03:00,
2013-04-14 18:04:00,35.6,10.0,29.92,WNW,293,16.0,18.0,34,0.00,,SKC,0.00,VWS V14.01,2013-04-15 00:04:00,
2013-04-14 18:05:00,35.6,9.4,29.92,WSW,238,12.0,16.0,33,0.00,,SKC,0.00,VWS V14.01,2013-04-15 00:05:00,
2013-04-14 18:06:00,35.5,9.9,29.93,North,360,24.0,25.0,34,0.00,,SKC,0.00,VWS V14.01,2013-04-15 00:06:00,
2013-04-14 18:07:00,35.5,9.3,29.93,WNW,294,23.0,24.0,33,0.00,,SKC,0.00,VWS V14.01,2013-04-15 00:07:00,
2013-04-14 18:08:00,35.5,9.3,29.93,WNW,294,23.0,24.0,33,0.00,,SKC,0.00,VWS V14.01,2013-04-15 00:08:00,
2013-04-14 18:09:00,35.3,9.8,29.92,North,360,12.0,14.0,34,0.00,,SKC,0.00,VWS V14.01,2013-04-15 00:09:00,
2013-04-14 18:10:00,35.2,9.0,29.92,WSW,238,16.0,23.0,33,0.00,,SKC,0.00,VWS V14.01,2013-04-15 00:10:00,
2013-04-14 18:11:00,35.2,9.0,29.92,WSW,244,11.0,16.0,33,0.00,,SKC,0.00,VWS V14.01,2013-04-15 00:11:00,
2013-04-14 18:12:00,35.1,8.9,29.93,WNW,288,20.0,20.0,33,0.00,,SKC,0.00,VWS V14.01,2013-04-15 00:12:00,
2013-04-14 18:13:00,35.1,8.9,29.93,WNW,288,20.0,20.0,33,0.00,,SKC,0.00,VWS V14.01,2013-04-15 00:13:00,
2013-04-14 18:14:00,35.1,8.9,29.93,WNW,286,7.0,13.0,33,0.00,,SKC,0.00,VWS V14.01,2013-04-15 00:14:00,
2013-04-14 18:15:00,35.1,9.6,29.93,WNW,302,16.0,19.0,34,0.00,,SKC,0.00,VWS V14.01,2013-04-15 00:15:00,
2013-04-14 18:16:00,35.1,8.9,29.93,WNW,287,24.0,31.0,33,0.00,,SKC,0.00,VWS V14.01,2013-04-15 00:16:00,
2013-04-14 18:17:00,35.0,9.5,29.93,West,273,17.0,25.0,34,0.00,,SKC,0.00,VWS V14.01,2013-04-15 00:17:00,
2013-04-14 18:18:00,35.0,9.5,29.93,West,263,17.0,24.0,34,0.00,,SKC,0.00,VWS V14.01,2013-04-15 00:18:00,
2013-04-14 18:19:00,35.0,9.5,29.93,West,263,17.0,24.0,34,0.00,,SKC,0.00,VWS V14.01,2013-04-15 00:19:00,
2013-04-14 18:20:00,34.9,9.4,29.93,West,274,12.0,14.0,34,0.00,,SKC,0.00,VWS V14.01,2013-04-15 00:20:00,
2013-04-14 18:21:00,34.8,8.6,29.93,WSW,256,7.0,12.0,33,0.00,,SKC,0.00,VWS V14.01,2013-04-15 00:21:00,
2013-04-14 18:22:00,34.8,9.3,29.93,WNW,285,15.0,15.0,34,0.00,,SKC,0.00,VWS V14.01,2013-04-15 00:22:00,
2013-04-14 18:23:00,34.8,8.6,29.93,North,360,7.0,15.0,33,0.00,,SKC,0.00,VWS V14.01,2013-04-15 00:23:00,
2013-04-14 18:24:00,34.8,8.6,29.93,North,360,7.0,15.0,33,0.00,,SKC,0.00,VWS V14.01,2013-04-15 00:24:00,
2013-04-14 18:25:00,34.7,9.2,29.93,West,275,18.0,18.0,34,0.00,,SKC,0.00,VWS V14.01,2013-04-15 00:25:00,
2013-04-14 18:26:00,34.7,9.2,29.93,West,278,12.0,18.0,34,0.00,,SKC,0.00,VWS V14.01,2013-04-15 00:26:00,
2013-04-14 18:27:00,34.7,9.9,29.93,SW,233,10.0,12.0,35,0.00,,SKC,0.00,VWS V14.01,2013-04-15 00:27:00,
2013-04-14 18:28:00,34.7,9.2,29.94,WSW,240,5.0,10.0,34,0.00,,SKC,0.00,VWS V14.01,2013-04-15 00:28:00,
2013-04-14 18:29:00,34.7,9.2,29.94,WSW,240,5.0,10.0,34,0.00,,SKC,0.00,VWS V14.01,2013-04-15 00:29:00,
2013-04-14 18:30:00,34.6,9.1,29.93,NNW,342,4.0,13.0,34,0.00,,SKC,0.00,VWS V14.01,2013-04-15 00:30:00,
2013-04-14 18:31:00,34.6,9.1,29.93,SSW,202,9.0,15.0,34,0.00,,SKC,0.00,VWS V14.01,2013-04-15 00:31:00,
2013-04-14 18:32:00,34.6,9.1,29.93,West,275,10.0,13.0,34,0.00,,SKC,0.00,VWS V14.01,2013-04-15 00:32:00,
2013-04-14 18:33:00,34.6,9.1,29.94,WNW,284,12.0,16.0,34,0.00,,SKC,0.00,VWS V14.01,2013-04-15 00:33:00,
2013-04-14 18:34:00,34.6,9.1,29.94,WNW,284,12.0,16.0,34,0.00,,SKC,0.00,VWS V14.01,2013-04-15 00:34:00,
2013-04-14 18:35:00,34.5,9.0,29.94,North,360,14.0,14.0,34,0.00,,SKC,0.00,VWS V14.01,2013-04-15 00:35:00,
2013-04-14 18:36:00,34.5,9.0,29.94,WSW,252,16.0,17.0,34,0.00,,SKC,0.00,VWS V14.01,2013-04-15 00:36:00,
2013-04-14 18:37:00,34.4,9.6,29.94,SSW,202,6.0,16.0,35,0.00,,SKC,0.00,VWS V14.01,2013-04-15 00:37:00,
2013-04-14 18:38:00,34.4,8.9,29.94,SSW,209,3.0,10.0,34,0.00,,SKC,0.00,VWS V14.01,2013-04-15 00:38:00,
2013-04-14 18:39:00,34.4,8.9,29.94,SSW,209,3.0,10.0,34,0.00,,SKC,0.00,VWS V14.01,2013-04-15 00:39:00,
2013-04-14 18:40:00,34.4,9.6,29.94,NW,319,0.0,5.0,35,0.00,,SKC,0.00,VWS V14.01,2013-04-15 00:40:00,
2013-04-14 18:41:00,34.4,9.6,29.94,WNW,292,6.0,7.0,35,0.00,,SKC,0.00,VWS V14.01,2013-04-15 00:41:00,
2013-04-14 18:42:00,34.4,8.9,29.94,SW,215,7.0,14.0,34,0.00,,SKC,0.00,VWS V14.01,2013-04-15 00:42:00,
2013-04-14 18:43:00,34.4,8.9,29.95,WNW,295,12.0,12.0,34,0.00,,SKC,0.00,VWS V14.01,2013-04-15 00:43:00,
2013-04-14 18:44:00,34.4,8.9,29.95,WNW,295,12.0,12.0,34,0.00,,SKC,0.00,VWS V14.01,2013-04-15 00:44:00,
2013-04-14 18:45:00,34.4,9.6,29.95,North,360,11.0,16.0,35,0.00,,SKC,0.00,VWS V14.01,2013-04-15 00:45:00,
2013-04-14 18:46:00,34.4,8.9,29.95,South,190,9.0,11.0,34,0.00,,SKC,0.00,VWS V14.01,2013-04-15 00:46:00,
2013-04-14 18:47:00,34.4,9.6,29.94,SSW,203,9.0,11.0,35,0.00,,SKC,0.00,VWS V14.01,2013-04-15 00:47:00,
2013-04-14 18:48:00,34.4,8.9,29.95,South,181,11.0,15.0,34,0.00,,SKC,0.00,VWS V14.01,2013-04-15 00:48:00,
2013-04-14 18:49:00,34.4,9.6,29.95,WSW,251,3.0,14.0,35,0.00,,SKC,0.00,VWS V14.01,2013-04-15 00:49:00,
2013-04-14 18:50:00,34.4,9.6,29.95,WSW,251,3.0,14.0,35,0.00,,SKC,0.00,VWS V14.01,2013-04-15 00:50:00,
2013-04-14 18:51:00,34.4,9.6,29.95,SW,228,6.0,6.0,35,0.00,,SKC,0.00,VWS V14.01,2013-04-15 00:51:00,
2013-04-14 18:52:00,34.4,10.2,29.95,SSW,193,7.0,9.0,36,0.00,,SKC,0.00,VWS V14.01,2013-04-15 00:52:00,
2013-04-14 18:53:00,34.4,10.2,29.95,SSW,198,6.0,9.0,36,0.00,,SKC,0.00,VWS V14.01,2013-04-15 00:53:00,
2013-04-14 18:54:00,34.4,10.2,29.95,West,277,12.0,13.0,36,0.00,,SKC,0.00,VWS V14.01,2013-04-15 00:54:00,
2013-04-14 18:55:00,34.4,10.2,29.95,West,277,12.0,13.0,36,0.00,,SKC,0.00,VWS V14.01,2013-04-15 00:55:00,
2013-04-14 18:56:00,34.4,10.2,29.95,North,360,6.0,10.0,36,0.00,,SKC,0.00,VWS V14.01,2013-04-15 00:56:00,
2013-04-14 18:57:00,34.4,10.2,29.95,West,273,5.0,8.0,36,0.00,,SKC,0.00,VWS V14.01,2013-04-15 00:57:00,
2013-04-14 18:58:00,34.4,11.4,29.95,West,275,11.0,11.0,38,0.00,,SKC,0.00,VWS V14.01,2013-04-15 00:58:00,
2013-04-14 18:59:00,34.4,10.2,29.95,SSW,202,6.0,13.0,36,0.00,,SKC,0.00,VWS V14.01,2013-04-15 00:59:00,
2013-04-14 19:00:00,34.4,10.2,29.95,SSW,202,6.0,13.0,36,0.00,,SKC,0.00,VWS V14.01,2013-04-15 01:00:00,
2013-04-14 19:01:00,34.4,9.6,29.95,WSW,243,6.0,7.0,35,0.00,,SKC,0.00,VWS V14.01,2013-04-15 01:01:00,
2013-04-14 19:02:00,34.4,10.2,29.95,West,261,6.0,8.0,36,0.00,,SKC,0.00,VWS V14.01,2013-04-15 01:02:00,
2013-04-14 19:03:00,34.4,10.2,29.95,West,281,6.0,9.0,36,0.00,,SKC,0.00,VWS V14.01,2013-04-15 01:03:00,
2013-04-14 19:04:00,34.4,10.8,29.95,West,267,13.0,13.0,37,0.00,,SKC,0.00,VWS V14.01,2013-04-15 01:04:00,
2013-04-14 19:05:00,34.4,10.8,29.95,West,267,13.0,13.0,37,0.00,,SKC,0.00,VWS V14.01,2013-04-15 01:05:00,
2013-04-14 19:06:00,34.4,10.8,29.95,West,267,4.0,11.0,37,0.00,,SKC,0.00,VWS V14.01,2013-04-15 01:06:00,
2013-04-14 19:07:00,34.4,10.2,29.95,North,360,6.0,11.0,36,0.00,,SKC,0.00,VWS V14.01,2013-04-15 01:07:00,
2013-04-14 19:08:00,34.4,10.2,29.95,WNW,288,3.0,9.0,36,0.00,,SKC,0.00,VWS V14.01,2013-04-15 01:08:00,
2013-04-14 19:09:00,34.4,10.8,29.95,West,263,5.0,5.0,37,0.00,,SKC,0.00,VWS V14.01,2013-04-15 01:09:00,
2013-04-14 19:10:00,34.4,10.8,29.95,West,263,5.0,5.0,37,0.00,,SKC,0.00,VWS V14.01,2013-04-15 01:10:00,
2013-04-14 19:11:00,34.4,10.2,29.95,WSW,246,4.0,6.0,36,0.00,,SKC,0.00,VWS V14.01,2013-04-15 01:11:00,
2013-04-14 19:12:00,34.4,10.8,29.95,North,360,10.0,10.0,37,0.00,,SKC,0.00,VWS V14.01,2013-04-15 01:12:00,
2013-04-14 19:13:00,34.4,11.4,29.95,WNW,288,5.0,11.0,38,0.00,,SKC,0.00,VWS V14.01,2013-04-15 01:13:00,
2013-04-14 19:14:00,34.4,10.8,29.95,West,269,4.0,7.0,37,0.00,,SKC,0.00,VWS V14.01,2013-04-15 01:14:00,
2013-04-14 19:15:00,34.3,11.4,29.95,North,360,7.0,7.0,38,0.00,,SKC,0.00,VWS V14.01,2013-04-15 01:15:00,
2013-04-14 19:16:00,34.3,11.4,29.95,North,360,7.0,7.0,38,0.00,,SKC,0.00,VWS V14.01,2013-04-15 01:16:00,
2013-04-14 19:17:00,34.3,11.4,29.95,West,278,7.0,9.0,38,0.00,,SKC,0.00,VWS V14.01,2013-04-15 01:17:00,
2013-04-14 19:18:00,34.3,11.4,29.96,WNW,284,5.0,9.0,38,0.00,,SKC,0.00,VWS V14.01,2013-04-15 01:18:00,
2013-04-14 19:19:00,34.3,11.4,29.95,WNW,288,4.0,5.0,38,0.00,,SKC,0.00,VWS V14.01,2013-04-15 01:19:00,
2013-04-14 19:20:00,34.3,10.8,29.95,WNW,288,3.0,4.0,37,0.00,,SKC,0.00,VWS V14.01,2013-04-15 01:20:00,
2013-04-14 19:21:00,34.3,10.8,29.95,WNW,288,3.0,4.0,37,0.00,,SKC,0.00,VWS V14.01,2013-04-15 01:21:00,
2013-04-14 19:22:00,34.3,11.9,29.96,WNW,284,4.0,6.0,39,0.00,,SKC,0.00,VWS V14.01,2013-04-15 01:22:00,
2013-04-14 19:23:00,34.2,11.3,29.96,WNW,284,8.0,8.0,38,0.00,,SKC,0.00,VWS V14.01,2013-04-15 01:23:00,
2013-04-14 19:24:00,34.2,11.8,29.96,WNW,286,6.0,8.0,39,0.00,,SKC,0.00,VWS V14.01,2013-04-15 01:24:00,
2013-04-14 19:25:00,34.2,11.8,29.96,WNW,286,7.0,8.0,39,0.00,,SKC,0.00,VWS V14.01,2013-04-15 01:25:00,
2013-04-14 19:26:00,34.2,11.8,29.96,WNW,286,7.0,8.0,39,0.00,,SKC,0.00,VWS V14.01,2013-04-15 01:26:00,
2013-04-14 19:27:00,34.2,11.3,29.96,WNW,285,1.0,4.0,38,0.00,,SKC,0.00,VWS V14.01,2013-04-15 01:27:00,
2013-04-14 19:28:00,34.2,11.3,29.96,NW,307,4.0,4.0,38,0.00,,SKC,0.00,VWS V14.01,2013-04-15 01:28:00,
2013-04-14 19:29:00,34.2,10.7,29.96,NW,313,2.0,4.0,37,0.00,,SKC,0.00,VWS V14.01,2013-04-15 01:29:00,
2013-04-14 19:30:00,34.2,10.7,29.96,North,360,2.0,3.0,37,0.00,,SKC,0.00,VWS V14.01,2013-04-15 01:30:00,
2013-04-14 19:31:00,34.2,10.7,29.96,North,360,2.0,3.0,37,0.00,,SKC,0.00,VWS V14.01,2013-04-15 01:31:00,
2013-04-14 19:32:00,34.2,11.3,29.96,NW,321,4.0,6.0,38,0.00,,SKC,0.00,VWS V14.01,2013-04-15 01:32:00,
2013-04-14 19:33:00,34.2,11.3,29.96,WNW,297,5.0,5.0,38,0.00,,SKC,0.00,VWS V14.01,2013-04-15 01:33:00,
2013-04-14 19:34:00,34.2,11.3,29.96,North,360,7.0,7.0,38,0.00,,SKC,0.00,VWS V14.01,2013-04-15 01:34:00,
2013-04-14 19:35:00,34.2,11.8,29.96,WNW,288,6.0,7.0,39,0.00,,SKC,0.00,VWS V14.01,2013-04-15 01:35:00,
2013-04-14 19:36:00,34.2,11.8,29.96,NW,310,3.0,6.0,39,0.00,,SKC,0.00,VWS V14.01,2013-04-15 01:36:00,
2013-04-14 19:37:00,34.2,11.8,29.96,NW,310,3.0,6.0,39,0.00,,SKC,0.00,VWS V14.01,2013-04-15 01:37:00,
2013-04-14 19:38:00,34.2,11.3,29.96,NW,316,3.0,4.0,38,0.00,,SKC,0.00,VWS V14.01,2013-04-15 01:38:00,
2013-04-14 19:39:00,34.2,11.8,29.96,North,360,2.0,4.0,39,0.00,,SKC,0.00,VWS V14.01,2013-04-15 01:39:00,
2013-04-14 19:41:00,34.2,11.8,29.96,NW,304,3.0,4.0,39,0.00,,SKC,0.00,VWS V14.01,2013-04-15 01:41:00,
2013-04-14 19:42:00,34.2,11.8,29.96,NW,304,3.0,4.0,39,0.00,,SKC,0.00,VWS V14.01,2013-04-15 01:42:00,
2013-04-14 19:43:00,34.1,11.8,29.96,NW,304,1.0,4.0,39,0.00,,SKC,0.00,VWS V14.01,2013-04-15 01:43:00,
2013-04-14 19:47:00,34.1,11.8,29.96,WNW,300,7.0,9.0,39,0.00,,SKC,0.00,VWS V14.01,2013-04-15 01:47:00,
2013-04-14 19:48:00,34.1,12.3,29.96,WNW,284,5.0,9.0,40,0.00,,SKC,0.00,VWS V14.01,2013-04-15 01:48:00,
2013-04-14 19:49:00,34.1,12.3,29.96,North,360,4.0,6.0,40,0.00,,SKC,0.00,VWS V14.01,2013-04-15 01:49:00,
2013-04-14 19:50:00,34.1,11.8,29.96,West,279,7.0,8.0,39,0.00,,SKC,0.00,VWS V14.01,2013-04-15 01:50:00,
2013-04-14 19:51:00,34.1,12.3,29.96,WNW,289,7.0,9.0,40,0.00,,SKC,0.00,VWS V14.01,2013-04-15 01:51:00,
2013-04-14 19:52:00,34.1,12.3,29.96,WNW,289,7.0,9.0,40,0.00,,SKC,0.00,VWS V14.01,2013-04-15 01:52:00,
2013-04-14 19:53:00,34.1,12.9,29.96,WNW,284,10.0,16.0,41,0.00,,SKC,0.00,VWS V14.01,2013-04-15 01:53:00,
2013-04-14 19:54:00,34.1,12.9,29.97,WNW,292,10.0,13.0,41,0.00,,SKC,0.00,VWS V14.01,2013-04-15 01:54:00,
2013-04-14 19:55:00,34.1,12.9,29.97,North,360,7.0,12.0,41,0.00,,SKC,0.00,VWS V14.01,2013-04-15 01:55:00,
2013-04-14 19:58:00,34.1,12.9,29.97,SW,221,10.0,15.0,41,0.00,,SKC,0.00,VWS V14.01,2013-04-15 01:58:00,
2013-04-14 20:04:00,33.4,14.4,29.97,WNW,296,11.0,17.0,45,0.00,,SKC,0.00,VWS V14.01,2013-04-15 02:04:00,
2013-04-14 20:05:00,33.6,14.5,29.97,North,0,17.0,20.0,45,0.00,,SKC,0.00,VWS V14.01,2013-04-15 02:05:00,
2013-04-14 20:06:00,33.3,14.8,29.97,WNW,286,18.0,21.0,46,0.00,,SKC,0.00,VWS V14.01,2013-04-15 02:06:00,
2013-04-14 20:07:00,33.2,14.7,29.97,WNW,286,10.0,20.0,46,0.00,,SKC,0.00,VWS V14.01,2013-04-15 02:07:00,
2013-04-14 20:08:00,33.2,14.7,29.97,WNW,294,18.0,18.0,46,0.00,,SKC,0.00,VWS V14.01,2013-04-15 02:08:00,
2013-04-14 20:09:00,33.0,15.0,29.97,North,360,23.0,23.0,47,0.00,,SKC,0.00,VWS V14.01,2013-04-15 02:09:00,
2013-04-14 20:10:00,33.0,15.0,29.97,North,360,9.0,23.0,47,0.00,,SKC,0.00,VWS V14.01,2013-04-15 02:10:00,
2013-04-14 20:11:00,33.0,15.0,29.97,North,360,9.0,12.0,47,0.00,,SKC,0.00,VWS V14.01,2013-04-15 02:11:00,
2013-04-14 20:12:00,32.9,14.4,29.97,WSW,248,10.0,14.0,46,0.00,,SKC,0.00,VWS V14.01,2013-04-15 02:12:00,
2013-04-14 20:13:00,32.9,14.9,29.97,North,360,9.0,11.0,47,0.00,,SKC,0.00,VWS V14.01,2013-04-15 02:13:00,
2013-04-14 20:14:00,32.8,14.8,29.97,West,268,10.0,13.0,47,0.00,,SKC,0.00,VWS V14.01,2013-04-15 02:14:00,
2013-04-14 20:15:00,32.8,14.8,29.98,West,281,11.0,11.0,47,0.00,,SKC,0.00,VWS V14.01,2013-04-15 02:15:00,
2013-04-14 20:16:00,32.8,14.8,29.98,West,267,10.0,14.0,47,0.00,,SKC,0.00,VWS V14.01,2013-04-15 02:16:00,
2013-04-14 20:17:00,32.8,15.3,29.98,West,273,4.0,10.0,48,0.00,,SKC,0.00,VWS V14.01,2013-04-15 02:17:00,
2013-04-14 20:18:00,32.7,15.2,29.98,SW,236,5.0,6.0,48,0.00,,SKC,0.00,VWS V14.01,2013-04-15 02:18:00,
2013-04-14 20:19:00,32.7,15.2,29.98,North,360,6.0,10.0,48,0.00,,SKC,0.00,VWS V14.01,2013-04-15 02:19:00,
2013-04-14 20:20:00,32.6,15.1,29.98,SW,227,4.0,6.0,48,0.00,,SKC,0.00,VWS V14.01,2013-04-15 02:20:00,
2013-04-14 20:21:00,32.6,15.1,29.98,SW,215,10.0,10.0,48,0.00,,SKC,0.00,VWS V14.01,2013-04-15 02:21:00,
2013-04-14 20:22:00,32.6,15.1,29.98,North,360,5.0,11.0,48,0.00,,SKC,0.00,VWS V14.01,2013-04-15 02:22:00,
2013-04-14 20:23:00,32.6,15.6,29.98,West,260,7.0,7.0,49,0.00,,SKC,0.00,VWS V14.01,2013-04-15 02:23:00,
2013-04-14 20:24:00,32.5,15.5,29.98,West,273,4.0,7.0,49,0.00,,SKC,0.00,VWS V14.01,2013-04-15 02:24:00,
2013-04-14 20:25:00,32.5,15.5,29.98,West,273,2.0,4.0,49,0.00,,SKC,0.00,VWS V14.01,2013-04-15 02:25:00,
2013-04-14 20:26:00,32.4,15.9,29.98,SW,214,5.0,6.0,50,0.00,,SKC,0.00,VWS V14.01,2013-04-15 02:26:00,
2013-04-14 20:36:00,31.9,15.8,29.98,West,261,6.0,10.0,51,0.00,,SKC,0.00,VWS V14.01,2013-04-15 02:36:00,
2013-04-14 20:41:00,31.7,16.1,29.98,West,273,6.0,6.0,52,0.00,,SKC,0.00,VWS V14.01,2013-04-15 02:41:00,
2013-04-14 20:46:00,31.6,16.5,29.99,SSW,192,7.0,9.0,53,0.00,,SKC,0.00,VWS V14.01,2013-04-15 02:46:00,
2013-04-14 20:51:00,31.4,16.3,29.99,WNW,284,3.0,4.0,53,0.00,,SKC,0.00,VWS V14.01,2013-04-15 02:51:00,
2013-04-14 20:56:00,31.2,16.9,29.99,WNW,290,10.0,15.0,55,0.00,,SKC,0.00,VWS V14.01,2013-04-15 02:56:00,
2013-04-14 21:02:00,31.0,17.2,29.99,West,267,5.0,7.0,56,0.00,,SKC,0.00,VWS V14.01,2013-04-15 03:02:00,
2013-04-14 21:07:00,30.9,17.5,29.99,North,360,12.0,12.0,57,0.00,,SKC,0.00,VWS V14.01,2013-04-15 03:07:00,
2013-04-14 21:12:00,30.8,17.8,29.99,WSW,242,7.0,8.0,58,0.00,,SKC,0.00,VWS V14.01,2013-04-15 03:12:00,
2013-04-14 21:17:00,30.7,17.7,29.99,WNW,290,9.0,11.0,58,0.00,,SKC,0.00,VWS V14.01,2013-04-15 03:17:00,
2013-04-14 21:22:00,30.7,17.7,29.99,WNW,288,10.0,12.0,58,0.00,,SKC,0.00,VWS V14.01,2013-04-15 03:22:00,
2013-04-14 21:28:00,30.7,17.3,30.00,WSW,246,5.0,9.0,57,0.00,,SKC,0.00,VWS V14.01,2013-04-15 03:28:00,
2013-04-14 21:33:00,30.8,17.4,30.00,West,276,12.0,16.0,57,0.00,,SKC,0.00,VWS V14.01,2013-04-15 03:33:00,
2013-04-14 21:38:00,30.9,17.5,30.00,West,273,10.0,11.0,57,0.00,,SKC,0.00,VWS V14.01,2013-04-15 03:38:00,
2013-04-14 21:44:00,31.0,17.2,30.00,West,263,15.0,21.0,56,0.00,,SKC,0.00,VWS V14.01,2013-04-15 03:44:00,
2013-04-14 21:49:00,31.2,17.3,30.00,West,281,17.0,17.0,56,0.00,,SKC,0.00,VWS V14.01,2013-04-15 03:49:00,
2013-04-14 21:57:00,31.4,17.5,30.01,North,360,14.0,16.0,56,0.00,,SKC,0.00,VWS V14.01,2013-04-15 03:57:00,
2013-04-14 22:00:00,31.6,17.7,30.01,West,273,10.0,14.0,56,0.00,,SKC,0.00,VWS V14.01,2013-04-15 04:00:00,
2013-04-14 22:01:00,31.5,17.2,30.01,WNW,294,6.0,10.0,55,0.00,,SKC,0.00,VWS V14.01,2013-04-15 04:01:00,
2013-04-14 22:03:00,31.6,17.7,30.01,West,274,10.0,11.0,56,0.00,,SKC,0.00,VWS V14.01,2013-04-15 04:03:00,
2013-04-14 22:08:00,31.7,17.4,30.02,WNW,291,16.0,22.0,55,0.00,,SKC,0.00,VWS V14.01,2013-04-15 04:08:00,
2013-04-14 22:13:00,31.8,18.3,30.02,WNW,296,15.0,18.0,57,0.00,,SKC,0.00,VWS V14.01,2013-04-15 04:13:00,
2013-04-14 22:17:00,31.7,18.6,30.02,North,360,19.0,19.0,58,0.00,,SKC,0.00,VWS V14.01,2013-04-15 04:17:00,
2013-04-14 22:22:00,31.5,18.8,30.03,WNW,300,14.0,18.0,59,0.00,,SKC,0.00,VWS V14.01,2013-04-15 04:22:00,
2013-04-14 22:27:00,31.2,19.3,30.03,West,275,18.0,20.0,61,0.00,,SKC,0.00,VWS V14.01,2013-04-15 04:27:00,
2013-04-14 22:32:00,31.0,19.5,30.03,North,360,14.0,19.0,62,0.00,,SKC,0.00,VWS V14.01,2013-04-15 04:32:00,
2013-04-14 22:37:00,30.8,19.7,30.03,WNW,289,14.0,19.0,63,0.00,,SKC,0.00,VWS V14.01,2013-04-15 04:37:00,
2013-04-14 22:42:00,30.8,19.7,30.03,WSW,254,9.0,15.0,63,0.00,,SKC,0.00,VWS V14.01,2013-04-15 04:42:00,
2013-04-14 22:47:00,30.7,19.6,30.03,North,360,11.0,12.0,63,0.00,,SKC,0.00,VWS V14.01,2013-04-15 04:47:00,
2013-04-14 22:52:00,30.6,19.5,30.03,West,266,7.0,14.0,63,0.00,,SKC,0.00,VWS V14.01,2013-04-15 04:52:00,
2013-04-14 22:57:00,30.5,19.4,30.03,North,360,12.0,12.0,63,0.00,,SKC,0.00,VWS V14.01,2013-04-15 04:57:00,
2013-04-14 23:02:00,30.5,19.8,30.03,WSW,246,5.0,9.0,64,0.00,,SKC,0.00,VWS V14.01,2013-04-15 05:02:00,
2013-04-14 23:07:00,30.3,19.6,30.03,WSW,252,10.0,10.0,64,0.00,,SKC,0.00,VWS V14.01,2013-04-15 05:07:00,
2013-04-14 23:12:00,30.3,19.6,30.03,SW,228,8.0,15.0,64,0.00,,SKC,0.00,VWS V14.01,2013-04-15 05:12:00,
2013-04-14 23:17:00,30.5,19.4,30.03,SW,222,3.0,3.0,63,0.00,,SKC,0.00,VWS V14.01,2013-04-15 05:17:00,
2013-04-14 23:22:00,30.5,19.8,30.04,West,264,3.0,3.0,64,0.00,,SKC,0.00,VWS V14.01,2013-04-15 05:22:00,
2013-04-14 23:27:00,30.4,19.7,30.03,North,360,0.0,0.0,64,0.00,,SKC,0.00,VWS V14.01,2013-04-15 05:27:00,
2013-04-14 23:32:00,30.3,19.6,30.03,East,88,5.0,6.0,64,0.00,,SKC,0.00,VWS V14.01,2013-04-15 05:32:00,
2013-04-14 23:37:00,30.2,19.5,30.03,ENE,69,5.0,7.0,64,0.00,,SKC,0.00,VWS V14.01,2013-04-15 05:37:00,
2013-04-14 23:42:00,30.3,19.2,30.03,East,88,0.0,0.0,63,0.00,,SKC,0.00,VWS V14.01,2013-04-15 05:42:00,
2013-04-14 23:47:00,30.3,19.2,30.04,East,92,4.0,5.0,63,0.00,,SKC,0.00,VWS V14.01,2013-04-15 05:47:00,
2013-04-14 23:52:00,30.3,19.2,30.04,ENE,74,5.0,5.0,63,0.00,,SKC,0.00,VWS V14.01,2013-04-15 05:52:00,
2013-04-14 23:57:00,30.3,18.5,30.04,ENE,74,0.0,1.0,61,0.00,,SKC,0.00,VWS V14.01,2013-04-15 05:57:00,